ftp/pub/palmer/observations_modified/2019/June/original_files/AR190607_BASE.txt

Download

Sample DateTime	Unit Id	WS Avg 2min	WD Avg 2min	WGS 10min	WGD 10min	Air Temp	Rel Humidity	Dew Point	Pyranometer	Quantum	Air Pressure	Snow Level	Rainfall	PW Current	Visibility	CBase 1	CBase 2	CBase 3	Vert Vis
2019/06/07 00:00:00	BASE	2.61	345	2.78	343	-0.6	100	-0.6	0	0	986.3	NA	0.0000	-SN BR	6000	1770	0	0	0
2019/06/07 00:01:00	BASE	2.60	346	2.78	343	-0.7	100	-0.7	0	0	986.3	NA	0.0000	-SN BR	6000	1770	0	0	0
2019/06/07 00:02:00	BASE	2.62	349	2.78	343	-0.7	100	-0.7	0	0	986.3	NA	0.0000	-SN BR	6000	1770	0	0	0
2019/06/07 00:03:00	BASE	2.66	354	2.78	354	-0.7	100	-0.7	0	0	986.3	NA	0.0000	-SN BR	6000	1740	0	0	0
2019/06/07 00:04:00	BASE	2.64	356	2.78	354	-0.7	100	-0.7	0	0	986.3	NA	0.0000	-SN BR	6000	1710	0	0	0
2019/06/07 00:05:00	BASE	2.61	359	2.78	360	-0.8	100	-0.8	0	0	986.3	NA	0.0000	-SN BR	6000	1710	0	0	0
2019/06/07 00:06:00	BASE	2.52	2	2.78	360	-0.8	100	-0.8	0	0	986.3	NA	0.0000	BR	6000	1740	0	0	0
2019/06/07 00:07:00	BASE	2.37	2	2.78	360	-0.8	100	-0.8	0	0	986.3	NA	0.0000	BR	6000	1770	0	0	0
2019/06/07 00:08:00	BASE	2.25	3	2.78	360	-0.9	100	-0.9	0	0	986.3	NA	0.0000	BR	6000	1770	0	0	0
2019/06/07 00:09:00	BASE	2.22	3	2.78	360	-0.9	100	-0.9	0	0	986.3	NA	0.0000	BR	5000	1770	0	0	0
2019/06/07 00:10:00	BASE	2.22	5	2.78	360	-0.9	100	-0.9	0	0	986.3	NA	0.0000	BR	5000	1770	0	0	0
2019/06/07 00:11:00	BASE	2.20	360	2.78	360	-0.9	100	-0.9	0	0	986.3	NA	0.0000	BR	5000	1770	0	0	0
2019/06/07 00:12:00	BASE	2.25	350	2.78	360	-0.9	100	-0.9	0	0	986.3	NA	0.0000	BR	5000	1770	0	0	0
2019/06/07 00:13:00	BASE	2.29	350	2.78	360	-0.9	100	-0.9	0	0	986.3	NA	0.0000	BR	5000	1800	0	0	0
2019/06/07 00:14:00	BASE	2.31	345	2.78	360	-0.8	100	-0.8	0	0	986.3	NA	0.0000	BR	5000	0	0	0	520
2019/06/07 00:15:00	BASE	2.46	337	2.68	333	-0.8	100	-0.8	0	0	986.3	NA	0.0000	BR	5000	0	0	0	560
2019/06/07 00:16:00	BASE	2.47	333	2.68	333	-0.8	100	-0.8	0	0	986.3	NA	0.0000	BR	5000	1710	0	0	0
2019/06/07 00:17:00	BASE	2.37	332	2.68	333	-0.8	100	-0.8	0	0	986.3	NA	0.0000	BR	5000	1640	0	0	0
2019/06/07 00:18:00	BASE	2.37	334	2.68	333	-0.8	100	-0.8	0	0	986.3	NA	0.0000	BR	5000	1610	0	0	0
2019/06/07 00:19:00	BASE	2.35	332	2.68	333	-0.7	100	-0.7	0	0	986.3	NA	0.0000	BR	5000	0	0	0	2070
2019/06/07 00:20:00	BASE	2.28	329	2.68	333	-0.7	100	-0.7	0	0	986.3	NA	0.0000	BR	5000	1540	0	0	0
2019/06/07 00:21:00	BASE	2.21	327	2.68	333	-0.7	100	-0.7	0	0	986.3	NA	0.0000	BR	5000	1800	0	0	0
2019/06/07 00:22:00	BASE	2.17	325	2.68	333	-0.7	100	-0.7	0	0	986.3	NA	0.0000	BR	5000	720	0	0	0
2019/06/07 00:23:00	BASE	2.13	324	2.68	333	-0.7	100	-0.7	0	0	986.3	NA	0.0000	BR	5000	1770	0	0	0
2019/06/07 00:24:00	BASE	2.16	326	2.68	333	-0.7	100	-0.7	0	0	986.3	NA	0.0000	BR	5000	0	0	0	2030
2019/06/07 00:25:00	BASE	2.16	329	2.47	331	-0.7	100	-0.7	0	0	986.3	NA	0.0000	BR	5000	1770	0	0	0
2019/06/07 00:26:00	BASE	2.12	331	2.42	329	-0.7	100	-0.7	0	0	986.3	NA	0.0000	BR	5000	1540	0	0	0
2019/06/07 00:27:00	BASE	2.03	333	2.42	329	-0.7	100	-0.7	0	0	986.3	NA	0.0000	BR	5000	1510	0	0	0
2019/06/07 00:28:00	BASE	1.93	334	2.42	329	-0.6	100	-0.6	0	0	986.3	NA	0.0000	BR	5000	0	0	0	1970
2019/06/07 00:29:00	BASE	1.73	338	2.37	330	-0.6	100	-0.6	0	0	986.3	NA	0.0000	BR	5000	0	0	0	1900
2019/06/07 00:30:00	BASE	1.63	344	2.31	331	-0.6	100	-0.6	0	0	986.2	NA	0.0000	BR	5000	0	0	0	1870
2019/06/07 00:31:00	BASE	1.75	342	2.31	331	-0.6	100	-0.6	0	0	986.3	NA	0.0000	BR	5000	620	0	0	0
2019/06/07 00:32:00	BASE	1.78	340	2.31	331	-0.6	100	-0.6	0	0	986.3	NA	0.0000	BR	5000	590	1280	0	0
2019/06/07 00:33:00	BASE	1.74	342	2.31	331	-0.6	100	-0.6	0	0	986.3	NA	0.0000	BR	5000	590	0	0	0
2019/06/07 00:34:00	BASE	1.66	356	2.31	331	-0.6	100	-0.6	0	0	986.3	NA	0.0000	BR	5000	360	1610	0	0
2019/06/07 00:35:00	BASE	1.63	3	2.31	331	-0.6	100	-0.6	0	0	986.3	NA	0.0000	BR	5000	0	0	0	1870
2019/06/07 00:36:00	BASE	1.79	4	2.11	2	-0.6	100	-0.6	0	0	986.3	NA	0.0000	BR	5000	0	0	0	1870
2019/06/07 00:37:00	BASE	1.87	6	2.11	2	-0.6	100	-0.6	0	0	986.3	NA	0.0000	UP BR	5000	620	1570	0	0
2019/06/07 00:38:00	BASE	1.80	3	2.11	2	-0.6	100	-0.6	0	0	986.3	NA	0.0000	UP BR	5000	660	0	0	0
2019/06/07 00:39:00	BASE	1.93	352	2.37	349	-0.6	100	-0.6	0	0	986.3	NA	0.0000	UP BR	5000	660	0	0	0
2019/06/07 00:40:00	BASE	2.09	346	2.37	354	-0.7	100	-0.7	0	0	986.3	NA	0.0000	UP BR	5000	660	0	0	0
2019/06/07 00:41:00	BASE	2.08	355	2.37	354	-0.7	100	-0.7	0	0	986.3	NA	0.0000	UP BR	5000	660	1350	0	0
2019/06/07 00:42:00	BASE	1.98	357	2.37	354	-0.7	100	-0.7	0	0	986.3	NA	0.0000	UP BR	5000	0	0	0	1510
2019/06/07 00:43:00	BASE	1.88	2	2.37	354	-0.7	100	-0.7	0	0	986.3	NA	0.0000	UP BR	5000	0	0	0	1540
2019/06/07 00:44:00	BASE	1.99	1	2.37	354	-0.6	100	-0.6	0	0	986.3	NA	0.0000	UP BR	5000	0	0	0	1610
2019/06/07 00:45:00	BASE	2.06	355	2.37	354	-0.7	100	-0.7	0	0	986.3	NA	0.0000	BR	5000	0	0	0	1540
2019/06/07 00:46:00	BASE	2.05	354	2.37	344	-0.7	100	-0.7	0	0	986.3	NA	0.0000	BR	5000	0	0	0	1640
2019/06/07 00:47:00	BASE	2.16	355	2.42	9	-0.7	100	-0.7	0	0	986.3	NA	0.0000	BR	5000	660	0	0	0
2019/06/07 00:48:00	BASE	2.09	354	2.42	9	-0.7	100	-0.7	0	0	986.3	NA	0.0000	BR	5000	620	0	0	0
2019/06/07 00:49:00	BASE	1.95	353	2.42	9	-0.7	100	-0.7	0	0	986.3	NA	0.0000	BR	5000	0	0	0	1610
2019/06/07 00:50:00	BASE	2.00	358	2.42	9	-0.7	100	-0.7	0	0	986.4	NA	0.0000	BR	5000	0	0	0	1640
2019/06/07 00:51:00	BASE	2.12	4	2.42	360	-0.7	100	-0.7	0	0	986.4	NA	0.0000	BR	5000	560	1380	0	0
2019/06/07 00:52:00	BASE	2.11	6	2.42	360	-0.7	100	-0.7	0	0	986.4	NA	0.0000	BR	5000	0	0	0	1710
2019/06/07 00:53:00	BASE	2.08	5	2.42	360	-0.7	100	-0.7	0	0	986.4	NA	0.0000	BR	5000	0	0	0	1640
2019/06/07 00:54:00	BASE	2.15	5	2.62	16	-0.7	100	-0.7	0	0	986.4	NA	0.0000	BR	5000	0	0	0	1710
2019/06/07 00:55:00	BASE	2.04	6	2.62	16	-0.7	100	-0.7	0	0	986.4	NA	0.0000	BR	5000	0	0	0	1740
2019/06/07 00:56:00	BASE	1.99	7	2.62	16	-0.7	100	-0.7	0	0	986.4	NA	0.0000	BR	5000	0	0	0	1710
2019/06/07 00:57:00	BASE	1.96	7	2.62	16	-0.7	100	-0.7	0	0	986.4	NA	0.0000	BR	5000	0	0	0	1640
2019/06/07 00:58:00	BASE	1.72	8	2.62	16	-0.7	100	-0.7	0	0	986.4	NA	0.0000	BR	5000	0	0	0	1570
2019/06/07 00:59:00	BASE	1.67	10	2.62	16	-0.7	100	-0.7	0	0	986.4	NA	0.0000	BR	5000	0	0	0	1640
2019/06/07 01:00:00	BASE	1.81	8	2.62	16	-0.6	100	-0.6	0	0	986.4	NA	0.0000	BR	5000	0	0	0	1540
2019/06/07 01:01:00	BASE	1.62	2	2.62	16	-0.6	100	-0.6	0	0	986.4	NA	0.0000	BR	5000	0	0	0	1570
2019/06/07 01:02:00	BASE	1.55	1	2.62	16	-0.6	100	-0.6	0	0	986.4	NA	0.0000	BR	6000	720	0	0	0
2019/06/07 01:03:00	BASE	1.77	5	2.62	16	-0.6	100	-0.6	0	0	986.4	NA	0.0000	UP BR	9000	690	0	0	0
2019/06/07 01:04:00	BASE	1.77	4	2.42	17	-0.6	100	-0.6	0	0	986.4	NA	0.0000	UP BR	9999	690	0	0	0
2019/06/07 01:05:00	BASE	1.77	5	2.26	6	-0.6	100	-0.6	0	0	986.4	NA	0.0000	UP BR	9999	0	0	0	1440
2019/06/07 01:06:00	BASE	1.68	7	2.21	1	-0.6	100	-0.6	0	0	986.4	NA	0.0000	UP BR	9999	660	0	0	0
2019/06/07 01:07:00	BASE	1.37	9	2.21	1	-0.6	100	-0.6	0	0	986.4	NA	0.0000	UP BR	9000	690	0	0	0
2019/06/07 01:08:00	BASE	1.26	9	2.21	1	-0.6	100	-0.6	0	0	986.4	NA	0.0000	UP BR	9999	660	0	0	0
2019/06/07 01:09:00	BASE	1.38	1	2.21	1	-0.6	100	-0.6	0	0	986.4	NA	0.0000	UP BR	9999	660	0	0	0
2019/06/07 01:10:00	BASE	1.38	357	2.21	1	-0.6	100	-0.6	0	0	986.4	NA	0.0000	UP BR	9999	620	0	0	0
2019/06/07 01:11:00	BASE	1.31	357	2.21	1	-0.6	100	-0.6	0	0	986.4	NA	0.0000	UP BR	9000	660	0	0	0
2019/06/07 01:12:00	BASE	0.96	360	2.21	1	-0.6	100	-0.6	0	0	986.4	NA	0.0000	UP BR	9000	660	0	0	0
2019/06/07 01:13:00	BASE	0.31	3	2.21	1	-0.6	100	-0.6	0	0	986.4	NA	0.0000	UP BR	9000	660	0	0	0
2019/06/07 01:14:00	BASE	0.00	358	2.21	1	-0.6	100	-0.6	0	0	986.4	NA	0.0000	UP BR	8000	660	0	0	0
2019/06/07 01:15:00	BASE	0.00	351	1.80	15	-0.6	100	-0.6	0	0	986.4	NA	0.0000	UP BR	7000	620	0	0	0
2019/06/07 01:16:00	BASE	0.00	352	1.70	353	-0.6	100	-0.6	0	0	986.4	NA	0.0000	UP BR	8000	620	0	0	0
2019/06/07 01:17:00	BASE	0.00	354	1.70	353	-0.6	100	-0.6	0	0	986.4	NA	0.0000	UP BR	8000	620	0	0	0
2019/06/07 01:18:00	BASE	0.00	355	1.70	353	-0.6	100	-0.6	0	0	986.4	NA	0.0000	UP BR	7000	620	0	0	0
2019/06/07 01:19:00	BASE	0.00	11	1.44	351	-0.6	100	-0.6	0	0	986.4	NA	0.0000	UP BR	8000	620	0	0	0
2019/06/07 01:20:00	BASE	0.00	35	1.39	347	-0.5	100	-0.5	0	0	986.4	NA	0.0000	UP BR	7000	620	0	0	0
2019/06/07 01:21:00	BASE	0.00	43	1.34	352	-0.5	100	-0.5	0	0	986.4	NA	0.0000	UP BR	7000	590	0	0	0
2019/06/07 01:22:00	BASE	0.00	41	M	M	-0.5	100	-0.5	0	0	986.4	NA	0.0000	UP BR	7000	590	0	0	0
2019/06/07 01:23:00	BASE	0.00	41	M	M	-0.5	100	-0.5	0	0	986.4	NA	0.0000	UP BR	7000	620	0	0	0
2019/06/07 01:24:00	BASE	0.00	41	M	M	-0.5	100	-0.5	0	0	986.4	NA	0.0000	UP BR	6000	620	0	0	0
2019/06/07 01:25:00	BASE	0.00	41	M	M	-0.4	100	-0.4	0	0	986.4	NA	0.0000	UP BR	6000	590	0	0	0
2019/06/07 01:26:00	BASE	0.00	41	M	M	-0.4	100	-0.4	0	0	986.4	NA	0.0000	UP BR	5000	620	0	0	0
2019/06/07 01:27:00	BASE	0.00	41	M	M	-0.4	100	-0.4	0	0	986.4	NA	0.0000	UP BR	6000	620	0	0	0
2019/06/07 01:28:00	BASE	0.00	41	M	M	-0.4	100	-0.4	0	0	986.4	NA	0.0000	UP BR	5000	590	0	0	0
2019/06/07 01:29:00	BASE	0.00	41	M	M	-0.4	100	-0.4	0	0	986.4	NA	0.0000	UP BR	6000	590	0	0	0
2019/06/07 01:30:00	BASE	0.00	43	M	M	-0.4	100	-0.4	0	0	986.4	NA	0.0000	UP BR	6000	590	0	0	0
2019/06/07 01:31:00	BASE	0.00	44	M	M	-0.4	100	-0.4	0	0	986.4	NA	0.0000	UP BR	6000	590	0	0	0
2019/06/07 01:32:00	BASE	0.00	49	M	M	-0.4	100	-0.4	0	0	986.4	NA	0.0000	UP BR	7000	590	0	0	0
2019/06/07 01:33:00	BASE	0.00	53	M	M	-0.4	100	-0.4	0	0	986.4	NA	0.0000	UP BR	7000	590	0	0	0
2019/06/07 01:34:00	BASE	0.18	52	1.13	52	-0.4	100	-0.4	0	0	986.4	NA	0.0000	UP BR	8000	620	0	0	0
2019/06/07 01:35:00	BASE	0.76	53	1.18	56	-0.3	100	-0.3	0	0	986.4	NA	0.0000	UP BR	8000	620	0	0	0
2019/06/07 01:36:00	BASE	1.22	55	1.39	56	-0.3	100	-0.3	0	0	986.4	NA	0.0000	UP BR	8000	620	0	0	0
2019/06/07 01:37:00	BASE	1.36	57	1.59	65	-0.3	100	-0.3	0	0	986.4	NA	0.0000	UP BR	8000	620	0	0	0
2019/06/07 01:38:00	BASE	1.66	65	2.16	77	-0.3	100	-0.3	0	0	986.4	NA	0.0000	UP BR	8000	620	0	0	0
2019/06/07 01:39:00	BASE	2.10	76	2.62	79	-0.3	100	-0.3	0	0	986.5	NA	0.0000	UP BR	8000	620	0	0	0
2019/06/07 01:40:00	BASE	2.68	78	3.14	74	-0.3	100	-0.3	0	0	986.5	NA	0.0000	UP BR	9000	660	1210	0	0
2019/06/07 01:41:00	BASE	3.00	75	3.45	83	-0.3	100	-0.3	0	0	986.4	NA	0.0000	UP BR	9999	620	1250	0	0
2019/06/07 01:42:00	BASE	3.15	80	3.65	88	-0.3	100	-0.3	0	0	986.4	NA	0.0000	UP BR	9999	620	1250	0	0
2019/06/07 01:43:00	BASE	3.25	83	3.65	88	-0.3	100	-0.3	0	0	986.4	NA	0.0000	UP BR	9999	560	0	0	0
2019/06/07 01:44:00	BASE	3.28	80	3.65	88	-0.3	100	-0.3	0	0	986.4	NA	0.0000	UP BR	9000	520	1280	0	0
2019/06/07 01:45:00	BASE	3.17	85	3.65	88	-0.3	100	-0.3	0	0	986.4	NA	0.0000	UP BR	9000	490	1280	0	0
2019/06/07 01:46:00	BASE	2.70	94	3.65	88	-0.3	100	-0.3	0	0	986.4	NA	0.0000	UP BR	9000	490	0	0	0
2019/06/07 01:47:00	BASE	2.57	95	3.65	88	-0.3	100	-0.3	0	0	986.4	NA	0.0000	UP BR	9999	1250	0	0	0
2019/06/07 01:48:00	BASE	2.62	96	3.65	88	-0.2	100	-0.2	0	0	986.4	NA	0.0000	UP BR	9000	1250	0	0	0
2019/06/07 01:49:00	BASE	2.54	100	3.65	88	-0.2	100	-0.2	0	0	986.4	NA	0.0000	UP BR	9000	1250	0	0	0
2019/06/07 01:50:00	BASE	2.54	100	3.65	88	-0.2	100	-0.2	0	0	986.4	NA	0.0000	UP BR	9999	1250	0	0	0
2019/06/07 01:51:00	BASE	2.52	93	3.65	88	-0.2	100	-0.2	0	0	986.4	NA	0.0000	UP BR	9999	1210	0	0	0
2019/06/07 01:52:00	BASE	2.28	88	3.60	83	-0.1	100	-0.1	0	0	986.5	NA	0.0000	UP BR	9999	1180	0	0	0
2019/06/07 01:53:00	BASE	2.11	89	3.60	83	-0.1	100	-0.1	0	0	986.5	NA	0.0000	UP BR	9999	1180	0	0	0
2019/06/07 01:54:00	BASE	2.36	91	3.19	87	-0.0	100	-0.0	0	0	986.5	NA	0.0000	UP BR	9999	1120	0	0	0
2019/06/07 01:55:00	BASE	2.66	90	3.24	88	0.0	100	0.0	0	0	986.5	NA	0.0000	UP BR	9999	1150	0	0	0
2019/06/07 01:56:00	BASE	2.75	88	3.24	88	0.1	100	0.1	0	0	986.5	NA	0.0000	UP BR	9999	1120	0	0	0
2019/06/07 01:57:00	BASE	2.85	89	3.24	88	0.1	100	0.1	0	0	986.5	NA	0.0000	UP	9999	1080	0	0	0
2019/06/07 01:58:00	BASE	2.89	90	3.24	88	0.1	100	0.1	0	0	986.5	NA	0.0000	UP	9999	1080	0	0	0
2019/06/07 01:59:00	BASE	2.79	89	3.24	88	0.1	100	0.1	0	0	986.5	NA	0.0000	UP	9999	1080	0	0	0
2019/06/07 02:00:00	BASE	2.74	89	3.24	88	0.1	100	0.1	0	0	986.5	NA	0.0000	UP	9999	1080	0	0	0
2019/06/07 02:01:00	BASE	2.74	88	3.24	88	0.1	100	0.1	0	0	986.5	NA	0.0000	UP	9999	1080	0	0	0
2019/06/07 02:02:00	BASE	2.64	85	3.24	88	0.1	100	0.1	0	0	986.5	NA	0.0000	UP	9999	1080	0	0	0
2019/06/07 02:03:00	BASE	2.51	83	3.24	88	0.1	100	0.1	0	0	986.5	NA	0.0000	UP	9999	1080	0	0	0
2019/06/07 02:04:00	BASE	2.51	81	3.24	88	0.1	100	0.1	0	0	986.5	NA	0.0000	UP	9999	1150	0	0	0
2019/06/07 02:05:00	BASE	2.45	78	3.19	90	0.1	100	0.1	0	0	986.5	NA	0.0000	UP	9999	1280	0	0	0
2019/06/07 02:06:00	BASE	2.33	75	3.19	90	0.2	100	0.2	0	0	986.5	NA	0.0000	UP	9999	1250	0	0	0
2019/06/07 02:07:00	BASE	2.32	72	3.19	90	0.2	100	0.2	0	0	986.5	NA	0.0000	UP	9999	1210	0	0	0
2019/06/07 02:08:00	BASE	2.26	71	3.19	90	0.3	100	0.3	0	0	986.5	NA	0.0000	UP	9999	1210	0	0	0
2019/06/07 02:09:00	BASE	2.23	72	3.19	90	0.3	100	0.3	0	0	986.5	NA	0.0000	UP	9999	1210	0	0	0
2019/06/07 02:10:00	BASE	2.36	73	3.19	90	0.3	100	0.3	0	0	986.4	NA	0.0000	UP	9999	1210	0	0	0
2019/06/07 02:11:00	BASE	2.31	74	2.78	72	0.3	100	0.3	0	0	986.4	NA	0.0000	UP	9999	1210	0	0	0
2019/06/07 02:12:00	BASE	2.32	73	2.78	72	0.3	100	0.3	0	0	986.4	NA	0.0000		9999	1210	0	0	0
2019/06/07 02:13:00	BASE	2.43	72	2.78	72	0.3	100	0.3	0	0	986.4	NA	0.0000		9999	1180	0	0	0
2019/06/07 02:14:00	BASE	2.31	72	2.78	72	0.3	100	0.3	0	0	986.5	NA	0.0000		9999	1180	0	0	0
2019/06/07 02:15:00	BASE	2.08	74	2.78	72	0.4	100	0.4	0	0	986.5	NA	0.0000		9999	1180	0	0	0
2019/06/07 02:16:00	BASE	2.04	75	2.78	72	0.4	100	0.4	0	0	986.5	NA	0.0000		9999	1150	0	0	0
2019/06/07 02:17:00	BASE	1.98	75	2.78	72	0.4	100	0.4	0	0	986.5	NA	0.0000		9999	1120	0	0	0
2019/06/07 02:18:00	BASE	1.89	75	2.78	72	0.4	100	0.4	0	0	986.5	NA	0.0000		9999	1120	0	0	0
2019/06/07 02:19:00	BASE	1.99	78	2.78	72	0.4	100	0.4	0	0	986.5	NA	0.0000		9999	1150	0	0	0
2019/06/07 02:20:00	BASE	1.88	78	2.68	69	0.4	100	0.4	0	0	986.5	NA	0.0000		9999	1120	0	0	0
2019/06/07 02:21:00	BASE	1.84	76	2.68	69	0.5	100	0.5	0	0	986.5	NA	0.0000		9999	1180	0	0	0
2019/06/07 02:22:00	BASE	1.95	78	2.62	73	0.5	100	0.5	0	0	986.5	NA	0.0000		9999	1210	0	0	0
2019/06/07 02:23:00	BASE	1.72	86	2.52	79	0.5	100	0.5	0	0	986.5	NA	0.0000		9999	1250	0	0	0
2019/06/07 02:24:00	BASE	1.57	87	2.52	79	0.5	100	0.5	0	0	986.5	NA	0.0000		9999	1250	0	0	0
2019/06/07 02:25:00	BASE	1.65	87	2.52	79	0.5	100	0.5	0	0	986.5	NA	0.0000		9999	1250	0	0	0
2019/06/07 02:26:00	BASE	1.79	93	2.52	79	0.4	100	0.4	0	0	986.5	NA	0.0000		9999	1250	0	0	0
2019/06/07 02:27:00	BASE	1.92	94	2.52	79	0.4	100	0.4	0	0	986.5	NA	0.0000		9999	1250	0	0	0
2019/06/07 02:28:00	BASE	1.58	97	2.52	79	0.3	100	0.3	0	0	986.5	NA	0.0000		9999	1280	0	0	0
2019/06/07 02:29:00	BASE	0.90	105	2.21	95	0.3	100	0.3	0	0	986.5	NA	0.0000		9999	1310	0	0	0
2019/06/07 02:30:00	BASE	0.75	111	2.21	95	0.3	100	0.3	0	0	986.5	NA	0.0000		9999	1310	0	0	0
2019/06/07 02:31:00	BASE	0.78	112	2.21	95	0.3	100	0.3	0	0	986.5	NA	0.0000		9999	1310	0	0	0
2019/06/07 02:32:00	BASE	0.52	98	2.21	95	0.4	100	0.4	0	0	986.5	NA	0.0000		9999	1310	0	0	0
2019/06/07 02:33:00	BASE	0.28	89	2.21	95	0.5	100	0.4	0	0	986.5	NA	0.0000	UP	9999	1310	0	0	0
2019/06/07 02:34:00	BASE	0.04	99	2.21	95	0.5	100	0.5	0	0	986.5	NA	0.0000	UP	9999	1350	0	0	0
2019/06/07 02:35:00	BASE	0.05	106	2.21	95	0.5	100	0.5	0	0	986.5	NA	0.0000	UP	9999	1310	0	0	0
2019/06/07 02:36:00	BASE	0.34	83	2.01	97	0.6	100	0.6	0	0	986.5	NA	0.0000	UP	9999	1350	0	0	0
2019/06/07 02:37:00	BASE	0.29	87	1.85	96	0.6	100	0.6	0	0	986.5	NA	0.0000	UP	9999	1510	0	0	0
2019/06/07 02:38:00	BASE	0.00	119	1.39	99	0.5	100	0.5	0	0	986.5	NA	0.0000	UP	9999	1540	0	0	0
2019/06/07 02:39:00	BASE	0.00	112	1.39	99	0.5	100	0.5	0	0	986.5	NA	0.0000	UP	9999	1570	0	0	0
2019/06/07 02:40:00	BASE	0.00	101	1.34	42	0.5	100	0.5	0	0	986.5	NA	0.0000	UP	9999	1570	0	0	0
2019/06/07 02:41:00	BASE	0.00	104	1.34	42	0.4	100	0.4	0	0	986.5	NA	0.0000	UP	9999	1570	0	0	0
2019/06/07 02:42:00	BASE	0.00	112	1.34	42	0.4	100	0.4	0	0	986.5	NA	0.0000	UP	9000	1570	0	0	0
2019/06/07 02:43:00	BASE	0.00	117	1.34	42	0.5	100	0.5	0	0	986.4	NA	0.0000	UP	8000	1570	0	0	0
2019/06/07 02:44:00	BASE	0.00	116	1.34	42	0.5	100	0.5	0	0	986.4	NA	0.0000	UP	8000	1570	0	0	0
2019/06/07 02:45:00	BASE	0.00	117	1.34	42	0.5	100	0.5	0	0	986.4	NA	0.0000	UP BR	9000	390	0	0	0
2019/06/07 02:46:00	BASE	0.00	115	M	M	0.5	100	0.5	0	0	986.4	NA	0.0000	UP BR	8000	390	0	0	0
2019/06/07 02:47:00	BASE	0.00	108	M	M	0.5	100	0.5	0	0	986.4	NA	0.0000	UP BR	8000	360	0	0	0
2019/06/07 02:48:00	BASE	0.00	112	M	M	0.5	100	0.5	0	0	986.4	NA	0.0000	UP BR	8000	360	0	0	0
2019/06/07 02:49:00	BASE	0.00	119	M	M	0.5	100	0.5	0	0	986.4	NA	0.0000	UP BR	8000	1570	0	0	0
2019/06/07 02:50:00	BASE	0.00	113	M	M	0.5	100	0.5	0	0	986.4	NA	0.0000	UP BR	7000	1480	0	0	0
2019/06/07 02:51:00	BASE	0.00	107	M	M	0.4	100	0.4	0	0	986.4	NA	0.0000	UP BR	6000	1540	0	0	0
2019/06/07 02:52:00	BASE	0.00	111	M	M	0.4	100	0.4	0	0	986.4	NA	0.0000	UP BR	6000	1440	0	0	0
2019/06/07 02:53:00	BASE	0.00	121	M	M	0.4	100	0.4	0	0	986.4	NA	0.0000	UP BR	6000	1480	0	0	0
2019/06/07 02:54:00	BASE	0.00	129	M	M	0.4	100	0.4	0	0	986.4	NA	0.0000	UP BR	6000	1440	0	0	0
2019/06/07 02:55:00	BASE	0.00	138	M	M	0.4	100	0.4	0	0	986.3	NA	0.2540	UP BR	7000	1440	0	0	0
2019/06/07 02:56:00	BASE	0.00	148	M	M	0.4	100	0.4	0	0	986.4	NA	0.0000	UP BR	7000	1410	0	0	0
2019/06/07 02:57:00	BASE	0.00	148	M	M	0.4	100	0.4	0	0	986.3	NA	0.0000	UP BR	6000	1410	0	0	0
2019/06/07 02:58:00	BASE	0.00	145	M	M	0.3	100	0.3	0	0	986.3	NA	0.0000	UP BR	6000	1440	0	0	0
2019/06/07 02:59:00	BASE	0.00	159	M	M	0.3	100	0.3	0	0	986.3	NA	0.0000	UP BR	6000	1410	0	0	0
2019/06/07 03:00:00	BASE	0.00	169	M	M	0.3	100	0.3	0	0	986.3	NA	0.0000	UP BR	6000	1480	0	0	0
2019/06/07 03:01:00	BASE	0.00	164	M	M	0.2	100	0.2	0	0	986.3	NA	0.0000	UP BR	6000	1510	0	0	0
2019/06/07 03:02:00	BASE	0.00	161	M	M	0.2	100	0.2	0	0	986.3	NA	0.0000	UP BR	6000	1480	0	0	0
2019/06/07 03:03:00	BASE	0.00	163	M	M	0.1	100	0.1	0	0	986.3	NA	0.0000	UP BR	6000	1540	0	0	0
2019/06/07 03:04:00	BASE	0.00	165	M	M	0.1	100	0.1	0	0	986.3	NA	0.0000	UP BR	6000	1510	0	0	0
2019/06/07 03:05:00	BASE	0.00	167	M	M	0.1	100	0.1	0	0	986.3	NA	0.0000	UP BR	6000	1440	0	0	0
2019/06/07 03:06:00	BASE	0.00	162	M	M	0.1	100	0.1	0	0	986.3	NA	0.0000	UP BR	6000	1510	0	0	0
2019/06/07 03:07:00	BASE	0.00	149	M	M	0.1	100	0.1	0	0	986.3	NA	0.0000	UP BR	6000	1540	0	0	0
2019/06/07 03:08:00	BASE	0.00	140	M	M	0.1	100	0.1	0	0	986.3	NA	0.0000	UP BR	6000	1610	0	0	0
2019/06/07 03:09:00	BASE	0.00	139	M	M	0.1	100	0.1	0	0	986.3	NA	0.0000	UP BR	6000	1670	0	0	0
2019/06/07 03:10:00	BASE	0.00	139	M	M	0.1	100	0.1	0	0	986.3	NA	0.0000	UP BR	6000	0	0	0	1970
2019/06/07 03:11:00	BASE	0.00	138	M	M	0.1	100	0.1	0	0	986.3	NA	0.0000	UP BR	6000	0	0	0	2000
2019/06/07 03:12:00	BASE	0.00	141	M	M	0.1	100	0.1	0	0	986.3	NA	0.0000	UP BR	6000	0	0	0	2000
2019/06/07 03:13:00	BASE	0.00	146	M	M	0.1	100	0.1	0	0	986.3	NA	0.0000	UP BR	6000	0	0	0	2000
2019/06/07 03:14:00	BASE	0.00	159	M	M	0.1	100	0.1	0	0	986.3	NA	0.0000	UP BR	6000	0	0	0	2000
2019/06/07 03:15:00	BASE	0.00	159	M	M	0.0	100	0.0	0	0	986.3	NA	0.0000	UP BR	6000	0	0	0	2030
2019/06/07 03:16:00	BASE	0.00	151	M	M	-0.0	100	-0.0	0	0	986.3	NA	0.0000	BR	6000	0	0	0	2030
2019/06/07 03:17:00	BASE	0.00	149	M	M	-0.1	100	-0.1	0	0	986.3	NA	0.0000	BR	6000	0	0	0	2000
2019/06/07 03:18:00	BASE	0.00	150	M	M	-0.1	100	-0.1	0	0	986.4	NA	0.0000	BR	6000	0	0	0	1970
2019/06/07 03:19:00	BASE	0.00	151	M	M	-0.1	100	-0.1	0	0	986.4	NA	0.0000	BR	6000	0	0	0	1900
2019/06/07 03:20:00	BASE	0.00	143	M	M	-0.1	100	-0.1	0	0	986.4	NA	0.0000	BR	6000	0	0	0	1870
2019/06/07 03:21:00	BASE	0.00	138	M	M	-0.1	100	-0.1	0	0	986.4	NA	0.0000	BR	6000	0	0	0	1940
2019/06/07 03:22:00	BASE	0.00	140	M	M	-0.1	100	-0.1	0	0	986.4	NA	0.0000	UP BR	5000	1480	0	0	0
2019/06/07 03:23:00	BASE	0.00	141	M	M	-0.1	100	-0.1	0	0	986.4	NA	0.0000	UP BR	5000	0	0	0	2170
2019/06/07 03:24:00	BASE	0.00	141	M	M	-0.1	100	-0.1	0	0	986.4	NA	0.0000	UP BR	5000	0	0	0	3610
2019/06/07 03:25:00	BASE	0.00	144	M	M	-0.1	100	-0.1	0	0	986.4	NA	0.0000	UP BR	5000	2100	0	0	0
2019/06/07 03:26:00	BASE	0.21	146	1.85	150	-0.1	100	-0.1	0	0	986.4	NA	0.0000	UP BR	5000	0	0	0	3640
2019/06/07 03:27:00	BASE	1.01	145	2.06	137	-0.2	100	-0.2	0	0	986.4	NA	0.0000	UP BR	5000	620	0	0	0
2019/06/07 03:28:00	BASE	1.67	142	2.31	149	-0.2	100	-0.2	0	0	986.4	NA	0.0000	UP BR	5000	660	0	0	0
2019/06/07 03:29:00	BASE	1.93	136	2.57	117	-0.2	100	-0.2	0	0	986.4	NA	0.0000	UP BR	5000	0	0	0	3580
2019/06/07 03:30:00	BASE	2.15	128	2.57	117	-0.2	100	-0.2	0	0	986.4	NA	0.0000	UP BR	5000	0	0	0	3480
2019/06/07 03:31:00	BASE	2.19	124	2.68	129	-0.1	100	-0.1	0	0	986.4	NA	0.0000	UP BR	5000	0	0	0	3410
2019/06/07 03:32:00	BASE	2.26	124	2.73	126	-0.0	100	-0.0	0	0	986.4	NA	0.0000	BR	5000	0	0	0	3410
2019/06/07 03:33:00	BASE	2.31	120	2.98	127	0.1	100	0.1	0	0	986.4	NA	0.0000	BR	5000	660	0	0	0
2019/06/07 03:34:00	BASE	2.28	122	2.98	127	0.2	100	0.2	0	0	986.4	NA	0.0000	BR	5000	660	0	0	0
2019/06/07 03:35:00	BASE	2.37	125	2.98	130	0.3	100	0.3	0	0	986.5	NA	0.0000	UP BR	7000	0	0	0	2950
2019/06/07 03:36:00	BASE	2.42	123	2.98	130	0.4	100	0.4	0	0	986.5	NA	0.0000	UP BR	7000	0	0	0	2920
2019/06/07 03:37:00	BASE	2.49	124	3.19	125	0.4	100	0.4	0	0	986.5	NA	0.0000	UP BR	6000	0	0	0	2950
2019/06/07 03:38:00	BASE	2.68	121	3.19	125	0.4	100	0.4	0	0	986.5	NA	0.0000	UP BR	5000	0	0	0	3020
2019/06/07 03:39:00	BASE	2.74	118	3.19	111	0.4	100	0.4	0	0	986.5	NA	0.0000	UP BR	4000	620	0	0	0
2019/06/07 03:40:00	BASE	2.86	116	3.19	119	0.4	100	0.4	0	0	986.4	NA	0.0000	UP BR	3700	620	0	0	0
2019/06/07 03:41:00	BASE	2.75	115	3.19	119	0.4	100	0.4	0	0	986.4	NA	0.0000	UP BR	3700	620	0	0	0
2019/06/07 03:42:00	BASE	2.23	121	3.19	119	0.4	100	0.4	0	0	986.4	NA	0.0000	UP BR	3700	660	0	0	0
2019/06/07 03:43:00	BASE	2.03	125	3.19	119	0.4	100	0.4	0	0	986.4	NA	0.0000	UP BR	3700	0	0	0	3080
2019/06/07 03:44:00	BASE	1.98	124	3.19	119	0.4	100	0.4	0	0	986.5	NA	0.0000	UP BR	3700	660	0	0	0
2019/06/07 03:45:00	BASE	2.11	125	3.19	119	0.4	100	0.4	0	0	986.5	NA	0.0000	UP BR	3700	660	0	0	0
2019/06/07 03:46:00	BASE	2.60	128	3.29	125	0.4	100	0.4	0	0	986.5	NA	0.0000	UP BR	3800	0	0	0	2890
2019/06/07 03:47:00	BASE	2.83	130	3.29	125	0.4	100	0.4	0	0	986.5	NA	0.0000	UP BR	3800	0	0	0	2790
2019/06/07 03:48:00	BASE	2.91	133	3.29	134	0.4	100	0.4	0	0	986.5	NA	0.0000	UP BR	3500	0	0	0	2690
2019/06/07 03:49:00	BASE	2.86	134	3.29	134	0.4	100	0.4	0	0	986.5	NA	0.0000	UP BR	3100	690	0	0	0
2019/06/07 03:50:00	BASE	2.66	135	3.29	134	0.4	100	0.4	0	0	986.4	NA	0.0000	UP BR	2700	660	0	0	0
2019/06/07 03:51:00	BASE	2.46	134	3.29	134	0.4	100	0.4	0	0	986.4	NA	0.0000	UP BR	2500	660	0	0	0
2019/06/07 03:52:00	BASE	2.39	129	3.29	134	0.4	100	0.4	0	0	986.5	NA	0.0000	UP BR	2500	660	0	0	0
2019/06/07 03:53:00	BASE	2.30	124	3.29	134	0.4	100	0.4	0	0	986.5	NA	0.0000	UP BR	2700	660	0	0	0
2019/06/07 03:54:00	BASE	1.92	120	3.29	134	0.4	100	0.4	0	0	986.5	NA	0.0000	UP BR	2900	0	0	0	2660
2019/06/07 03:55:00	BASE	1.74	124	3.29	134	0.3	100	0.3	0	0	986.5	NA	0.0000	UP BR	3100	0	0	0	2790
2019/06/07 03:56:00	BASE	1.79	127	3.29	134	0.3	100	0.3	0	0	986.5	NA	0.0000	UP BR	3200	590	0	0	0
2019/06/07 03:57:00	BASE	1.54	118	3.29	134	0.4	100	0.4	0	0	986.5	NA	0.0000	UP BR	3400	590	0	0	0
2019/06/07 03:58:00	BASE	1.17	100	3.14	132	0.3	100	0.3	0	0	986.5	NA	0.0000	UP BR	3600	460	0	0	0
2019/06/07 03:59:00	BASE	1.21	84	2.68	136	0.3	100	0.3	0	0	986.5	NA	0.0000	UP BR	3600	460	0	0	0
2019/06/07 04:00:00	BASE	1.27	87	2.68	136	0.3	100	0.3	0	0	986.5	NA	0.0000	UP BR	3600	490	0	0	0
2019/06/07 04:01:00	BASE	2.02	103	3.70	109	0.2	100	0.2	0	0	986.5	NA	0.0000	UP BR	3600	490	0	0	0
2019/06/07 04:02:00	BASE	3.08	111	3.70	109	0.2	100	0.2	0	0	986.5	NA	0.0000	UP BR	3600	520	0	0	0
2019/06/07 04:03:00	BASE	2.87	108	3.70	109	0.3	100	0.3	0	0	986.5	NA	0.0000	UP BR	3600	490	0	0	0
2019/06/07 04:04:00	BASE	2.36	109	3.70	109	0.3	100	0.3	0	0	986.5	NA	0.0000	UP BR	3600	520	0	0	0
2019/06/07 04:05:00	BASE	2.60	113	3.70	117	0.3	100	0.3	0	0	986.5	NA	0.0000	UP BR	3600	520	0	0	0
2019/06/07 04:06:00	BASE	3.25	115	3.96	119	0.3	100	0.3	0	0	986.5	NA	0.0000	UP BR	3600	490	0	0	0
2019/06/07 04:07:00	BASE	3.23	117	3.96	119	0.3	100	0.3	0	0	986.5	NA	0.0000	BR	3600	620	0	0	0
2019/06/07 04:08:00	BASE	3.04	117	3.96	119	0.3	100	0.3	0	0	986.5	NA	0.0000	BR	3600	660	0	0	0
2019/06/07 04:09:00	BASE	3.31	116	3.96	119	0.3	100	0.3	0	0	986.5	NA	0.0000	BR	3600	690	0	0	0
2019/06/07 04:10:00	BASE	3.79	113	4.73	113	0.4	100	0.4	0	0	986.5	NA	0.0000	BR	3600	720	0	0	0
2019/06/07 04:11:00	BASE	4.38	112	4.99	113	0.4	100	0.4	0	0	986.5	NA	0.0000	BR	3600	720	0	0	0
2019/06/07 04:12:00	BASE	4.48	114	4.99	113	0.4	100	0.4	0	0	986.5	NA	0.0000	BR	3600	750	0	0	0
2019/06/07 04:13:00	BASE	4.42	116	4.99	113	0.4	100	0.4	0	0	986.5	NA	0.0000	BR	3600	0	0	0	2360
2019/06/07 04:14:00	BASE	4.72	116	5.25	119	0.4	100	0.4	0	0	986.5	NA	0.0000	BR	3600	0	0	0	2230
2019/06/07 04:15:00	BASE	4.71	119	5.25	119	0.4	100	0.4	0	0	986.5	NA	0.0000	BR	3600	0	0	0	2100
2019/06/07 04:16:00	BASE	4.44	119	5.25	119	0.4	100	0.4	0	0	986.5	NA	0.0000	BR	3600	0	0	0	2030
2019/06/07 04:17:00	BASE	4.65	116	5.25	119	0.4	100	0.4	0	0	986.5	NA	0.0000	BR	3600	0	0	0	1900
2019/06/07 04:18:00	BASE	5.06	116	5.56	119	0.4	100	0.4	0	0	986.5	NA	0.0000	BR	3600	0	0	0	1710
2019/06/07 04:19:00	BASE	5.07	116	5.56	119	0.4	100	0.4	0	0	986.5	NA	0.0000	BR	3600	0	0	0	1570
2019/06/07 04:20:00	BASE	4.96	115	5.56	116	0.4	100	0.4	0	0	986.5	NA	0.0000	BR	3600	0	0	0	1510
2019/06/07 04:21:00	BASE	5.12	116	5.61	115	0.4	100	0.4	0	0	986.5	NA	0.0000	BR	3600	0	0	0	1410
2019/06/07 04:22:00	BASE	5.18	116	5.61	115	0.4	100	0.4	0	0	986.5	NA	0.0000	BR	3600	750	0	0	0
2019/06/07 04:23:00	BASE	5.19	115	5.66	117	0.4	100	0.4	0	0	986.5	NA	0.0000	BR	3600	750	0	0	0
2019/06/07 04:24:00	BASE	5.51	114	5.97	116	0.4	100	0.4	0	0	986.5	NA	0.0000	BR	3600	750	3810	0	0
2019/06/07 04:25:00	BASE	5.61	114	5.97	116	0.4	100	0.4	0	0	986.5	NA	0.0000	BR	3600	790	0	0	0
2019/06/07 04:26:00	BASE	5.53	116	6.12	120	0.4	100	0.4	0	0	986.4	NA	0.0000	BR	3600	850	3810	0	0
2019/06/07 04:27:00	BASE	5.66	113	6.33	111	0.4	100	0.4	0	0	986.4	NA	0.0000	BR	3600	2790	0	0	0
2019/06/07 04:28:00	BASE	5.95	111	6.64	109	0.4	100	0.4	0	0	986.4	NA	0.0000	BR	3600	3670	0	0	0
2019/06/07 04:29:00	BASE	6.28	115	6.84	117	0.4	100	0.4	0	0	986.3	NA	0.0000	BR	3600	2720	3740	0	0
2019/06/07 04:30:00	BASE	6.33	120	6.84	117	0.4	100	0.4	0	0	986.3	NA	0.0000	BR	3600	3640	0	0	0
2019/06/07 04:31:01	BASE	6.01	121	6.84	117	0.4	100	0.4	0	0	986.3	NA	0.0000	BR	3600	8500	0	0	0
2019/06/07 04:32:00	BASE	5.73	119	6.84	117	0.4	100	0.4	0	0	986.3	NA	0.0000	BR	3600	2790	3740	0	0
2019/06/07 04:33:00	BASE	5.79	115	6.84	117	0.4	100	0.4	0	0	986.3	NA	0.0000	BR	3600	2760	0	0	0
2019/06/07 04:34:01	BASE	5.95	112	6.84	117	0.4	100	0.4	0	0	986.3	NA	0.0000	BR	3600	2690	0	0	0
2019/06/07 04:35:00	BASE	5.98	110	6.84	117	0.4	100	0.4	0	0	986.3	NA	0.0000	BR	4400	2660	0	0	0
2019/06/07 04:36:00	BASE	5.75	109	6.84	117	0.4	100	0.4	0	0	986.4	NA	0.0000	BR	6000	2690	0	0	0
2019/06/07 04:37:00	BASE	5.58	109	6.84	117	0.4	100	0.4	0	0	986.4	NA	0.0000	BR	6000	2690	3810	0	0
2019/06/07 04:38:01	BASE	5.68	110	6.84	117	0.4	100	0.4	0	0	986.4	NA	0.0000	BR	7000	2720	0	0	0
2019/06/07 04:39:00	BASE	5.61	109	6.74	125	0.4	100	0.4	0	0	986.4	NA	0.0000	BR	8000	2720	3740	0	0
2019/06/07 04:40:00	BASE	5.68	108	6.38	110	0.3	100	0.3	0	0	986.4	NA	0.0000	BR	8000	2720	3770	0	0
2019/06/07 04:41:00	BASE	5.79	106	6.38	110	0.3	100	0.3	0	0	986.4	NA	0.0000	BR	8000	2690	3810	0	0
2019/06/07 04:42:00	BASE	5.75	105	6.38	110	0.3	100	0.3	0	0	986.4	NA	0.0000	BR	9999	2660	3770	0	0
2019/06/07 04:43:00	BASE	5.62	105	6.38	110	0.3	100	0.3	0	0	986.4	NA	0.0000	BR	9999	950	2720	0	0
2019/06/07 04:44:00	BASE	5.76	108	6.48	110	0.3	100	0.3	0	0	986.4	NA	0.0000	BR	9999	950	2690	0	0
2019/06/07 04:45:00	BASE	6.16	111	6.58	113	0.3	100	0.3	0	0	986.4	NA	0.0000	BR	9999	950	2720	0	0
2019/06/07 04:46:00	BASE	6.01	114	6.58	113	0.3	100	0.3	0	0	986.3	NA	0.0000	BR	9999	950	2720	0	0
2019/06/07 04:47:00	BASE	5.88	114	6.58	110	0.3	100	0.3	0	0	986.3	NA	0.0000	BR	9999	920	2720	0	0
2019/06/07 04:48:00	BASE	6.24	115	6.69	116	0.3	100	0.3	0	0	986.3	NA	0.0000		9999	2720	0	0	0
2019/06/07 04:49:00	BASE	6.63	118	7.05	122	0.4	100	0.4	0	0	986.3	NA	0.0000		9999	2720	0	0	0
2019/06/07 04:50:00	BASE	6.56	118	7.05	122	0.4	100	0.4	0	0	986.3	NA	0.0000		9999	2690	0	0	0
2019/06/07 04:51:01	BASE	6.36	116	7.05	122	0.4	100	0.4	0	0	986.3	NA	0.0000		9999	2690	0	0	0
2019/06/07 04:52:01	BASE	6.27	117	7.05	122	0.4	100	0.4	0	0	986.3	NA	0.0000		9999	520	2720	0	0
2019/06/07 04:53:01	BASE	6.16	119	7.05	122	0.4	100	0.4	0	0	986.3	NA	0.0000		9999	490	2720	0	0
2019/06/07 04:54:01	BASE	6.22	118	7.05	122	0.4	100	0.4	0	0	986.3	NA	0.0000		9999	560	0	0	0
2019/06/07 04:55:01	BASE	6.50	117	7.05	122	0.4	100	0.4	0	0	986.3	NA	0.0000	UP	9999	0	0	0	720
2019/06/07 04:56:01	BASE	6.75	119	7.10	120	0.4	100	0.4	0	0	986.3	NA	0.0000	UP	9999	590	0	0	0
2019/06/07 04:57:01	BASE	6.75	121	7.10	120	0.4	100	0.4	0	0	986.3	NA	0.0000	UP	9999	590	0	0	0
2019/06/07 04:58:01	BASE	6.61	120	7.10	120	0.4	100	0.4	0	0	986.3	NA	0.0000	UP	9999	520	0	0	0
2019/06/07 04:59:01	BASE	6.44	120	7.10	120	0.4	100	0.4	0	0	986.3	NA	0.0000	UP	9999	0	0	0	690
2019/06/07 05:00:01	BASE	6.34	120	7.10	120	0.4	100	0.4	0	0	986.3	NA	0.0000	UP	9999	0	0	0	590
2019/06/07 05:01:01	BASE	6.19	119	7.10	120	0.3	100	0.3	0	0	986.3	NA	0.0000	UP	9999	0	0	0	4040
2019/06/07 05:02:01	BASE	6.10	118	7.10	120	0.3	100	0.3	0	0	986.3	NA	0.0000	UP	9999	8010	0	0	0
2019/06/07 05:03:01	BASE	6.25	120	7.10	120	0.3	100	0.3	0	0	986.4	NA	0.0000	UP	9999	8010	0	0	0
2019/06/07 05:04:01	BASE	6.07	121	7.10	120	0.3	100	0.3	0	0	986.4	NA	0.0000	UP BR	9999	0	0	0	3050
2019/06/07 05:05:01	BASE	5.64	119	7.10	120	0.3	100	0.3	0	0	986.4	NA	0.0000	UP BR	9999	0	0	0	2890
2019/06/07 05:06:01	BASE	5.55	117	6.94	122	0.3	100	0.3	0	0	986.4	NA	0.0000	UP BR	9999	560	0	0	0
2019/06/07 05:07:01	BASE	5.58	114	6.79	122	0.3	100	0.3	0	0	986.4	NA	0.0000	UP	9999	0	0	0	2920
2019/06/07 05:08:01	BASE	5.49	113	6.74	121	0.3	100	0.3	0	0	986.4	NA	0.0000	UP	9999	890	2820	0	0
2019/06/07 05:09:01	BASE	5.27	115	6.74	121	0.3	100	0.3	0	0	986.4	NA	0.0000	UP	9999	590	2760	0	0
2019/06/07 05:10:01	BASE	5.15	119	6.74	121	0.3	100	0.3	0	0	986.4	NA	0.0000	UP	9000	520	0	0	0
2019/06/07 05:11:01	BASE	5.08	118	6.74	121	0.3	100	0.3	0	0	986.4	NA	0.0000	UP	9000	520	2720	0	0
2019/06/07 05:12:01	BASE	5.00	117	6.74	121	0.3	100	0.3	0	0	986.4	NA	0.0000	UP	9999	590	0	0	0
2019/06/07 05:13:01	BASE	4.98	118	6.17	127	0.3	100	0.3	0	0	986.4	NA	0.0000	UP	9999	560	2690	0	0
2019/06/07 05:14:01	BASE	5.00	119	6.07	122	0.3	100	0.3	0	0	986.4	NA	0.0000	UP	9999	750	2690	0	0
2019/06/07 05:15:00	BASE	5.03	121	5.92	115	0.3	100	0.3	0	0	986.4	NA	0.0000	UP	9999	750	2660	0	0
2019/06/07 05:16:00	BASE	4.98	121	5.92	115	0.3	100	0.3	0	0	986.4	NA	0.0000	UP	9999	560	2690	0	0
2019/06/07 05:17:00	BASE	5.02	122	5.71	112	0.3	100	0.3	0	0	986.4	NA	0.0000	UP	9999	560	2690	0	0
2019/06/07 05:18:00	BASE	5.11	124	5.56	116	0.3	100	0.3	0	0	986.4	NA	0.0000	UP	9999	590	2690	0	0
2019/06/07 05:19:00	BASE	5.01	124	5.45	126	0.3	100	0.3	0	0	986.4	NA	0.0000	UP	9999	2660	0	0	0
2019/06/07 05:20:00	BASE	4.91	125	5.50	121	0.3	100	0.3	0	0	986.4	NA	0.0000	UP	9999	2660	0	0	0
2019/06/07 05:21:00	BASE	4.91	126	5.76	121	0.3	100	0.3	0	0	986.4	NA	0.0000	UP	9999	2660	6920	0	0
2019/06/07 05:22:01	BASE	4.93	125	5.76	121	0.2	100	0.2	0	0	986.4	NA	0.0000	UP	9999	2620	0	0	0
2019/06/07 05:23:00	BASE	5.03	126	5.76	128	0.2	100	0.2	0	0	986.3	NA	0.0000	UP	9999	2660	0	0	0
2019/06/07 05:24:00	BASE	5.07	127	5.76	128	0.2	100	0.2	0	0	986.3	NA	0.0000	UP	9999	3670	0	0	0
2019/06/07 05:25:00	BASE	4.94	126	5.76	128	0.2	100	0.2	0	0	986.3	NA	0.0000	UP	9999	3840	0	0	0
2019/06/07 05:26:00	BASE	4.68	127	5.76	128	0.2	100	0.2	0	0	986.3	NA	0.0000	UP	9999	3740	0	0	0
2019/06/07 05:27:00	BASE	4.79	126	5.76	128	0.2	100	0.2	0	0	986.3	NA	0.0000	UP	9999	3740	0	0	0
2019/06/07 05:28:01	BASE	4.95	124	5.76	128	0.2	100	0.2	0	0	986.3	NA	0.0000		9999	2660	3710	0	0
2019/06/07 05:29:01	BASE	5.10	125	5.92	125	0.2	100	0.2	0	0	986.3	NA	0.0000		9999	2620	3740	0	0
2019/06/07 05:30:01	BASE	5.28	126	5.92	125	0.2	100	0.2	0	0	986.3	NA	0.0000		9999	2690	3670	0	0
2019/06/07 05:31:00	BASE	5.01	126	5.92	125	0.2	100	0.2	0	0	986.3	NA	0.0000		9999	2690	3670	0	0
2019/06/07 05:32:00	BASE	4.76	127	5.92	125	0.2	100	0.2	0	0	986.4	NA	0.0000		9999	2660	3710	0	0
2019/06/07 05:33:00	BASE	4.39	127	5.92	125	0.2	100	0.2	0	0	986.4	NA	0.0000		9999	2660	3740	0	0
2019/06/07 05:34:00	BASE	4.07	127	5.92	125	0.2	100	0.2	0	0	986.4	NA	0.0000		9999	2690	3740	0	0
2019/06/07 05:35:01	BASE	3.95	127	5.92	125	0.2	100	0.2	0	0	986.4	NA	0.0000		9999	2660	3670	0	0
2019/06/07 05:36:00	BASE	3.72	126	5.92	125	0.2	100	0.2	0	0	986.4	NA	0.0000		9999	2690	3670	0	0
2019/06/07 05:37:00	BASE	3.72	125	5.92	125	0.2	100	0.2	0	0	986.4	NA	0.0000		9999	2620	3710	0	0
2019/06/07 05:38:00	BASE	3.55	126	5.92	125	0.2	100	0.2	0	0	986.4	NA	0.0000		9999	2620	3740	0	0
2019/06/07 05:39:01	BASE	3.14	124	5.35	125	0.2	100	0.2	0	0	986.4	NA	0.0000		9999	2620	3740	0	0
2019/06/07 05:40:00	BASE	3.14	123	5.35	125	0.2	100	0.2	0	0	986.4	NA	0.0000		9999	2620	3740	0	0
2019/06/07 05:41:00	BASE	3.05	125	5.14	128	0.2	100	0.2	0	0	986.4	NA	0.0000		9999	2690	3740	0	0
2019/06/07 05:42:00	BASE	2.96	124	4.63	126	0.2	100	0.2	0	0	986.4	NA	0.0000		9999	2660	0	0	0
2019/06/07 05:43:01	BASE	3.06	127	4.63	126	0.2	100	0.2	0	0	986.4	NA	0.0000		9999	2660	3740	0	0
2019/06/07 05:44:01	BASE	3.32	129	4.58	122	0.2	100	0.2	0	0	986.5	NA	0.0000		9999	2620	3740	0	0
2019/06/07 05:45:00	BASE	3.29	131	4.58	122	0.2	100	0.2	0	0	986.5	NA	0.0000		9999	2620	0	0	0
2019/06/07 05:46:00	BASE	2.60	134	4.58	122	0.2	100	0.2	0	0	986.5	NA	0.0000		9999	2560	0	0	0
2019/06/07 05:47:00	BASE	2.06	129	3.96	120	0.2	100	0.2	0	0	986.5	NA	0.0000		9999	2530	0	0	0
2019/06/07 05:48:01	BASE	2.06	129	3.96	120	0.1	100	0.1	0	0	986.5	NA	0.0000		9999	2560	0	0	0
2019/06/07 05:49:01	BASE	2.34	127	3.91	124	0.1	100	0.1	0	0	986.5	NA	0.0000		9999	2560	0	0	0
2019/06/07 05:50:01	BASE	2.78	121	3.91	124	0.1	100	0.1	0	0	986.5	NA	0.0000		9999	2590	0	0	0
2019/06/07 05:51:00	BASE	3.15	120	3.91	106	0.1	100	0.1	0	0	986.5	NA	0.0000		9999	2590	0	0	0
2019/06/07 05:52:01	BASE	2.99	122	3.91	106	0.1	100	0.1	0	0	986.5	NA	0.0000		9999	2620	0	0	0
2019/06/07 05:53:01	BASE	3.01	120	3.91	106	0.1	100	0.1	0	0	986.5	NA	0.0000		9999	2660	0	0	0
2019/06/07 05:54:01	BASE	3.17	120	3.91	106	0.1	100	0.1	0	0	986.5	NA	0.0000		9999	2820	0	0	0
2019/06/07 05:55:01	BASE	3.35	120	4.27	122	0.1	100	0.1	0	0	986.5	NA	0.0000		9999	2620	0	0	0
2019/06/07 05:56:01	BASE	3.60	117	4.27	122	0.2	100	0.2	0	0	986.5	NA	0.0000		9999	2530	0	0	0
2019/06/07 05:57:01	BASE	3.55	117	4.27	122	0.2	100	0.2	0	0	986.5	NA	0.0000		9999	2260	0	0	0
2019/06/07 05:58:00	BASE	3.33	118	4.27	122	0.2	100	0.2	0	0	986.5	NA	0.0000		9999	2660	0	0	0
2019/06/07 05:59:01	BASE	2.85	119	4.27	122	0.2	100	0.2	0	0	986.5	NA	0.0000		9999	2590	0	0	0
2019/06/07 06:00:00	BASE	1.56	115	4.27	122	0.2	100	0.2	0	0	986.5	NA	0.0000		9999	0	0	0	3280
2019/06/07 06:01:00	BASE	0.42	110	4.27	122	0.2	100	0.2	0	0	986.5	NA	0.0000		9999	2660	0	0	0
2019/06/07 06:02:00	BASE	0.13	122	4.27	122	0.1	100	0.1	0	0	986.5	NA	0.0000		9999	2620	0	0	0
2019/06/07 06:03:00	BASE	0.00	138	4.27	122	0.1	100	0.1	0	0	986.5	NA	0.0000	UP	9999	2690	0	0	0
2019/06/07 06:04:01	BASE	0.00	210	4.27	122	0.0	100	0.0	0	0	986.5	NA	0.0000	UP	9999	2620	0	0	0
2019/06/07 06:05:01	BASE	0.00	242	4.01	117	-0.0	100	-0.0	0	0	986.5	NA	0.0000	UP	9999	0	0	0	3280
2019/06/07 06:06:00	BASE	0.00	254	4.01	117	-0.1	100	-0.1	0	0	986.5	NA	0.0000	UP	9999	0	0	0	3280
2019/06/07 06:07:00	BASE	0.00	273	3.81	112	-0.1	100	-0.1	0	0	986.5	NA	0.0000	UP	9999	0	0	0	3150
2019/06/07 06:08:00	BASE	0.00	295	3.04	118	-0.1	100	-0.1	0	0	986.5	NA	0.0000	UP	9999	2660	0	0	0
2019/06/07 06:09:00	BASE	0.00	319	1.75	124	-0.1	100	-0.1	0	0	986.5	NA	0.0000	UP	9999	0	0	0	4890
2019/06/07 06:10:00	BASE	0.00	325	1.08	100	-0.1	100	-0.1	0	0	986.5	NA	0.0000	UP	9999	0	0	0	4760
2019/06/07 06:11:00	BASE	0.00	316	M	M	-0.1	100	-0.1	0	0	986.5	NA	0.0000	UP	9999	0	0	0	4690
2019/06/07 06:12:01	BASE	0.00	315	M	M	-0.1	100	-0.1	0	0	986.5	NA	0.0000	UP	9999	0	0	0	4720
2019/06/07 06:13:00	BASE	0.00	322	M	M	-0.0	100	-0.0	0	0	986.5	NA	0.0000	UP	9999	1510	0	0	0
2019/06/07 06:14:00	BASE	0.00	332	M	M	-0.0	100	-0.0	0	0	986.5	NA	0.0000	UP	9999	1510	0	0	0
2019/06/07 06:15:00	BASE	0.00	345	M	M	-0.0	100	-0.0	0	0	986.5	NA	0.0000	UP	9999	1610	0	0	0
2019/06/07 06:16:00	BASE	0.00	1	M	M	-0.0	100	-0.0	0	0	986.5	NA	0.0000	UP	9999	1610	0	0	0
2019/06/07 06:17:00	BASE	0.00	17	M	M	-0.0	100	-0.0	0	0	986.5	NA	0.0000	UP	9999	0	0	0	5410
2019/06/07 06:18:00	BASE	0.00	27	M	M	-0.0	100	-0.0	0	0	986.5	NA	0.0000	UP	9999	1710	0	0	0
2019/06/07 06:19:01	BASE	0.00	56	M	M	0.0	100	0.0	0	0	986.5	NA	0.0000	UP	9999	1670	0	0	0
2019/06/07 06:20:01	BASE	0.00	84	M	M	0.1	100	0.1	0	0	986.5	NA	0.0000	UP	9999	1710	0	0	0
2019/06/07 06:21:00	BASE	0.00	59	M	M	0.1	100	0.1	0	0	986.5	NA	0.0000	UP	9999	1670	0	0	0
2019/06/07 06:22:00	BASE	0.00	30	M	M	0.2	100	0.2	0	0	986.5	NA	0.0000	UP	9999	1670	0	0	0
2019/06/07 06:23:00	BASE	0.00	20	M	M	0.2	100	0.2	0	0	986.5	NA	0.0000	UP	9999	1570	0	0	0
2019/06/07 06:24:01	BASE	0.00	355	M	M	0.3	100	0.3	0	0	986.5	NA	0.0000	UP	9999	1610	0	0	0
2019/06/07 06:25:00	BASE	0.00	348	M	M	0.3	100	0.3	0	0	986.5	NA	0.0000	UP	9999	1670	0	0	0
2019/06/07 06:26:00	BASE	0.00	350	M	M	0.3	100	0.3	0	0	986.5	NA	0.0000	UP	9999	1670	0	0	0
2019/06/07 06:27:00	BASE	0.00	357	M	M	0.4	100	0.4	0	0	986.5	NA	0.0000	UP	9999	1770	0	0	0
2019/06/07 06:28:00	BASE	0.00	27	M	M	0.4	100	0.4	0	0	986.6	NA	0.0000	UP	9999	1770	0	0	0
2019/06/07 06:29:00	BASE	0.00	70	M	M	0.4	100	0.4	0	0	986.6	NA	0.0000	UP	9999	0	0	0	4430
2019/06/07 06:30:00	BASE	0.00	81	M	M	0.3	100	0.3	0	0	986.6	NA	0.0000	UP	9999	0	0	0	4430
2019/06/07 06:31:00	BASE	0.00	71	M	M	0.3	100	0.3	0	0	986.6	NA	0.0000	UP	9999	0	0	0	4400
2019/06/07 06:32:01	BASE	0.00	67	M	M	0.2	100	0.2	0	0	986.6	NA	0.0000	UP	9999	0	0	0	4360
2019/06/07 06:33:00	BASE	0.00	88	M	M	0.2	100	0.2	0	0	986.6	NA	0.0000	UP	9999	720	2590	0	0
2019/06/07 06:34:00	BASE	0.00	122	M	M	0.2	100	0.2	0	0	986.6	NA	0.0000	UP	9999	620	2530	0	0
2019/06/07 06:35:01	BASE	0.00	148	M	M	0.2	100	0.2	0	0	986.6	NA	0.0000	UP	9999	0	0	0	3540
2019/06/07 06:36:01	BASE	0.00	167	M	M	0.1	100	0.1	0	0	986.6	NA	0.0000	UP	9999	0	0	0	3310
2019/06/07 06:37:00	BASE	0.00	167	M	M	0.0	100	0.0	0	0	986.6	NA	0.0000	UP	9999	0	0	0	3250
2019/06/07 06:38:00	BASE	0.00	157	M	M	-0.1	100	-0.1	0	0	986.6	NA	0.0000	UP	9999	0	0	0	2720
2019/06/07 06:39:00	BASE	0.00	156	M	M	-0.3	100	-0.3	0	0	986.6	NA	0.0000	UP	9999	0	0	0	2690
2019/06/07 06:40:00	BASE	0.00	159	M	M	-0.4	100	-0.4	0	0	986.6	NA	0.0000	UP	9999	0	0	0	2660
2019/06/07 06:41:00	BASE	0.00	157	M	M	-0.4	100	-0.4	0	0	986.6	NA	0.0000	UP	9999	0	0	0	2690
2019/06/07 06:42:01	BASE	0.00	156	M	M	-0.5	100	-0.5	0	0	986.6	NA	0.0000	UP	9000	0	0	0	2690
2019/06/07 06:43:00	BASE	0.00	156	M	M	-0.5	100	-0.5	0	0	986.6	NA	0.0000	UP	9999	0	0	0	2660
2019/06/07 06:44:00	BASE	0.00	150	M	M	-0.6	100	-0.6	0	0	986.6	NA	0.0000	UP	9000	0	0	0	2590
2019/06/07 06:45:00	BASE	0.00	147	M	M	-0.6	100	-0.6	0	0	986.6	NA	0.0000	UP	9999	0	0	0	2030
2019/06/07 06:46:01	BASE	0.00	146	M	M	-0.5	100	-0.5	0	0	986.6	NA	0.0000	UP	9999	0	0	0	2590
2019/06/07 06:47:00	BASE	0.00	145	M	M	-0.5	100	-0.5	0	0	986.6	NA	0.0000	UP	9999	0	0	0	2620
2019/06/07 06:48:00	BASE	0.00	145	M	M	-0.4	100	-0.4	0	0	986.6	NA	0.0000	UP	9999	1380	0	0	0
2019/06/07 06:49:01	BASE	0.00	143	M	M	-0.4	100	-0.4	0	0	986.6	NA	0.0000	UP	9999	1380	0	0	0
2019/06/07 06:50:01	BASE	0.00	147	M	M	-0.3	100	-0.3	0	0	986.6	NA	0.0000	UP	9999	1380	0	0	0
2019/06/07 06:51:00	BASE	0.00	148	M	M	-0.3	100	-0.3	0	0	986.6	NA	0.0000	UP	9999	1410	2490	0	0
2019/06/07 06:52:00	BASE	0.00	145	M	M	-0.3	100	-0.3	0	0	986.7	NA	0.0000	UP	9999	1410	2490	0	0
2019/06/07 06:53:00	BASE	0.00	144	M	M	-0.3	100	-0.3	0	0	986.6	NA	0.0000	UP	9999	1380	0	0	0
2019/06/07 06:54:00	BASE	0.00	141	M	M	-0.3	100	-0.3	0	0	986.7	NA	0.0000	UP	9999	1350	0	0	0
2019/06/07 06:55:00	BASE	0.00	136	M	M	-0.3	100	-0.3	0	0	986.7	NA	0.0000	UP	9999	1310	0	0	0
2019/06/07 06:56:00	BASE	0.00	134	M	M	-0.3	100	-0.3	0	0	986.7	NA	0.0000	UP	9999	1250	0	0	0
2019/06/07 06:57:00	BASE	0.00	124	M	M	-0.3	100	-0.3	0	0	986.7	NA	0.0000	UP	9999	1250	0	0	0
2019/06/07 06:58:00	BASE	0.00	114	M	M	-0.3	100	-0.3	0	0	986.7	NA	0.0000	UP	9999	1280	2560	0	0
2019/06/07 06:59:01	BASE	0.00	111	M	M	-0.3	100	-0.3	0	0	986.7	NA	0.0000	UP	9999	1210	2530	0	0
2019/06/07 07:00:01	BASE	0.00	105	M	M	-0.3	100	-0.3	0	0	986.7	NA	0.0000	UP	9999	1180	2530	0	0
2019/06/07 07:01:00	BASE	0.00	96	M	M	-0.3	100	-0.3	0	0	986.7	NA	0.0000	UP	9999	1150	1710	0	0
2019/06/07 07:02:01	BASE	0.00	93	M	M	-0.4	100	-0.4	0	0	986.7	NA	0.0000	UP	9999	300	1180	0	0
2019/06/07 07:03:00	BASE	0.00	91	M	M	-0.4	100	-0.4	0	0	986.7	NA	0.0000	UP	9999	1150	2490	0	0
2019/06/07 07:04:00	BASE	0.00	88	M	M	-0.5	100	-0.5	0	0	986.7	NA	0.0000	UP	9999	330	1150	0	0
2019/06/07 07:05:00	BASE	0.00	92	M	M	-0.6	100	-0.6	0	0	986.7	NA	0.0000	UP	9999	1150	0	0	0
2019/06/07 07:06:00	BASE	0.00	91	M	M	-0.6	100	-0.6	0	0	986.7	NA	0.0000		9999	1080	0	0	0
2019/06/07 07:07:00	BASE	0.00	82	M	M	-0.6	100	-0.6	0	0	986.7	NA	0.0000		9999	1050	0	0	0
2019/06/07 07:08:01	BASE	0.00	74	M	M	-0.6	100	-0.6	0	0	986.7	NA	0.0000		9999	1050	0	0	0
2019/06/07 07:09:00	BASE	0.00	72	M	M	-0.6	100	-0.6	0	0	986.7	NA	0.0000		9999	1020	0	0	0
2019/06/07 07:10:00	BASE	0.00	70	M	M	-0.6	100	-0.6	0	0	986.7	NA	0.0000		9999	360	1050	0	0
2019/06/07 07:11:00	BASE	0.00	62	M	M	-0.6	100	-0.6	0	0	986.7	NA	0.0000		9999	1020	0	0	0
2019/06/07 07:12:00	BASE	0.00	54	M	M	-0.6	100	-0.6	0	0	986.7	NA	0.0000		9999	0	0	0	1570
2019/06/07 07:13:00	BASE	0.00	47	M	M	-0.6	100	-0.6	0	0	986.7	NA	0.0000		9999	360	1120	0	0
2019/06/07 07:14:00	BASE	0.00	48	M	M	-0.5	100	-0.5	0	0	986.7	NA	0.0000		9999	330	1050	0	0
2019/06/07 07:15:00	BASE	0.00	49	M	M	-0.5	100	-0.5	0	0	986.7	NA	0.0000		9999	0	0	0	1770
2019/06/07 07:16:00	BASE	0.00	44	M	M	-0.5	100	-0.5	0	0	986.7	NA	0.0000		9999	460	1020	0	0
2019/06/07 07:17:01	BASE	0.00	38	M	M	-0.5	100	-0.5	0	0	986.7	NA	0.0000		9999	1080	0	0	0
2019/06/07 07:18:00	BASE	0.00	36	M	M	-0.5	100	-0.5	0	0	986.7	NA	0.0000		9999	1050	1640	0	0
2019/06/07 07:19:00	BASE	0.00	34	M	M	-0.5	100	-0.5	0	0	986.7	NA	0.0000	UP	9999	1050	1640	0	0
2019/06/07 07:20:00	BASE	0.00	30	M	M	-0.5	100	-0.5	0	0	986.7	NA	0.0000	UP	8000	1020	1610	0	0
2019/06/07 07:21:00	BASE	0.00	33	M	M	-0.5	100	-0.5	0	0	986.7	NA	0.0000	UP	9999	1050	0	0	0
2019/06/07 07:22:00	BASE	0.00	42	M	M	-0.5	100	-0.5	0	0	986.7	NA	0.0000	UP	9999	1120	0	0	0
2019/06/07 07:23:00	BASE	0.00	40	M	M	-0.5	100	-0.5	0	0	986.7	NA	0.0000	UP	9999	560	1050	0	0
2019/06/07 07:24:00	BASE	0.00	34	M	M	-0.4	100	-0.4	0	0	986.7	NA	0.0000	UP	9999	560	1570	0	0
2019/06/07 07:25:00	BASE	0.00	39	M	M	-0.4	100	-0.4	0	0	986.7	NA	0.0000	UP	9999	560	1610	0	0
2019/06/07 07:26:00	BASE	0.00	42	M	M	-0.4	100	-0.4	0	0	986.7	NA	0.0000	UP	9999	590	1610	0	0
2019/06/07 07:27:00	BASE	0.00	46	M	M	-0.5	100	-0.5	0	0	986.7	NA	0.0000	UP	9999	1510	0	0	0
2019/06/07 07:28:00	BASE	0.00	53	M	M	-0.5	100	-0.5	0	0	986.7	NA	0.0000	UP	8000	620	1480	0	0
2019/06/07 07:29:00	BASE	0.00	60	M	M	-0.5	100	-0.5	0	0	986.7	NA	0.0000	UP	7000	0	0	0	2530
2019/06/07 07:30:00	BASE	0.00	62	M	M	-0.5	100	-0.5	0	0	986.7	NA	0.0000	UP	8000	620	1510	0	0
2019/06/07 07:31:00	BASE	0.00	54	M	M	-0.4	100	-0.4	0	0	986.7	NA	0.0000	UP BR	7000	590	1540	0	0
2019/06/07 07:32:00	BASE	0.00	53	M	M	-0.4	100	-0.4	0	0	986.7	NA	0.0000	UP BR	7000	430	0	0	0
2019/06/07 07:33:00	BASE	0.00	57	M	M	-0.4	100	-0.4	0	0	986.7	NA	0.0000	UP BR	8000	590	0	0	0
2019/06/07 07:34:00	BASE	0.00	58	M	M	-0.4	100	-0.4	0	0	986.7	NA	0.0000	UP BR	6000	390	0	0	0
2019/06/07 07:35:00	BASE	0.00	59	M	M	-0.4	100	-0.4	0	0	986.7	NA	0.0000	-SN BR	5000	0	0	0	2170
2019/06/07 07:36:00	BASE	0.00	62	M	M	-0.4	100	-0.4	0	0	986.6	NA	0.0000	-SN BR	5000	0	0	0	2430
2019/06/07 07:37:00	BASE	0.00	63	M	M	-0.4	100	-0.4	0	0	986.6	NA	0.0000	-SN BR	4800	0	0	0	1970
2019/06/07 07:38:00	BASE	0.00	67	M	M	-0.4	100	-0.4	0	0	986.6	NA	0.0000	-SN BR	4600	0	0	0	1670
2019/06/07 07:39:00	BASE	0.00	76	M	M	-0.3	100	-0.3	0	0	986.6	NA	0.0000	-SN BR	5000	0	0	0	1610
2019/06/07 07:40:00	BASE	0.00	78	M	M	-0.3	100	-0.3	0	0	986.6	NA	0.0000	-SN BR	5000	720	0	0	0
2019/06/07 07:41:00	BASE	0.00	73	M	M	-0.3	100	-0.3	0	0	986.6	NA	0.0000	-SN BR	5000	750	0	0	0
2019/06/07 07:42:00	BASE	0.00	68	M	M	-0.2	100	-0.2	0	0	986.7	NA	0.0000	-SN BR	7000	750	1510	0	0
2019/06/07 07:43:00	BASE	0.00	65	M	M	-0.2	100	-0.2	0	0	986.7	NA	0.0000	-SN BR	9000	690	1480	0	0
2019/06/07 07:44:00	BASE	0.00	71	M	M	-0.2	100	-0.2	0	0	986.7	NA	0.0000	-SN BR	9999	720	1510	0	0
2019/06/07 07:45:00	BASE	0.00	84	M	M	-0.2	100	-0.2	0	0	986.7	NA	0.0000	-SN BR	9999	690	1510	0	0
2019/06/07 07:46:00	BASE	0.00	75	M	M	-0.2	100	-0.2	0	0	986.7	NA	0.0000	-SN BR	9999	690	0	0	0
2019/06/07 07:47:00	BASE	0.00	63	M	M	-0.2	100	-0.2	0	0	986.7	NA	0.0000	-SN BR	9999	690	0	0	0
2019/06/07 07:48:00	BASE	0.00	68	M	M	-0.2	100	-0.2	0	0	986.7	NA	0.0000	-SN BR	9999	720	0	0	0
2019/06/07 07:49:00	BASE	0.00	92	M	M	-0.2	100	-0.2	0	0	986.7	NA	0.0000	-SN BR	9999	720	0	0	0
2019/06/07 07:50:00	BASE	0.00	120	M	M	-0.2	100	-0.2	0	0	986.7	NA	0.0000	-SN	9999	750	0	0	0
2019/06/07 07:51:00	BASE	0.00	111	M	M	-0.2	100	-0.2	0	0	986.7	NA	0.0000	-SN	9999	750	0	0	0
2019/06/07 07:52:00	BASE	0.00	116	M	M	-0.2	100	-0.2	0	0	986.7	NA	0.0000	-SN	9999	790	0	0	0
2019/06/07 07:53:00	BASE	0.00	134	M	M	-0.2	100	-0.2	0	0	986.7	NA	0.0000	-SN	9999	720	0	0	0
2019/06/07 07:54:00	BASE	0.00	149	M	M	-0.1	100	-0.1	0	0	986.7	NA	0.0000	-SN	9999	720	2660	0	0
2019/06/07 07:55:00	BASE	0.00	167	M	M	-0.1	100	-0.1	0	0	986.7	NA	0.0000	-SN	9999	690	0	0	0
2019/06/07 07:56:00	BASE	0.00	180	M	M	-0.1	100	-0.1	0	0	986.7	NA	0.0000	-SN	9999	720	0	0	0
2019/06/07 07:57:00	BASE	0.00	187	M	M	-0.1	100	-0.1	0	0	986.7	NA	0.0000	-SN	9999	690	0	0	0
2019/06/07 07:58:00	BASE	0.00	186	M	M	-0.1	100	-0.1	0	0	986.7	NA	0.0000	-SN	9999	390	0	0	0
2019/06/07 07:59:00	BASE	0.00	181	M	M	-0.1	100	-0.1	0	0	986.7	NA	0.0000	-SN	9999	360	0	0	0
2019/06/07 08:00:00	BASE	0.00	172	M	M	-0.1	100	-0.1	0	0	986.7	NA	0.0000	-SN	9999	0	0	0	3120
2019/06/07 08:01:00	BASE	0.00	167	M	M	-0.1	100	-0.1	0	0	986.7	NA	0.0000	-SN	9999	0	0	0	3150
2019/06/07 08:02:00	BASE	0.00	167	M	M	-0.1	100	-0.1	0	0	986.7	NA	0.0000	-SN	9999	0	0	0	2890
2019/06/07 08:03:00	BASE	0.00	167	M	M	-0.1	100	-0.1	0	0	986.7	NA	0.0000	-SN	9999	0	0	0	2850
2019/06/07 08:04:00	BASE	0.00	167	M	M	-0.1	100	-0.1	0	0	986.7	NA	0.0000	-SN	9999	0	0	0	2890
2019/06/07 08:05:00	BASE	0.00	167	M	M	-0.1	100	-0.1	0	0	986.7	NA	0.0000	-SN	8000	0	0	0	2950
2019/06/07 08:06:00	BASE	0.00	167	M	M	-0.1	100	-0.1	0	0	986.7	NA	0.0000	-SN	8000	0	0	0	2990
2019/06/07 08:07:01	BASE	0.00	167	M	M	-0.1	100	-0.1	0	0	986.8	NA	0.0000	-SN	9999	0	0	0	2990
2019/06/07 08:08:00	BASE	0.00	167	M	M	-0.1	100	-0.1	0	0	986.7	NA	0.0000	-SN	9000	0	0	0	3020
2019/06/07 08:09:00	BASE	0.00	167	M	M	-0.1	100	-0.1	0	0	986.8	NA	0.0000	-SN BR	9999	0	0	0	2920
2019/06/07 08:10:00	BASE	0.00	167	M	M	-0.1	100	-0.1	0	0	986.8	NA	0.0000	-SN BR	9999	0	0	0	2920
2019/06/07 08:11:00	BASE	0.00	131	M	M	-0.1	100	-0.1	0	0	986.7	NA	0.0000	-SN BR	8000	0	0	0	2790
2019/06/07 08:12:01	BASE	0.00	4	M	M	-0.1	100	-0.1	0	0	986.8	NA	0.0000	-SN BR	7000	0	0	0	2690
2019/06/07 08:13:00	BASE	0.00	1	M	M	-0.0	100	-0.0	0	0	986.8	NA	0.0000	-SN BR	7000	0	0	0	2760
2019/06/07 08:14:00	BASE	0.00	11	M	M	-0.0	100	-0.0	0	0	986.8	NA	0.0000	-SN BR	7000	0	0	0	2890
2019/06/07 08:15:00	BASE	0.00	25	M	M	-0.1	100	-0.1	0	0	986.8	NA	0.0000	-SN BR	9999	0	0	0	2890
2019/06/07 08:16:00	BASE	0.00	39	M	M	-0.1	100	-0.1	0	0	986.8	NA	0.0000	-SN BR	9999	0	0	0	2850
2019/06/07 08:17:00	BASE	0.00	40	M	M	-0.1	100	-0.1	0	0	986.8	NA	0.0000	-SN BR	9999	0	0	0	2820
2019/06/07 08:18:00	BASE	0.00	30	M	M	-0.1	100	-0.1	0	0	986.8	NA	0.0000	-SN BR	9000	0	0	0	2890
2019/06/07 08:19:00	BASE	0.00	22	M	M	-0.1	100	-0.1	0	0	986.8	NA	0.0000	-SN BR	9000	0	0	0	2890
2019/06/07 08:20:01	BASE	0.00	34	M	M	-0.1	100	-0.1	0	0	986.8	NA	0.0000	-SN BR	9999	0	0	0	2890
2019/06/07 08:21:00	BASE	0.00	48	M	M	-0.0	100	-0.0	0	0	986.8	NA	0.0000	-SN BR	9999	0	0	0	2920
2019/06/07 08:22:00	BASE	0.00	43	M	M	0.0	100	0.0	0	0	986.8	NA	0.0000	-SN BR	9999	0	0	0	2920
2019/06/07 08:23:00	BASE	0.00	34	M	M	0.0	100	0.0	0	0	986.8	NA	0.2540	-SN	9999	0	0	0	2950
2019/06/07 08:24:01	BASE	0.00	26	M	M	0.0	100	0.0	0	0	986.8	NA	0.0000	-SN	9999	0	0	0	2890
2019/06/07 08:25:00	BASE	0.00	22	M	M	0.0	100	0.0	0	0	986.8	NA	0.0000	-SN	9999	0	0	0	2890
2019/06/07 08:26:00	BASE	0.00	21	M	M	0.0	100	0.0	0	0	986.8	NA	0.0000	-SN	9999	0	0	0	2950
2019/06/07 08:27:00	BASE	0.00	28	M	M	0.0	100	0.0	0	0	986.8	NA	0.0000	-SN	9999	0	0	0	3080
2019/06/07 08:28:00	BASE	0.00	22	M	M	-0.0	100	-0.0	0	0	986.8	NA	0.0000	-SN	9999	0	0	0	3220
2019/06/07 08:29:00	BASE	0.00	1	M	M	-0.1	100	-0.1	0	0	986.8	NA	0.0000	-SN	9999	0	0	0	3120
2019/06/07 08:30:00	BASE	0.00	356	M	M	-0.2	100	-0.2	0	0	986.7	NA	0.0000	-SN	9999	1310	0	0	0
2019/06/07 08:31:00	BASE	0.00	1	M	M	-0.2	100	-0.2	0	0	986.7	NA	0.0000	-SN	9999	0	0	0	3080
2019/06/07 08:32:00	BASE	0.00	358	M	M	-0.3	100	-0.3	0	0	986.7	NA	0.0000	-SN	9999	0	0	0	3150
2019/06/07 08:33:00	BASE	0.00	350	M	M	-0.3	100	-0.3	0	0	986.7	NA	0.0000	-SN	9999	0	0	0	4760
2019/06/07 08:34:00	BASE	0.00	346	M	M	-0.4	100	-0.4	0	0	986.6	NA	0.0000	-SN	9999	0	0	0	4430
2019/06/07 08:35:00	BASE	0.00	344	M	M	-0.3	100	-0.3	0	0	986.6	NA	0.0000	-SN	9999	0	0	0	4460
2019/06/07 08:36:00	BASE	0.00	336	M	M	-0.3	100	-0.3	0	0	986.6	NA	0.0000	-SN	9999	0	0	0	4300
2019/06/07 08:37:00	BASE	0.00	331	M	M	-0.4	100	-0.4	0	0	986.6	NA	0.0000		9999	0	0	0	4130
2019/06/07 08:38:00	BASE	0.00	330	M	M	-0.4	100	-0.4	0	0	986.6	NA	0.0000		9999	0	0	0	3900
2019/06/07 08:39:00	BASE	0.00	329	M	M	-0.4	100	-0.4	0	0	986.6	NA	0.0000		9999	1480	0	0	0
2019/06/07 08:40:00	BASE	0.00	328	M	M	-0.5	100	-0.5	0	0	986.6	NA	0.0000		9999	0	0	0	3450
2019/06/07 08:41:00	BASE	0.00	323	M	M	-0.5	100	-0.5	0	0	986.6	NA	0.0000		9999	1020	0	0	0
2019/06/07 08:42:00	BASE	0.00	318	M	M	-0.5	100	-0.5	0	0	986.6	NA	0.0000		9999	1050	0	0	0
2019/06/07 08:43:00	BASE	0.00	318	M	M	-0.6	100	-0.6	0	0	986.6	NA	0.0000		9999	1080	0	0	0
2019/06/07 08:44:00	BASE	0.00	318	M	M	-0.6	100	-0.6	0	0	986.6	NA	0.0000		9999	1150	0	0	0
2019/06/07 08:45:00	BASE	0.00	318	M	M	-0.6	100	-0.6	0	0	986.6	NA	0.0000		9999	0	0	0	2890
2019/06/07 08:46:00	BASE	0.00	318	M	M	-0.6	100	-0.6	0	0	986.6	NA	0.0000		9999	0	0	0	2660
2019/06/07 08:47:00	BASE	0.00	318	M	M	-0.7	100	-0.7	0	0	986.6	NA	0.0000		9999	0	0	0	2920
2019/06/07 08:48:00	BASE	0.00	318	M	M	-0.7	100	-0.7	0	0	986.6	NA	0.0000	-SN	9000	660	0	0	0
2019/06/07 08:49:00	BASE	0.00	314	M	M	-0.7	100	-0.7	0	0	986.6	NA	0.0000	-SN	7000	360	0	0	0
2019/06/07 08:50:00	BASE	0.00	301	M	M	-0.7	100	-0.7	0	0	986.6	NA	0.0000	-SN	6000	0	0	0	1380
2019/06/07 08:51:00	BASE	0.00	286	M	M	-0.7	100	-0.7	0	0	986.6	NA	0.0000	-SN	6000	0	0	0	890
2019/06/07 08:52:00	BASE	0.00	278	M	M	-0.7	100	-0.7	0	0	986.6	NA	0.0000	-SN BR	7000	0	0	0	850
2019/06/07 08:53:00	BASE	0.00	264	M	M	-0.7	100	-0.7	0	0	986.7	NA	0.0000	-SN BR	8000	0	0	0	720
2019/06/07 08:54:00	BASE	0.00	251	M	M	-0.7	100	-0.7	0	0	986.7	NA	0.0000	-SN BR	6000	0	0	0	660
2019/06/07 08:55:00	BASE	0.00	250	M	M	-0.7	100	-0.7	0	0	986.7	NA	0.0000	-SN BR	6000	0	0	0	660
2019/06/07 08:56:00	BASE	0.00	250	M	M	-0.7	100	-0.7	0	0	986.7	NA	0.0000	-SN BR	7000	0	0	0	660
2019/06/07 08:57:00	BASE	0.00	250	M	M	-0.7	100	-0.7	0	0	986.7	NA	0.0000	-SN BR	8000	0	0	0	660
2019/06/07 08:58:00	BASE	0.00	243	M	M	-0.7	100	-0.7	0	0	986.7	NA	0.0000	-SN BR	8000	0	0	0	620
2019/06/07 08:59:00	BASE	0.00	239	M	M	-0.7	100	-0.7	0	0	986.7	NA	0.0000	-SN BR	9999	0	0	0	620
2019/06/07 09:00:01	BASE	0.00	243	M	M	-0.7	100	-0.7	0	0	986.6	NA	0.0000	-SN BR	9999	0	0	0	620
2019/06/07 09:01:00	BASE	0.00	243	M	M	-0.7	100	-0.7	0	0	986.6	NA	0.0000	-SN BR	9999	0	0	0	590
2019/06/07 09:02:00	BASE	0.00	242	M	M	-0.7	100	-0.7	0	0	986.6	NA	0.0000	-SN BR	9999	0	0	0	590
2019/06/07 09:03:00	BASE	0.00	242	M	M	-0.7	100	-0.7	0	0	986.6	NA	0.0000	-SN BR	9999	0	0	0	560
2019/06/07 09:04:00	BASE	0.00	240	M	M	-0.7	100	-0.7	0	0	986.6	NA	0.0000	-SN BR	9000	0	0	0	560
2019/06/07 09:05:00	BASE	0.00	243	M	M	-0.7	100	-0.7	0	0	986.6	NA	0.0000	-SN BR	8000	0	0	0	560
2019/06/07 09:06:00	BASE	0.00	244	M	M	-0.8	100	-0.8	0	0	986.6	NA	0.0000	-SN	9000	0	0	0	560
2019/06/07 09:07:00	BASE	0.00	234	M	M	-0.8	100	-0.8	0	0	986.6	NA	0.0000	-SN	9999	0	0	0	520
2019/06/07 09:08:00	BASE	0.00	227	M	M	-0.8	100	-0.8	0	0	986.6	NA	0.0000	-SN	9000	0	0	0	520
2019/06/07 09:09:00	BASE	0.00	227	M	M	-0.8	100	-0.8	0	0	986.6	NA	0.0000	-SN	8000	0	0	0	490
2019/06/07 09:10:00	BASE	0.00	225	M	M	-0.8	100	-0.8	0	0	986.6	NA	0.0000	-SN BR	7000	0	0	0	490
2019/06/07 09:11:00	BASE	0.00	218	M	M	-0.8	100	-0.8	0	0	986.6	NA	0.0000	-SN BR	7000	0	0	0	490
2019/06/07 09:12:00	BASE	0.00	209	M	M	-0.8	100	-0.8	0	0	986.6	NA	0.0000	-SN BR	9000	0	0	0	490
2019/06/07 09:13:00	BASE	0.00	197	M	M	-0.8	100	-0.8	0	0	986.6	NA	0.0000	-SN BR	9000	0	0	0	460
2019/06/07 09:14:00	BASE	0.00	180	M	M	-0.8	100	-0.8	0	0	986.6	NA	0.0000	-SN BR	9000	0	0	0	430
2019/06/07 09:15:00	BASE	0.00	161	M	M	-0.8	100	-0.8	0	0	986.6	NA	0.0000	-SN BR	8000	0	0	0	430
2019/06/07 09:16:00	BASE	0.00	157	M	M	-0.8	100	-0.8	0	0	986.6	NA	0.0000	-SN BR	8000	0	0	0	460
2019/06/07 09:17:00	BASE	0.00	162	M	M	-0.8	100	-0.8	0	0	986.6	NA	0.0000	-SN BR	7000	0	0	0	460
2019/06/07 09:18:00	BASE	0.00	164	M	M	-0.8	100	-0.8	0	0	986.6	NA	0.0000	-SN BR	5000	0	0	0	430
2019/06/07 09:19:00	BASE	0.00	159	M	M	-0.7	100	-0.7	0	0	986.6	NA	0.0000	-SN BR	4500	0	0	0	460
2019/06/07 09:20:00	BASE	0.00	156	M	M	-0.7	100	-0.7	0	0	986.6	NA	0.0000	-SN BR	3800	0	0	0	430
2019/06/07 09:21:00	BASE	0.00	167	M	M	-0.7	100	-0.7	0	0	986.6	NA	0.0000	-SN BR	3900	0	0	0	430
2019/06/07 09:22:00	BASE	0.00	180	M	M	-0.7	100	-0.7	0	0	986.6	NA	0.0000	-SN BR	3600	0	0	0	430
2019/06/07 09:23:00	BASE	0.00	182	M	M	-0.7	100	-0.7	0	0	986.6	NA	0.0000	-SN BR	3500	0	0	0	460
2019/06/07 09:24:00	BASE	0.00	179	M	M	-0.7	100	-0.7	0	0	986.6	NA	0.0000	-SN BR	3900	0	0	0	460
2019/06/07 09:25:00	BASE	0.00	179	M	M	-0.8	100	-0.8	0	0	986.6	NA	0.0000	-SN BR	3700	0	0	0	490
2019/06/07 09:26:00	BASE	0.00	179	M	M	-0.8	100	-0.8	0	0	986.6	NA	0.0000	-SN BR	3700	0	0	0	490
2019/06/07 09:27:00	BASE	0.00	182	M	M	-0.8	100	-0.8	0	0	986.6	NA	0.0000	-SN BR	4400	0	0	0	520
2019/06/07 09:28:00	BASE	0.00	190	M	M	-0.8	100	-0.8	0	0	986.6	NA	0.0000	-SN BR	4500	0	0	0	520
2019/06/07 09:29:00	BASE	0.00	193	M	M	-0.8	100	-0.8	0	0	986.6	NA	0.0000	-SN BR	4700	0	0	0	520
2019/06/07 09:30:00	BASE	0.00	192	M	M	-0.8	100	-0.8	0	0	986.6	NA	0.0000	-SN BR	5000	0	0	0	560
2019/06/07 09:31:00	BASE	0.00	188	M	M	-0.8	100	-0.8	0	0	986.6	NA	0.0000	-SN BR	5000	0	0	0	590
2019/06/07 09:32:00	BASE	0.00	182	M	M	-0.8	100	-0.8	0	0	986.6	NA	0.0000	-SN BR	5000	0	0	0	620
2019/06/07 09:33:00	BASE	0.00	178	M	M	-0.7	100	-0.7	0	0	986.6	NA	0.0000	-SN BR	5000	0	0	0	590
2019/06/07 09:34:00	BASE	0.00	177	M	M	-0.8	100	-0.8	0	0	986.6	NA	0.0000	-SN BR	5000	0	0	0	590
2019/06/07 09:35:00	BASE	0.00	178	M	M	-0.8	100	-0.8	0	0	986.6	NA	0.0000	-SN BR	4900	0	0	0	560
2019/06/07 09:36:00	BASE	0.00	180	M	M	-0.8	100	-0.8	0	0	986.6	NA	0.0000	-SN BR	4800	0	0	0	590
2019/06/07 09:37:00	BASE	0.00	182	M	M	-0.8	100	-0.8	0	0	986.6	NA	0.0000	-SN BR	4700	0	0	0	660
2019/06/07 09:38:00	BASE	0.00	183	M	M	-0.8	100	-0.8	0	0	986.6	NA	0.0000	-SN BR	4600	0	0	0	660
2019/06/07 09:39:00	BASE	0.00	183	M	M	-0.8	100	-0.8	0	0	986.5	NA	0.0000	BR	4600	0	0	0	660
2019/06/07 09:40:00	BASE	0.00	183	M	M	-0.9	100	-0.9	0	0	986.5	NA	0.0000	BR	4500	0	0	0	660
2019/06/07 09:41:00	BASE	0.00	187	M	M	-0.9	100	-0.9	0	0	986.6	NA	0.0000	BR	4500	0	0	0	660
2019/06/07 09:42:00	BASE	0.00	199	M	M	-1.0	100	-1.0	0	0	986.6	NA	0.0000	BR	4400	0	0	0	690
2019/06/07 09:43:00	BASE	0.00	215	M	M	-1.0	100	-1.0	0	0	986.6	NA	0.0000	BR	4300	0	0	0	660
2019/06/07 09:44:00	BASE	0.00	226	M	M	-1.0	100	-1.0	0	0	986.6	NA	0.0000	BR	4300	0	0	0	660
2019/06/07 09:45:00	BASE	0.00	234	M	M	-1.0	100	-1.0	0	0	986.6	NA	0.0000	BR	4200	0	0	0	620
2019/06/07 09:46:00	BASE	0.00	241	M	M	-1.0	100	-1.0	0	0	986.5	NA	0.0000	BR	4200	0	0	0	620
2019/06/07 09:47:00	BASE	0.00	247	M	M	-1.1	100	-1.1	0	0	986.5	NA	0.0000	BR	4100	0	0	0	620
2019/06/07 09:48:00	BASE	0.00	251	M	M	-1.1	100	-1.1	0	0	986.5	NA	0.0000	BR	4100	0	0	0	620
2019/06/07 09:49:00	BASE	0.00	250	M	M	-1.0	100	-1.0	0	0	986.5	NA	0.0000	BR	4000	0	0	0	660
2019/06/07 09:50:00	BASE	0.00	250	M	M	-1.0	100	-1.0	0	0	986.5	NA	0.0000	BR	4000	0	0	0	620
2019/06/07 09:51:00	BASE	0.00	254	M	M	-1.0	100	-1.0	0	0	986.5	NA	0.0000	BR	3900	0	0	0	620
2019/06/07 09:52:00	BASE	0.00	263	M	M	-1.0	100	-1.0	0	0	986.5	NA	0.2540	BR	3900	0	0	0	620
2019/06/07 09:53:00	BASE	0.00	275	M	M	-1.0	100	-1.0	0	0	986.5	NA	0.0000	BR	3900	0	0	0	620
2019/06/07 09:54:00	BASE	0.00	286	M	M	-1.0	100	-1.0	0	0	986.5	NA	0.0000	BR	3800	0	0	0	620
2019/06/07 09:55:00	BASE	0.00	296	M	M	-1.0	100	-1.0	0	0	986.5	NA	0.0000	BR	3800	0	0	0	620
2019/06/07 09:56:00	BASE	0.00	304	M	M	-1.0	100	-1.0	0	0	986.5	NA	0.0000	BR	3800	0	0	0	660
2019/06/07 09:57:00	BASE	0.00	308	M	M	-1.0	100	-1.0	0	0	986.5	NA	0.0000	BR	3700	0	0	0	720
2019/06/07 09:58:00	BASE	0.00	309	M	M	-1.0	100	-1.0	0	0	986.5	NA	0.0000	BR	3700	0	0	0	1020
2019/06/07 09:59:00	BASE	0.00	310	M	M	-1.0	100	-1.0	0	0	986.5	NA	0.0000	BR	3700	0	0	0	1080
2019/06/07 10:00:00	BASE	0.00	310	M	M	-0.9	100	-0.9	0	0	986.5	NA	0.0000	BR	3600	0	0	0	1180
2019/06/07 10:01:00	BASE	0.00	310	M	M	-0.9	100	-0.9	0	0	986.5	NA	0.0000	BR	3600	0	0	0	980
2019/06/07 10:02:00	BASE	0.00	309	M	M	-0.9	100	-0.9	0	0	986.5	NA	0.0000	BR	3600	0	0	0	720
2019/06/07 10:03:00	BASE	0.00	309	M	M	-0.9	100	-0.9	0	0	986.5	NA	0.0000	BR	3600	0	0	0	720
2019/06/07 10:04:00	BASE	0.00	298	M	M	-0.9	100	-0.9	0	0	986.5	NA	0.0000	BR	3500	0	0	0	720
2019/06/07 10:05:00	BASE	0.00	271	M	M	-0.9	100	-0.9	0	0	986.5	NA	0.0000	BR	3500	0	0	0	720
2019/06/07 10:06:00	BASE	0.00	261	M	M	-1.0	100	-1.0	0	0	986.5	NA	0.0000	BR	3500	0	0	0	750
2019/06/07 10:07:00	BASE	0.00	271	M	M	-1.0	100	-1.0	0	0	986.5	NA	0.0000	BR	3500	0	0	0	750
2019/06/07 10:08:00	BASE	0.00	281	M	M	-1.0	100	-1.0	0	0	986.5	NA	0.0000	BR	3500	0	0	0	790
2019/06/07 10:09:00	BASE	0.00	294	M	M	-1.0	100	-1.0	0	0	986.5	NA	0.0000	BR	3400	0	0	0	820
2019/06/07 10:10:00	BASE	0.00	311	M	M	-1.0	100	-1.0	0	0	986.4	NA	0.0000	BR	3400	0	0	0	1020
2019/06/07 10:11:00	BASE	0.00	325	M	M	-0.9	100	-0.9	0	0	986.4	NA	0.0000	BR	3400	0	0	0	1080
2019/06/07 10:12:00	BASE	0.00	335	M	M	-0.9	100	-0.9	0	0	986.4	NA	0.0000	BR	3400	0	0	0	1150
2019/06/07 10:13:00	BASE	0.00	341	M	M	-0.9	100	-0.9	0	0	986.4	NA	0.0000	BR	3400	0	0	0	2030
2019/06/07 10:14:00	BASE	0.00	346	M	M	-0.9	100	-0.9	0	0	986.4	NA	0.0000	BR	3300	0	0	0	2030
2019/06/07 10:15:00	BASE	0.00	356	M	M	-0.9	100	-0.9	0	0	986.4	NA	0.0000	BR	3300	0	0	0	2000
2019/06/07 10:16:00	BASE	0.00	2	M	M	-1.0	100	-1.0	0	0	986.4	NA	0.0000	BR	3300	0	0	0	2000
2019/06/07 10:17:01	BASE	0.00	3	M	M	-1.0	100	-1.0	0	0	986.3	NA	0.0000	BR	3300	0	0	0	1770
2019/06/07 10:18:00	BASE	0.00	3	M	M	-1.0	100	-1.0	0	0	986.4	NA	0.0000	BR	3300	0	0	0	1570
2019/06/07 10:19:00	BASE	0.00	3	M	M	-1.0	100	-1.0	0	0	986.4	NA	0.0000	BR	3300	0	0	0	1410
2019/06/07 10:20:00	BASE	0.00	2	M	M	-1.1	100	-1.1	0	0	986.3	NA	0.0000	BR	3200	0	0	0	1310
2019/06/07 10:21:00	BASE	0.00	2	M	M	-1.1	100	-1.1	0	0	986.4	NA	0.0000	BR	3200	0	0	0	1250
2019/06/07 10:22:00	BASE	0.00	2	M	M	-1.1	100	-1.1	0	0	986.4	NA	0.0000	BR	3200	0	0	0	2660
2019/06/07 10:23:00	BASE	0.00	1	M	M	-1.1	100	-1.1	0	0	986.4	NA	0.0000	BR	3200	0	0	0	2690
2019/06/07 10:24:00	BASE	0.00	359	M	M	-1.1	100	-1.1	0	0	986.3	NA	0.0000	BR	3200	0	0	0	2620
2019/06/07 10:25:00	BASE	0.00	351	M	M	-1.0	100	-1.0	0	0	986.4	NA	0.0000	BR	3200	0	0	0	2530
2019/06/07 10:26:00	BASE	0.00	347	M	M	-1.0	100	-1.0	0	0	986.3	NA	0.0000	BR	3200	0	0	0	2490
2019/06/07 10:27:00	BASE	0.00	347	M	M	-1.0	100	-1.0	0	0	986.3	NA	0.0000	BR	3200	0	0	0	2430
2019/06/07 10:28:00	BASE	0.00	348	M	M	-0.9	100	-0.9	0	0	986.3	NA	0.0000	BR	3200	0	0	0	2460
2019/06/07 10:29:00	BASE	0.00	355	M	M	-0.9	100	-0.9	0	0	986.3	NA	0.0000	BR	3200	0	0	0	2490
2019/06/07 10:30:00	BASE	0.00	360	M	M	-0.9	100	-0.9	0	0	986.3	NA	0.0000	BR	3200	0	0	0	2490
2019/06/07 10:31:00	BASE	0.00	3	M	M	-0.9	100	-0.9	0	0	986.3	NA	0.0000	BR	3100	0	0	0	2490
2019/06/07 10:32:00	BASE	0.00	5	M	M	-0.9	100	-0.9	0	0	986.3	NA	0.0000	BR	3100	0	0	0	2460
2019/06/07 10:33:00	BASE	0.00	6	M	M	-0.9	100	-0.9	0	0	986.3	NA	0.0000	BR	3100	0	0	0	2200
2019/06/07 10:34:00	BASE	0.00	8	M	M	-0.8	100	-0.8	0	0	986.3	NA	0.0000	BR	4000	0	0	0	2130
2019/06/07 10:35:00	BASE	0.00	8	M	M	-0.8	100	-0.8	0	0	986.3	NA	0.0000	UP BR	7000	0	0	0	2100
2019/06/07 10:36:00	BASE	0.00	8	M	M	-0.8	100	-0.8	0	0	986.3	NA	0.0000	UP BR	6000	0	0	0	2100
2019/06/07 10:37:00	BASE	0.00	8	M	M	-0.8	100	-0.8	0	0	986.3	NA	0.0000	UP BR	5000	0	0	0	2170
2019/06/07 10:38:00	BASE	0.00	8	M	M	-0.8	100	-0.8	0	0	986.2	NA	0.0000	UP BR	5000	0	0	0	2200
2019/06/07 10:39:00	BASE	0.00	8	M	M	-0.8	100	-0.8	0	0	986.2	NA	0.0000	UP BR	4700	0	0	0	2200
2019/06/07 10:40:00	BASE	0.00	8	M	M	-0.7	100	-0.7	0	0	986.2	NA	0.0000	UP BR	4900	0	0	0	2200
2019/06/07 10:41:00	BASE	0.00	8	M	M	-0.7	100	-0.7	0	0	986.2	NA	0.0000	UP BR	5000	0	0	0	2230
2019/06/07 10:42:00	BASE	0.00	7	M	M	-0.7	100	-0.7	0	0	986.2	NA	0.0000	UP BR	5000	0	0	0	2260
2019/06/07 10:43:00	BASE	0.00	359	M	M	-0.7	100	-0.7	0	0	986.2	NA	0.0000	UP BR	4400	0	0	0	2130
2019/06/07 10:44:00	BASE	0.00	358	M	M	-0.7	100	-0.7	0	0	986.2	NA	0.0000	UP BR	4000	0	0	0	1970
2019/06/07 10:45:00	BASE	0.00	358	M	M	-0.7	100	-0.7	0	0	986.2	NA	0.0000	UP BR	4100	0	0	0	1970
2019/06/07 10:46:00	BASE	0.00	352	M	M	-0.7	100	-0.7	0	0	986.2	NA	0.0000	UP BR	3600	0	0	0	1900
2019/06/07 10:47:00	BASE	0.00	350	M	M	-0.7	100	-0.7	0	0	986.2	NA	0.0000	UP BR	3300	0	0	0	1900
2019/06/07 10:48:00	BASE	0.00	356	M	M	-0.7	100	-0.7	0	0	986.2	NA	0.0000	UP BR	3400	0	0	0	1940
2019/06/07 10:49:00	BASE	0.00	2	M	M	-0.7	100	-0.7	0	0	986.2	NA	0.0000	UP BR	3900	0	0	0	1970
2019/06/07 10:50:00	BASE	0.00	1	M	M	-0.7	100	-0.7	0	0	986.2	NA	0.0000	UP BR	4500	0	0	0	1970
2019/06/07 10:51:00	BASE	0.00	1	M	M	-0.7	100	-0.7	0	0	986.2	NA	0.0000	UP BR	4600	0	0	0	2000
2019/06/07 10:52:00	BASE	0.00	1	M	M	-0.7	100	-0.7	0	0	986.2	NA	0.0000	UP BR	5000	0	0	0	2030
2019/06/07 10:53:00	BASE	0.00	357	M	M	-0.7	100	-0.7	0	0	986.2	NA	0.0000	UP BR	4700	0	0	0	2030
2019/06/07 10:54:00	BASE	0.00	354	M	M	-0.7	100	-0.7	0	0	986.2	NA	0.0000	UP BR	3300	0	0	0	2030
2019/06/07 10:55:00	BASE	0.00	353	M	M	-0.7	100	-0.7	0	0	986.2	NA	0.0000	UP BR	3000	0	0	0	2070
2019/06/07 10:56:00	BASE	0.00	346	M	M	-0.7	100	-0.7	0	0	986.2	NA	0.0000	UP BR	3100	0	0	0	2070
2019/06/07 10:57:00	BASE	0.00	336	M	M	-0.7	100	-0.7	0	0	986.2	NA	0.0000	UP BR	3000	0	0	0	2100
2019/06/07 10:58:00	BASE	0.00	332	M	M	-0.7	100	-0.7	0	0	986.2	NA	0.0000	UP BR	3100	0	0	0	2130
2019/06/07 10:59:00	BASE	0.00	331	M	M	-0.7	100	-0.7	0	0	986.2	NA	0.0000	UP BR	3100	0	0	0	2130
2019/06/07 11:00:00	BASE	0.00	331	M	M	-0.7	100	-0.7	0	0	986.2	NA	0.0000	UP BR	3100	0	0	0	2130
2019/06/07 11:01:00	BASE	0.00	329	M	M	-0.7	100	-0.7	0	0	986.1	NA	0.0000	UP BR	3000	0	0	0	2100
2019/06/07 11:02:00	BASE	0.00	326	M	M	-0.7	100	-0.7	0	0	986.2	NA	0.0000	UP BR	3000	0	0	0	2130
2019/06/07 11:03:00	BASE	0.00	322	M	M	-0.7	100	-0.7	0	0	986.2	NA	0.0000	UP BR	3000	0	0	0	2100
2019/06/07 11:04:00	BASE	0.00	320	M	M	-0.7	100	-0.7	0	0	986.2	NA	0.0000	UP BR	3000	0	0	0	2130
2019/06/07 11:05:00	BASE	0.00	320	M	M	-0.7	100	-0.7	0	0	986.2	NA	0.0000	UP BR	3000	0	0	0	2170
2019/06/07 11:06:00	BASE	0.00	320	M	M	-0.7	100	-0.7	0	0	986.1	NA	0.0000	UP BR	3000	0	0	0	2430
2019/06/07 11:07:00	BASE	0.00	320	M	M	-0.7	100	-0.7	0	0	986.1	NA	0.0000	BR	3000	0	0	0	2460
2019/06/07 11:08:00	BASE	0.00	316	M	M	-0.7	100	-0.7	0	0	986.1	NA	0.0000	BR	3000	0	0	0	2490
2019/06/07 11:09:00	BASE	0.00	311	M	M	-0.7	100	-0.7	0	0	986.1	NA	0.0000	BR	3000	0	0	0	2530
2019/06/07 11:10:00	BASE	0.00	308	M	M	-0.7	100	-0.7	0	0	986.2	NA	0.0000	BR	3000	0	0	0	2530
2019/06/07 11:11:00	BASE	0.00	307	M	M	-0.7	100	-0.7	0	0	986.2	NA	0.0000	BR	3000	0	0	0	2490
2019/06/07 11:12:00	BASE	0.00	303	M	M	-0.7	100	-0.7	0	0	986.2	NA	0.0000	BR	3000	0	0	0	2530
2019/06/07 11:13:00	BASE	0.00	303	M	M	-0.7	100	-0.7	0	0	986.2	NA	0.0000	BR	3000	0	0	0	2530
2019/06/07 11:14:00	BASE	0.00	306	M	M	-0.7	100	-0.7	0	0	986.2	NA	0.0000	UP BR	3000	0	0	0	2170
2019/06/07 11:15:00	BASE	0.00	311	M	M	-0.8	100	-0.8	0	0	986.2	NA	0.0000	UP BR	3000	0	0	0	2070
2019/06/07 11:16:00	BASE	0.00	313	M	M	-0.8	100	-0.8	0	0	986.2	NA	0.0000	UP BR	3000	0	0	0	2100
2019/06/07 11:17:00	BASE	0.00	314	M	M	-0.8	100	-0.8	0	0	986.2	NA	0.0000	UP BR	3000	0	0	0	2430
2019/06/07 11:18:00	BASE	0.00	318	M	M	-0.8	100	-0.8	0	0	986.2	NA	0.0000	BR	3000	0	0	0	1840
2019/06/07 11:19:00	BASE	0.00	324	M	M	-0.8	100	-0.8	0	0	986.2	NA	0.0000	BR	3000	0	0	0	1770
2019/06/07 11:20:00	BASE	0.00	333	M	M	-0.8	100	-0.8	0	0	986.2	NA	0.0000	BR	3000	0	0	0	2170
2019/06/07 11:21:00	BASE	0.00	340	M	M	-0.8	100	-0.8	0	0	986.2	NA	0.0000	BR	3000	0	0	0	1970
2019/06/07 11:22:00	BASE	0.00	344	M	M	-0.9	100	-0.9	0	0	986.2	NA	0.0000	BR	3000	0	0	0	1570
2019/06/07 11:23:00	BASE	0.00	345	M	M	-0.9	100	-0.9	0	0	986.2	NA	0.0000	BR	3000	0	0	0	1510
2019/06/07 11:24:00	BASE	0.00	337	M	M	-1.0	100	-1.0	0	0	986.2	NA	0.0000	BR	3000	0	0	0	1380
2019/06/07 11:25:00	BASE	0.00	334	M	M	-1.0	100	-1.0	0	0	986.2	NA	0.0000	BR	3000	0	0	0	1120
2019/06/07 11:26:00	BASE	0.00	333	M	M	-1.0	100	-1.0	0	0	986.2	NA	0.0000	BR	3000	0	0	0	1050
2019/06/07 11:27:00	BASE	0.00	334	M	M	-1.0	100	-1.0	0	0	986.2	NA	0.0000	BR	3000	0	0	0	1050
2019/06/07 11:28:00	BASE	0.00	331	M	M	-1.0	100	-1.0	0	0	986.2	NA	0.0000	BR	3000	0	0	0	1080
2019/06/07 11:29:00	BASE	0.00	331	M	M	-0.9	100	-0.9	0	0	986.1	NA	0.0000	BR	3000	0	0	0	1020
2019/06/07 11:30:00	BASE	0.00	332	M	M	-0.9	100	-0.9	0	0	986.1	NA	0.0000	BR	3000	0	0	0	1280
2019/06/07 11:31:00	BASE	0.00	330	M	M	-0.9	100	-0.9	0	0	986.0	NA	0.0000	BR	3000	0	0	0	1350
2019/06/07 11:32:00	BASE	0.00	335	M	M	-0.9	100	-0.9	0	0	986.0	NA	0.0000	BR	3000	0	0	0	1180
2019/06/07 11:33:00	BASE	0.00	338	M	M	-0.9	100	-0.9	0	0	986.0	NA	0.0000	BR	3000	0	0	0	1080
2019/06/07 11:34:00	BASE	0.00	334	M	M	-0.9	100	-0.9	0	0	986.0	NA	0.0000	BR	3000	0	0	0	1310
2019/06/07 11:35:00	BASE	0.00	334	M	M	-0.9	100	-0.9	0	0	986.0	NA	0.0000	BR	3000	0	0	0	950
2019/06/07 11:36:00	BASE	0.00	332	M	M	-1.0	100	-1.0	0	0	986.0	NA	0.0000	BR	3000	0	0	0	1120
2019/06/07 11:37:00	BASE	0.00	328	M	M	-1.0	100	-1.0	0	0	986.0	NA	0.0000	BR	3000	0	0	0	1020
2019/06/07 11:38:00	BASE	0.00	325	M	M	-1.0	100	-1.0	0	0	986.0	NA	0.0000	BR	3000	0	0	0	850
2019/06/07 11:39:00	BASE	0.00	326	M	M	-1.0	100	-1.0	0	0	986.0	NA	0.0000	BR	3000	0	0	0	1310
2019/06/07 11:40:00	BASE	0.00	328	M	M	-1.0	100	-1.0	0	0	986.1	NA	0.0000	BR	2300	0	0	0	820
2019/06/07 11:41:00	BASE	0.00	327	M	M	-1.0	100	-1.0	0	0	986.2	NA	0.0000	UP BR	1700	0	0	0	690
2019/06/07 11:42:00	BASE	0.00	327	M	M	-1.1	100	-1.1	0	0	986.1	NA	0.0000	UP BR	1700	0	0	0	660
2019/06/07 11:43:00	BASE	0.00	325	M	M	-1.1	100	-1.1	0	0	986.2	NA	0.0000	UP BR	1700	0	0	0	690
2019/06/07 11:44:00	BASE	0.00	323	M	M	-1.1	100	-1.1	0	0	986.2	NA	0.0000	UP BR	1600	0	0	0	720
2019/06/07 11:45:00	BASE	0.00	322	M	M	-1.1	100	-1.1	0	0	986.2	NA	0.2540	UP BR	1500	0	0	0	750
2019/06/07 11:46:00	BASE	0.00	322	M	M	-1.1	100	-1.1	0	0	986.2	NA	0.0000	UP BR	1500	0	0	0	890
2019/06/07 11:47:00	BASE	0.00	322	M	M	-1.1	100	-1.1	0	0	986.2	NA	0.0000	UP BR	1400	0	0	0	1020
2019/06/07 11:48:00	BASE	0.00	322	M	M	-1.1	100	-1.1	0	0	986.2	NA	0.0000	UP BR	1400	0	0	0	1150
2019/06/07 11:49:00	BASE	0.00	322	M	M	-1.1	100	-1.1	0	0	986.2	NA	0.0000	UP BR	1400	0	0	0	1250
2019/06/07 11:50:00	BASE	0.00	322	M	M	-1.1	100	-1.1	0	0	986.1	NA	0.0000	UP BR	1400	0	0	0	1380
2019/06/07 11:51:00	BASE	0.00	322	M	M	-1.1	100	-1.1	0	0	986.0	NA	0.0000	UP BR	1500	0	0	0	1410
2019/06/07 11:52:00	BASE	0.00	322	M	M	-1.1	100	-1.1	0	0	986.0	NA	0.0000	UP BR	1600	0	0	0	1570
2019/06/07 11:53:00	BASE	0.00	321	M	M	-1.1	100	-1.1	0	0	986.0	NA	0.0000	UP BR	1700	0	0	0	1870
2019/06/07 11:54:00	BASE	0.00	324	M	M	-1.1	100	-1.1	0	0	986.0	NA	0.0000	UP BR	1800	0	0	0	2300
2019/06/07 11:55:00	BASE	0.00	327	M	M	-1.1	100	-1.1	0	0	986.0	NA	0.0000	UP BR	1800	0	0	0	2330
2019/06/07 11:56:00	BASE	0.00	328	M	M	-1.1	100	-1.1	0	0	985.8	NA	0.0000	UP BR	1800	0	0	0	2300
2019/06/07 11:57:00	BASE	0.00	328	M	M	-1.1	100	-1.1	0	0	986.0	NA	0.0000	UP BR	1800	0	0	0	2330
2019/06/07 11:58:00	BASE	0.00	328	M	M	-1.1	100	-1.1	0	0	986.0	NA	0.0000	UP BR	1800	0	0	0	2300
2019/06/07 11:59:00	BASE	0.00	328	M	M	-1.1	100	-1.1	0	0	986.0	NA	0.0000	UP BR	1800	0	0	0	2300
2019/06/07 12:00:00	BASE	0.00	328	M	M	-1.1	100	-1.1	0	0	986.0	NA	0.0000	UP BR	1800	0	0	0	2360
2019/06/07 12:01:00	BASE	0.00	326	M	M	-1.1	100	-1.1	0	0	986.0	NA	0.0000	UP BR	1800	0	0	0	2560
2019/06/07 12:02:01	BASE	0.00	323	M	M	-1.1	100	-1.1	0	0	986.0	NA	0.0000	UP BR	1800	0	0	0	2820
2019/06/07 12:03:00	BASE	0.00	319	M	M	-1.1	100	-1.1	0	0	986.0	NA	0.0000	BR	1800	0	0	0	2850
2019/06/07 12:04:00	BASE	0.00	316	M	M	-1.1	100	-1.1	0	0	986.0	NA	0.0000	BR	1800	0	0	0	2950
2019/06/07 12:05:00	BASE	0.00	314	M	M	-1.1	100	-1.1	0	0	985.8	NA	0.0000	BR	1800	0	0	0	3280
2019/06/07 12:06:00	BASE	0.00	314	M	M	-1.1	100	-1.1	0	0	986.0	NA	0.0000	BR	1800	0	0	0	3250
2019/06/07 12:07:00	BASE	0.00	315	M	M	-1.0	100	-1.0	0	0	986.0	NA	0.0000	BR	1800	0	0	0	3280
2019/06/07 12:08:00	BASE	0.00	314	M	M	-1.0	100	-1.0	0	0	986.0	NA	0.0000	BR	1800	0	0	0	3280
2019/06/07 12:09:00	BASE	0.00	314	M	M	-1.0	100	-1.0	0	0	986.0	NA	0.0000	BR	1800	0	0	0	3280
2019/06/07 12:10:00	BASE	0.00	313	M	M	-1.0	100	-1.0	0	0	986.0	NA	0.0000	BR	1800	0	0	0	3220
2019/06/07 12:11:00	BASE	0.00	312	M	M	-1.0	100	-1.0	0	0	986.0	NA	0.0000	BR	1800	0	0	0	3150
2019/06/07 12:12:00	BASE	0.00	312	M	M	-1.0	100	-1.0	0	0	986.0	NA	0.0000	BR	1800	0	0	0	3150
2019/06/07 12:13:00	BASE	0.00	314	M	M	-1.0	100	-1.0	0	0	986.0	NA	0.0000	BR	1800	0	0	0	3050
2019/06/07 12:14:00	BASE	0.00	315	M	M	-1.0	100	-1.0	0	0	986.0	NA	0.0000	UP BR	2200	0	0	0	3020
2019/06/07 12:15:00	BASE	0.00	317	M	M	-1.0	100	-1.0	0	0	986.0	NA	0.0000	UP BR	3100	0	0	0	2990
2019/06/07 12:16:00	BASE	0.00	319	M	M	-1.1	100	-1.1	0	0	986.0	NA	0.0000	UP BR	3000	0	0	0	2950
2019/06/07 12:17:00	BASE	0.00	320	M	M	-1.1	100	-1.1	0	0	986.0	NA	0.0000	UP BR	3500	0	0	0	2890
2019/06/07 12:18:00	BASE	0.00	320	M	M	-1.1	100	-1.1	0	0	986.0	NA	0.0000	UP BR	3600	0	0	0	2920
2019/06/07 12:19:00	BASE	0.00	321	M	M	-1.1	100	-1.1	0	0	985.9	NA	0.0000	UP BR	3400	0	0	0	2890
2019/06/07 12:20:00	BASE	0.00	322	M	M	-1.1	100	-1.1	0	0	986.0	NA	0.0000	UP BR	4000	0	0	0	2920
2019/06/07 12:21:00	BASE	0.00	322	M	M	-1.1	100	-1.1	0	0	986.0	NA	0.0000	UP BR	3800	0	0	0	2920
2019/06/07 12:22:00	BASE	0.00	322	M	M	-1.1	100	-1.1	0	0	986.0	NA	0.0000	UP BR	3600	0	0	0	2890
2019/06/07 12:23:00	BASE	0.00	322	M	M	-1.1	100	-1.1	0	0	986.0	NA	0.0000	UP BR	2900	0	0	0	2850
2019/06/07 12:24:00	BASE	0.00	321	M	M	-1.1	100	-1.1	0	0	986.0	NA	0.0000	UP BR	2400	0	0	0	2820
2019/06/07 12:25:00	BASE	0.00	318	M	M	-1.1	100	-1.1	0	0	986.0	NA	0.0000	UP BR	2600	0	0	0	2790
2019/06/07 12:26:00	BASE	0.00	317	M	M	-1.2	100	-1.2	0	0	986.0	NA	0.0000	UP BR	3100	0	0	0	2760
2019/06/07 12:27:00	BASE	0.00	319	M	M	-1.2	100	-1.2	0	0	986.0	NA	0.0000	UP BR	3400	0	0	0	2720
2019/06/07 12:28:00	BASE	0.00	321	M	M	-1.2	100	-1.2	0	0	986.0	NA	0.0000	UP BR	3200	0	0	0	2720
2019/06/07 12:29:00	BASE	0.00	322	M	M	-1.2	100	-1.2	0	0	986.0	NA	0.0000	UP BR	3200	0	0	0	2690
2019/06/07 12:30:00	BASE	0.00	320	M	M	-1.2	100	-1.2	0	0	986.0	NA	0.0000	UP BR	3300	0	0	0	2620
2019/06/07 12:31:00	BASE	0.00	318	M	M	-1.2	100	-1.2	0	0	986.0	NA	0.0000	UP BR	3300	0	0	0	2620
2019/06/07 12:32:00	BASE	0.00	316	M	M	-1.1	100	-1.1	0	0	986.0	NA	0.0000	UP BR	3300	0	0	0	2590
2019/06/07 12:33:00	BASE	0.00	314	M	M	-1.1	100	-1.1	0	0	986.0	NA	0.0000	UP BR	3300	0	0	0	2560
2019/06/07 12:34:00	BASE	0.00	313	M	M	-1.1	100	-1.1	0	0	986.0	NA	0.0000	UP BR	3800	0	0	0	2530
2019/06/07 12:35:00	BASE	0.00	314	M	M	-1.1	100	-1.1	0	0	986.0	NA	0.0000	UP BR	4500	0	0	0	2560
2019/06/07 12:36:00	BASE	0.00	316	M	M	-1.1	100	-1.1	0	0	986.0	NA	0.0000	UP BR	4500	0	0	0	2490
2019/06/07 12:37:00	BASE	0.00	318	M	M	-1.1	100	-1.1	0	0	986.0	NA	0.0000	UP BR	4500	0	0	0	2490
2019/06/07 12:38:00	BASE	0.00	324	M	M	-1.1	100	-1.1	0	0	986.0	NA	0.0000	UP BR	4600	0	0	0	2460
2019/06/07 12:39:00	BASE	0.00	331	M	M	-1.1	100	-1.1	0	0	986.0	NA	0.0000	UP BR	5000	0	0	0	2460
2019/06/07 12:40:00	BASE	0.00	338	M	M	-1.1	100	-1.1	0	0	986.0	NA	0.0000	UP BR	5000	0	0	0	2620
2019/06/07 12:41:00	BASE	0.00	342	M	M	-1.1	100	-1.1	0	0	986.0	NA	0.0000	UP BR	5000	0	0	0	2720
2019/06/07 12:42:00	BASE	0.00	344	M	M	-1.1	100	-1.1	0	0	986.0	NA	0.0000	UP BR	5000	0	0	0	2820
2019/06/07 12:43:00	BASE	0.00	349	M	M	-1.1	100	-1.1	0	0	986.0	NA	0.0000	UP BR	5000	0	0	0	2850
2019/06/07 12:44:00	BASE	0.00	351	M	M	-1.1	100	-1.1	0	0	986.0	NA	0.0000	UP BR	5000	0	0	0	2720
2019/06/07 12:45:00	BASE	0.00	352	M	M	-1.1	100	-1.1	0	0	986.0	NA	0.0000	UP BR	5000	0	0	0	2790
2019/06/07 12:46:00	BASE	0.00	356	M	M	-1.1	100	-1.1	0	0	986.0	NA	0.0000	UP BR	5000	0	0	0	2820
2019/06/07 12:47:00	BASE	0.00	1	M	M	-1.1	100	-1.1	0	0	986.0	NA	0.0000	UP BR	5000	0	0	0	2850
2019/06/07 12:48:00	BASE	0.00	358	M	M	-1.1	100	-1.1	0	0	986.0	NA	0.0000	BR	5000	0	0	0	2460
2019/06/07 12:49:00	BASE	0.00	352	M	M	-1.1	100	-1.1	0	0	986.0	NA	0.0000	BR	5000	0	0	0	2400
2019/06/07 12:50:00	BASE	0.00	353	M	M	-1.1	100	-1.1	0	0	986.0	NA	0.0000	BR	5000	0	0	0	2920
2019/06/07 12:51:00	BASE	0.00	355	M	M	-1.1	100	-1.1	0	0	986.1	NA	0.0000	BR	5000	0	0	0	2230
2019/06/07 12:52:00	BASE	0.00	355	M	M	-1.0	100	-1.0	0	0	986.2	NA	0.0000	BR	5000	0	0	0	3450
2019/06/07 12:53:00	BASE	0.00	350	M	M	-1.0	100	-1.0	0	0	986.1	NA	0.0000	BR	6000	0	0	0	3380
2019/06/07 12:54:00	BASE	0.00	349	M	M	-1.0	100	-1.0	0	0	986.0	NA	0.0000	UP BR	6000	0	0	0	3050
2019/06/07 12:55:00	BASE	0.00	354	M	M	-1.0	100	-1.0	0	0	986.0	NA	0.0000	UP BR	5000	0	0	0	1800
2019/06/07 12:56:00	BASE	0.00	358	M	M	-1.0	100	-1.0	0	0	986.0	NA	0.0000	UP BR	5000	0	0	0	1610
2019/06/07 12:57:00	BASE	0.00	2	M	M	-1.0	100	-1.0	0	0	986.0	NA	0.0000	UP BR	5000	0	0	0	1570
2019/06/07 12:58:00	BASE	0.00	357	M	M	-1.0	100	-1.0	0	0	986.0	NA	0.0000	UP BR	5000	0	0	0	2760
2019/06/07 12:59:00	BASE	0.00	348	M	M	-1.0	100	-1.0	0	0	986.0	NA	0.0000	-SN BR	5000	0	0	0	2890
2019/06/07 13:00:00	BASE	0.00	344	M	M	-1.0	100	-1.0	0	0	986.0	NA	0.0000	-SN BR	4600	0	0	0	2950
2019/06/07 13:01:00	BASE	0.00	344	M	M	-1.0	100	-1.0	0	0	986.0	NA	0.0000	-SN BR	4200	0	0	0	2950
2019/06/07 13:02:00	BASE	0.00	346	M	M	-1.0	100	-1.0	0	0	986.0	NA	0.0000	-SN BR	4800	0	0	0	2990
2019/06/07 13:03:00	BASE	0.00	341	M	M	-1.0	100	-1.0	0	0	986.0	NA	0.0000	-SN BR	6000	0	0	0	2890
2019/06/07 13:04:00	BASE	0.00	337	M	M	-1.0	100	-1.0	0	0	986.0	NA	0.0000	-SN BR	7000	0	0	0	2790
2019/06/07 13:05:00	BASE	0.00	338	M	M	-1.0	100	-1.0	0	0	986.0	NA	0.0000	-SN BR	7000	0	0	0	2820
2019/06/07 13:06:00	BASE	0.00	343	M	M	-1.0	100	-1.0	0	0	986.0	NA	0.0000	-SN BR	9000	0	0	0	2850
2019/06/07 13:07:00	BASE	0.00	333	M	M	-1.0	100	-1.0	0	0	986.0	NA	0.0000	-SN BR	9999	0	0	0	2890
2019/06/07 13:08:00	BASE	0.00	316	M	M	-1.0	100	-1.0	0	0	986.0	NA	0.0000	-SN BR	9999	0	0	0	2920
2019/06/07 13:09:00	BASE	0.00	313	M	M	-1.0	100	-1.0	0	0	986.0	NA	0.0000	-SN BR	9999	0	0	0	2920
2019/06/07 13:10:00	BASE	0.00	311	M	M	-1.0	100	-1.0	0	0	986.0	NA	0.0000	-SN BR	9999	0	0	0	2360
2019/06/07 13:11:00	BASE	0.00	311	M	M	-1.0	100	-1.0	0	0	986.0	NA	0.0000	-SN BR	9000	0	0	0	1480
2019/06/07 13:12:00	BASE	0.00	315	M	M	-1.0	100	-1.0	0	0	986.0	NA	0.2540	-SN BR	9999	0	0	0	1350
2019/06/07 13:13:00	BASE	0.00	315	M	M	-1.0	100	-1.0	0	0	986.0	NA	0.0000	-SN BR	9999	0	0	0	1280
2019/06/07 13:14:00	BASE	0.00	318	M	M	-1.0	100	-1.0	0	0	986.0	NA	0.0000	-SN BR	7000	0	0	0	1280
2019/06/07 13:15:00	BASE	0.00	324	M	M	-1.0	100	-1.0	0	0	986.0	NA	0.0000	-SN BR	7000	0	0	0	1280
2019/06/07 13:16:00	BASE	0.00	323	M	M	-1.0	100	-1.0	0	0	986.0	NA	0.0000	-SN BR	9000	0	0	0	1310
2019/06/07 13:17:00	BASE	0.00	321	M	M	-1.0	100	-1.0	0	0	986.0	NA	0.0000	-SN BR	9000	0	0	0	1250
2019/06/07 13:18:00	BASE	0.00	325	M	M	-1.0	100	-1.0	0	0	986.0	NA	0.0000	-SN BR	9000	0	0	0	1280
2019/06/07 13:19:00	BASE	0.00	327	M	M	-1.0	100	-1.0	0	0	986.0	NA	0.0000	-SN BR	8000	0	0	0	1310
2019/06/07 13:20:00	BASE	0.00	325	M	M	-1.0	100	-1.0	0	0	986.0	NA	0.0000	-SN BR	9000	0	0	0	1310
2019/06/07 13:21:00	BASE	0.00	328	M	M	-1.0	100	-1.0	0	0	986.0	NA	0.0000	-SN BR	9000	0	0	0	1250
2019/06/07 13:22:00	BASE	0.00	328	M	M	-1.0	100	-1.0	0	0	986.0	NA	0.0000	-SN BR	9000	0	0	0	1180
2019/06/07 13:23:00	BASE	0.00	323	M	M	-1.0	100	-1.0	0	0	986.0	NA	0.0000	-SN BR	7000	0	0	0	1050
2019/06/07 13:24:00	BASE	0.00	329	M	M	-1.0	100	-1.0	0	0	986.0	NA	0.0000	-SN BR	7000	0	0	0	720
2019/06/07 13:25:00	BASE	0.00	340	M	M	-1.0	100	-1.0	0	0	986.0	NA	0.0000	-SN BR	5000	0	0	0	720
2019/06/07 13:26:00	BASE	0.00	344	M	M	-1.0	100	-1.0	0	0	986.0	NA	0.0000	-SN BR	4500	0	0	0	720
2019/06/07 13:27:01	BASE	0.00	347	M	M	-1.0	100	-1.0	0	0	986.0	NA	0.0000	-SN BR	4200	0	0	0	620
2019/06/07 13:28:00	BASE	0.00	342	M	M	-1.1	100	-1.1	0	0	986.0	NA	0.0000	-SN BR	4200	0	0	0	590
2019/06/07 13:29:00	BASE	0.00	339	M	M	-1.1	100	-1.1	0	0	986.0	NA	0.0000	-SN BR	4300	0	0	0	560
2019/06/07 13:30:00	BASE	0.00	331	M	M	-1.1	100	-1.1	0	0	986.0	NA	0.0000	-SN BR	5000	0	0	0	590
2019/06/07 13:31:00	BASE	0.00	320	M	M	-1.1	100	-1.1	0	0	986.0	NA	0.0000	-SN BR	6000	0	0	0	620
2019/06/07 13:32:00	BASE	0.00	322	M	M	-1.1	100	-1.1	0	0	986.0	NA	0.0000	-SN BR	6000	0	0	0	620
2019/06/07 13:33:00	BASE	0.00	327	M	M	-1.1	100	-1.1	0	0	986.0	NA	0.0000	-SN BR	5000	0	0	0	1150
2019/06/07 13:34:00	BASE	0.00	327	M	M	-1.1	100	-1.1	0	0	986.0	NA	0.0000	-SN BR	7000	0	0	0	790
2019/06/07 13:35:00	BASE	0.00	327	M	M	-1.2	100	-1.2	0	0	986.0	NA	0.0000	-SN BR	9999	0	0	0	1210
2019/06/07 13:36:00	BASE	0.00	328	M	M	-1.2	100	-1.2	0	0	985.9	NA	0.0000	-SN BR	9999	0	0	0	1310
2019/06/07 13:37:00	BASE	0.00	324	M	M	-1.2	100	-1.2	0	0	985.9	NA	0.0000	-SN BR	9999	0	0	0	1280
2019/06/07 13:38:00	BASE	0.00	319	M	M	-1.2	100	-1.2	0	0	985.9	NA	0.0000	-SN BR	9999	0	0	0	1280
2019/06/07 13:39:00	BASE	0.00	313	M	M	-1.2	100	-1.2	0	0	985.9	NA	0.0000	-SN BR	9999	0	0	0	1310
2019/06/07 13:40:00	BASE	0.00	309	M	M	-1.2	100	-1.2	0	0	985.9	NA	0.0000	-SN BR	9999	0	0	0	1280
2019/06/07 13:41:00	BASE	0.00	314	M	M	-1.2	100	-1.2	0	0	985.9	NA	0.0000	-SN BR	9999	0	0	0	1380
2019/06/07 13:42:00	BASE	0.00	320	M	M	-1.2	100	-1.2	0	0	985.9	NA	0.0000	-SN	9999	0	0	0	1310
2019/06/07 13:43:00	BASE	0.00	320	M	M	-1.3	100	-1.3	0	0	985.9	NA	0.0000	-SN	9999	0	0	0	1310
2019/06/07 13:44:00	BASE	0.00	316	M	M	-1.3	100	-1.3	0	0	985.9	NA	0.0000	-SN	9999	0	0	0	1210
2019/06/07 13:45:00	BASE	0.00	312	M	M	-1.3	100	-1.3	0	0	985.9	NA	0.0000	-SN	9999	0	0	0	1210
2019/06/07 13:46:00	BASE	0.00	313	M	M	-1.3	100	-1.3	0	0	985.9	NA	0.0000	-SN	9999	0	0	0	1080
2019/06/07 13:47:00	BASE	0.00	314	M	M	-1.3	100	-1.3	0	0	985.8	NA	0.0000	-SN	9999	0	0	0	1020
2019/06/07 13:48:00	BASE	0.00	313	M	M	-1.4	100	-1.4	0	0	985.8	NA	0.0000	-SN	9999	0	0	0	1020
2019/06/07 13:49:00	BASE	0.00	314	M	M	-1.4	100	-1.4	0	0	985.8	NA	0.0000		9999	0	0	0	1050
2019/06/07 13:50:00	BASE	0.00	312	M	M	-1.4	100	-1.4	0	0	985.8	NA	0.0000		9999	0	0	0	1080
2019/06/07 13:51:00	BASE	0.00	307	M	M	-1.4	100	-1.4	0	0	985.8	NA	0.0000		9999	0	0	0	1180
2019/06/07 13:52:00	BASE	0.00	300	M	M	-1.4	100	-1.4	0	0	985.8	NA	0.0000		9999	0	0	0	1180
2019/06/07 13:53:00	BASE	0.00	294	M	M	-1.4	100	-1.4	1	0	985.8	NA	0.0000		9999	0	0	0	1210
2019/06/07 13:54:00	BASE	0.00	289	M	M	-1.4	100	-1.4	1	0	985.8	NA	0.0000		9999	0	0	0	1210
2019/06/07 13:55:00	BASE	0.00	287	M	M	-1.4	100	-1.4	1	0	985.8	NA	0.0000		9999	0	0	0	1310
2019/06/07 13:56:00	BASE	0.00	288	M	M	-1.3	100	-1.3	1	0	985.8	NA	0.0000		9999	0	0	0	1080
2019/06/07 13:57:00	BASE	0.00	295	M	M	-1.3	100	-1.3	1	0	985.8	NA	0.0000		9999	0	0	0	950
2019/06/07 13:58:00	BASE	0.00	299	M	M	-1.3	100	-1.3	1	0	985.8	NA	0.0000		9000	0	0	0	620
2019/06/07 13:59:00	BASE	0.00	304	M	M	-1.3	100	-1.3	1	0	985.8	NA	0.0000		9000	0	0	0	950
2019/06/07 14:00:00	BASE	0.00	310	M	M	-1.3	100	-1.3	1	0	985.7	NA	0.0000	BR	7000	0	0	0	850
2019/06/07 14:01:00	BASE	0.00	311	M	M	-1.3	100	-1.3	1	0	985.8	NA	0.0000	-SN BR	5000	0	0	0	850
2019/06/07 14:02:00	BASE	0.00	311	M	M	-1.3	100	-1.3	1	0	985.8	NA	0.0000	-SN BR	6000	0	0	0	750
2019/06/07 14:03:00	BASE	0.00	311	M	M	-1.3	100	-1.3	1	0	985.8	NA	0.0000	-SN BR	5000	0	0	0	790
2019/06/07 14:04:00	BASE	0.00	311	M	M	-1.3	100	-1.3	1	0	985.7	NA	0.0000	-SN BR	4200	0	0	0	1050
2019/06/07 14:05:00	BASE	0.00	310	M	M	-1.3	100	-1.3	1	0	985.7	NA	0.0000	-SN BR	3400	0	0	0	1770
2019/06/07 14:06:00	BASE	0.00	312	M	M	-1.2	100	-1.2	1	0	985.7	NA	0.0000	-SN BR	2900	0	0	0	2030
2019/06/07 14:07:00	BASE	0.00	83	M	M	-1.2	100	-1.2	1	0	985.7	NA	0.0000	-SN BR	3200	0	0	0	2000
2019/06/07 14:08:00	BASE	0.00	120	M	M	-1.2	100	-1.2	1	0	985.6	NA	0.0000	-SN BR	3100	0	0	0	2100
2019/06/07 14:09:00	BASE	0.00	117	M	M	-1.2	100	-1.2	1	0	985.7	NA	0.0000	-SN BR	3000	0	0	0	2100
2019/06/07 14:10:00	BASE	0.00	116	M	M	-1.3	100	-1.3	1	0	985.7	NA	0.0000	-SN BR	3000	0	0	0	2130
2019/06/07 14:11:00	BASE	0.00	115	M	M	-1.3	100	-1.3	1	0	985.5	NA	0.0000	-SN BR	2900	0	0	0	2100
2019/06/07 14:12:00	BASE	0.00	111	M	M	-1.3	100	-1.3	1	0	985.7	NA	0.0000	-SN BR	2900	0	0	0	2100
2019/06/07 14:13:00	BASE	0.00	107	M	M	-1.3	100	-1.3	1	0	985.7	NA	0.0000	-SN BR	3300	0	0	0	3380
2019/06/07 14:14:00	BASE	0.00	106	M	M	-1.3	100	-1.3	1	0	985.7	NA	0.0000	-SN BR	3500	0	0	0	3410
2019/06/07 14:15:00	BASE	0.00	106	M	M	-1.3	100	-1.3	1	0	985.7	NA	0.0000	-SN BR	4200	0	0	0	3280
2019/06/07 14:16:00	BASE	0.00	105	M	M	-1.2	100	-1.2	1	0	985.7	NA	0.0000	-SN BR	4500	0	0	0	3250
2019/06/07 14:17:00	BASE	0.00	81	M	M	-1.2	100	-1.2	2	0	985.7	NA	0.0000	-SN BR	4300	0	0	0	3310
2019/06/07 14:18:00	BASE	0.00	58	M	M	-1.1	100	-1.1	2	0	985.7	NA	0.0000	-SN BR	5000	0	0	0	3310
2019/06/07 14:19:00	BASE	0.00	58	M	M	-1.1	100	-1.1	2	0	985.7	NA	0.0000	-SN BR	6000	0	0	0	3280
2019/06/07 14:20:00	BASE	0.00	58	M	M	-1.1	100	-1.1	2	0	985.6	NA	0.0000	-SN BR	7000	0	0	0	3280
2019/06/07 14:21:00	BASE	0.00	58	M	M	-1.0	100	-1.0	2	0	985.6	NA	0.0000	-SN BR	8000	0	0	0	3280
2019/06/07 14:22:00	BASE	0.00	58	M	M	-1.0	100	-1.0	2	0	985.5	NA	0.0000	-SN BR	7000	0	0	0	3250
2019/06/07 14:23:00	BASE	0.00	58	M	M	-1.1	100	-1.1	2	0	985.4	NA	0.0000	-SN BR	6000	0	0	0	3150
2019/06/07 14:24:00	BASE	0.00	58	M	M	-1.1	100	-1.1	2	0	985.6	NA	0.0000	-SN BR	9000	0	0	0	3180
2019/06/07 14:25:00	BASE	0.00	59	M	M	-1.1	100	-1.1	2	0	985.6	NA	0.0000	-SN BR	8000	0	0	0	3250
2019/06/07 14:26:00	BASE	0.00	59	M	M	-1.2	100	-1.2	3	0	985.6	NA	0.0000	-SN BR	8000	0	0	0	3280
2019/06/07 14:27:00	BASE	0.00	59	M	M	-1.2	100	-1.2	3	0	985.6	NA	0.0000	-SN BR	9999	0	0	0	3310
2019/06/07 14:28:00	BASE	0.00	59	M	M	-1.2	100	-1.2	3	0	985.6	NA	0.0000	-SN BR	9999	0	0	0	3250
2019/06/07 14:29:00	BASE	0.00	68	M	M	-1.2	100	-1.2	3	0	985.6	NA	0.0000	-SN BR	9999	0	0	0	3150
2019/06/07 14:30:00	BASE	0.00	199	M	M	-1.2	100	-1.2	3	0	985.6	NA	0.0000	-SN BR	9999	0	0	0	3220
2019/06/07 14:31:00	BASE	0.00	216	M	M	-1.3	100	-1.3	3	0	985.6	NA	0.0000	-SN BR	9999	0	0	0	3250
2019/06/07 14:32:00	BASE	0.00	210	M	M	-1.3	100	-1.3	3	0	985.6	NA	0.0000	-SN	9999	0	0	0	3280
2019/06/07 14:33:00	BASE	0.00	203	M	M	-1.3	100	-1.3	3	0	985.6	NA	0.0000	-SN	9999	0	0	0	3280
2019/06/07 14:34:00	BASE	0.00	193	M	M	-1.3	100	-1.3	3	0	985.6	NA	0.0000	-SN	9999	0	0	0	3350
2019/06/07 14:35:00	BASE	0.00	186	M	M	-1.2	100	-1.2	3	0	985.6	NA	0.0000	-SN	9999	0	0	0	2620
2019/06/07 14:36:00	BASE	0.00	178	M	M	-1.2	100	-1.2	3	0	985.4	NA	0.0000		9999	0	0	0	2360
2019/06/07 14:37:00	BASE	0.00	174	M	M	-1.2	100	-1.2	3	0	985.6	NA	0.0000		9999	0	0	0	2230
2019/06/07 14:38:00	BASE	0.00	174	M	M	-1.2	100	-1.2	3	0	985.6	NA	0.0000		9999	0	0	0	2130
2019/06/07 14:39:00	BASE	0.00	174	M	M	-1.3	100	-1.3	3	0	985.6	NA	0.0000		9999	0	0	0	790
2019/06/07 14:40:00	BASE	0.00	173	M	M	-1.3	100	-1.3	4	0	985.6	NA	0.0000		9999	0	0	0	720
2019/06/07 14:41:00	BASE	0.00	173	M	M	-1.3	100	-1.3	4	0	985.6	NA	0.0000		9999	330	0	0	0
2019/06/07 14:42:00	BASE	0.00	173	M	M	-1.3	100	-1.3	4	0	985.6	NA	0.0000		9999	0	0	0	690
2019/06/07 14:43:00	BASE	0.00	173	M	M	-1.3	100	-1.3	4	0	985.6	NA	0.0000		9999	0	0	0	660
2019/06/07 14:44:00	BASE	0.00	173	M	M	-1.3	100	-1.3	4	0	985.6	NA	0.0000		9999	0	0	0	690
2019/06/07 14:45:00	BASE	0.00	169	M	M	-1.3	100	-1.3	4	0	985.6	NA	0.0000		9999	300	0	0	0
2019/06/07 14:46:00	BASE	0.00	159	M	M	-1.3	100	-1.3	4	0	985.6	NA	0.0000		9999	330	0	0	0
2019/06/07 14:47:00	BASE	0.00	152	M	M	-1.3	100	-1.3	4	0	985.6	NA	0.0000		9999	300	0	0	0
2019/06/07 14:48:00	BASE	0.00	146	M	M	-1.3	100	-1.3	4	0	985.6	NA	0.0000		9999	300	0	0	0
2019/06/07 14:49:00	BASE	0.00	143	M	M	-1.3	100	-1.3	4	0	985.6	NA	0.0000		9999	300	0	0	0
2019/06/07 14:50:00	BASE	0.00	142	M	M	-1.3	100	-1.3	5	0	985.6	NA	0.0000		9999	330	0	0	0
2019/06/07 14:51:00	BASE	0.00	142	M	M	-1.2	100	-1.2	5	0	985.6	NA	0.0000		9999	300	0	0	0
2019/06/07 14:52:00	BASE	0.00	142	M	M	-1.2	100	-1.2	5	0	985.6	NA	0.0000		9999	300	0	0	0
2019/06/07 14:53:00	BASE	0.00	144	M	M	-1.2	100	-1.2	5	0	985.6	NA	0.0000		9999	300	0	0	0
2019/06/07 14:54:00	BASE	0.00	151	M	M	-1.1	100	-1.1	5	0	985.6	NA	0.0000		9999	300	0	0	0
2019/06/07 14:55:00	BASE	0.00	157	M	M	-1.1	100	-1.1	5	0	985.6	NA	0.0000		9999	300	0	0	0
2019/06/07 14:56:00	BASE	0.00	160	M	M	-1.1	100	-1.1	5	0	985.6	NA	0.0000		9999	300	0	0	0
2019/06/07 14:57:00	BASE	0.00	165	M	M	-1.1	100	-1.1	6	0	985.6	NA	0.0000		9999	300	0	0	0
2019/06/07 14:58:00	BASE	0.00	169	M	M	-1.1	100	-1.1	6	0	985.6	NA	0.0000		9999	300	0	0	0
2019/06/07 14:59:00	BASE	0.00	170	M	M	-1.1	100	-1.1	6	0	985.6	NA	0.0000		9999	260	0	0	0
2019/06/07 15:00:00	BASE	0.00	168	M	M	-1.2	100	-1.2	6	0	985.6	NA	0.0000		9999	300	0	0	0
2019/06/07 15:01:00	BASE	0.00	164	M	M	-1.2	100	-1.2	6	0	985.6	NA	0.0000		9999	300	0	0	0
2019/06/07 15:02:00	BASE	0.00	162	M	M	-1.2	100	-1.2	7	0	985.6	NA	0.0000	BR	9000	300	0	0	0
2019/06/07 15:03:00	BASE	0.00	155	M	M	-1.2	100	-1.2	7	0	985.6	NA	0.0000	BR	9000	260	0	0	0
2019/06/07 15:04:00	BASE	0.00	149	M	M	-1.2	100	-1.2	7	0	985.6	NA	0.0000	BR	9000	260	0	0	0
2019/06/07 15:05:00	BASE	0.00	149	M	M	-1.2	100	-1.2	7	0	985.6	NA	0.0000	BR	9000	260	0	0	0
2019/06/07 15:06:00	BASE	0.00	149	M	M	-1.2	100	-1.2	8	0	985.6	NA	0.0000	BR	8000	0	0	0	1280
2019/06/07 15:07:00	BASE	0.00	149	M	M	-1.2	100	-1.2	8	0	985.6	NA	0.0000	UP BR	8000	0	0	0	1440
2019/06/07 15:08:00	BASE	0.00	149	M	M	-1.2	100	-1.2	8	0	985.5	NA	0.0000	UP BR	9000	0	0	0	2030
2019/06/07 15:09:00	BASE	0.00	149	M	M	-1.2	100	-1.2	8	0	985.6	NA	0.0000	UP BR	8000	0	0	0	1870
2019/06/07 15:10:00	BASE	0.00	149	M	M	-1.1	100	-1.1	9	0	985.6	NA	0.0000	UP BR	8000	0	0	0	1670
2019/06/07 15:11:00	BASE	0.00	153	M	M	-1.1	100	-1.1	9	0	985.6	NA	0.0000	UP BR	6000	0	0	0	1250
2019/06/07 15:12:00	BASE	0.00	161	M	M	-1.0	100	-1.0	9	0	985.6	NA	0.0000	UP BR	6000	0	0	0	720
2019/06/07 15:13:00	BASE	0.00	174	M	M	-1.0	100	-1.0	9	0	985.6	NA	0.0000	UP BR	5000	0	0	0	720
2019/06/07 15:14:00	BASE	0.00	184	M	M	-1.0	100	-1.0	9	0	985.6	NA	0.0000	UP BR	5000	0	0	0	750
2019/06/07 15:15:00	BASE	0.00	204	M	M	-1.1	100	-1.1	9	0	985.6	NA	0.0000	UP BR	5000	0	0	0	720
2019/06/07 15:16:00	BASE	0.00	244	M	M	-1.0	100	-1.0	9	0	985.6	NA	0.0000	UP BR	5000	0	0	0	750
2019/06/07 15:17:00	BASE	0.00	302	M	M	-1.0	100	-1.0	9	0	985.6	NA	0.0000	UP BR	4900	0	0	0	720
2019/06/07 15:18:00	BASE	0.00	337	M	M	-1.0	100	-1.0	9	0	985.6	NA	0.0000	UP BR	4400	0	0	0	750
2019/06/07 15:19:00	BASE	0.00	337	M	M	-1.0	100	-1.0	9	0	985.6	NA	0.0000	UP BR	4600	0	0	0	820
2019/06/07 15:20:00	BASE	0.00	337	M	M	-1.0	100	-1.0	9	0	985.5	NA	0.0000	UP BR	5000	0	0	0	850
2019/06/07 15:21:00	BASE	0.00	337	M	M	-1.1	100	-1.1	9	0	985.4	NA	0.0000	UP BR	5000	0	0	0	850
2019/06/07 15:22:00	BASE	0.00	337	M	M	-1.1	100	-1.1	9	0	985.4	NA	0.0000	UP BR	5000	0	0	0	820
2019/06/07 15:23:00	BASE	0.00	337	M	M	-1.1	100	-1.1	9	0	985.4	NA	0.0000	UP BR	5000	0	0	0	820
2019/06/07 15:24:00	BASE	0.00	337	M	M	-1.1	100	-1.1	8	0	985.4	NA	0.0000	UP BR	7000	0	0	0	820
2019/06/07 15:25:00	BASE	0.00	337	M	M	-1.0	100	-1.0	8	0	985.4	NA	0.0000	UP BR	6000	0	0	0	850
2019/06/07 15:26:00	BASE	0.00	303	M	M	-1.0	100	-1.0	8	0	985.4	NA	0.0000	UP BR	5000	0	0	0	820
2019/06/07 15:27:00	BASE	0.00	263	M	M	-1.0	100	-1.0	8	0	985.4	NA	0.0000	UP BR	5000	0	0	0	850
2019/06/07 15:28:00	BASE	0.00	260	M	M	-1.0	100	-1.0	7	0	985.4	NA	0.0000	UP BR	5000	0	0	0	850
2019/06/07 15:29:00	BASE	0.00	258	M	M	-1.0	100	-1.0	7	0	985.4	NA	0.0000	UP BR	6000	0	0	0	850
2019/06/07 15:30:00	BASE	0.00	239	M	M	-1.0	100	-1.0	7	0	985.4	NA	0.0000	UP BR	6000	0	0	0	850
2019/06/07 15:31:00	BASE	0.00	211	M	M	-1.0	100	-1.0	7	0	985.4	NA	0.0000	UP BR	6000	0	0	0	820
2019/06/07 15:32:00	BASE	0.00	200	M	M	-1.1	100	-1.1	7	0	985.4	NA	0.0000	UP BR	6000	0	0	0	820
2019/06/07 15:33:00	BASE	0.00	194	M	M	-1.1	100	-1.1	6	0	985.4	NA	0.0000	UP BR	6000	0	0	0	750
2019/06/07 15:34:00	BASE	0.00	190	M	M	-1.1	100	-1.1	6	0	985.4	NA	0.0000	UP BR	6000	0	0	0	720
2019/06/07 15:35:00	BASE	0.00	188	M	M	-1.1	100	-1.1	6	0	985.4	NA	0.0000	UP BR	6000	0	0	0	720
2019/06/07 15:36:00	BASE	0.00	186	M	M	-1.1	100	-1.1	7	0	985.4	NA	0.0000	UP BR	6000	0	0	0	720
2019/06/07 15:37:00	BASE	0.00	184	M	M	-1.1	100	-1.1	7	0	985.4	NA	0.0000	UP BR	6000	0	0	0	690
2019/06/07 15:38:00	BASE	0.00	185	M	M	-1.1	100	-1.1	7	0	985.3	NA	0.2540	UP BR	6000	0	0	0	720
2019/06/07 15:39:00	BASE	0.00	185	M	M	-1.1	100	-1.1	7	0	985.3	NA	0.0000	UP BR	6000	0	0	0	720
2019/06/07 15:40:00	BASE	0.00	185	M	M	-1.1	100	-1.1	7	0	985.3	NA	0.0000	UP BR	5000	0	0	0	750
2019/06/07 15:41:00	BASE	0.00	185	M	M	-1.1	100	-1.1	7	0	985.3	NA	0.0000	UP BR	5000	0	0	0	720
2019/06/07 15:42:00	BASE	0.00	184	M	M	-1.1	100	-1.1	8	0	985.3	NA	0.0000	UP BR	4800	0	0	0	720
2019/06/07 15:43:00	BASE	0.00	183	M	M	-1.1	100	-1.1	8	0	985.3	NA	0.0000	UP BR	4600	0	0	0	750
2019/06/07 15:44:00	BASE	0.00	179	M	M	-1.1	100	-1.1	8	0	985.3	NA	0.0000	UP BR	5000	0	0	0	820
2019/06/07 15:45:00	BASE	0.00	173	M	M	-1.1	100	-1.1	8	0	985.3	NA	0.0000	UP BR	6000	0	0	0	1050
2019/06/07 15:46:00	BASE	0.00	166	M	M	-1.2	100	-1.2	8	0	985.3	NA	0.0000	UP BR	6000	0	0	0	1020
2019/06/07 15:47:00	BASE	0.00	161	M	M	-1.2	100	-1.2	8	0	985.3	NA	0.0000	UP BR	6000	0	0	0	920
2019/06/07 15:48:00	BASE	0.00	153	M	M	-1.2	100	-1.2	8	0	985.3	NA	0.0000	UP BR	6000	0	0	0	890
2019/06/07 15:49:00	BASE	0.00	143	M	M	-1.2	100	-1.2	8	0	985.3	NA	0.0000	UP BR	6000	0	0	0	850
2019/06/07 15:50:00	BASE	0.00	141	M	M	-1.2	100	-1.2	8	0	985.3	NA	0.0000	UP BR	6000	0	0	0	890
2019/06/07 15:51:00	BASE	0.00	141	M	M	-1.2	100	-1.2	8	0	985.3	NA	0.0000	UP BR	6000	0	0	0	890
2019/06/07 15:52:00	BASE	0.00	141	M	M	-1.1	100	-1.1	9	0	985.1	NA	0.0000	UP BR	6000	0	0	0	890
2019/06/07 15:53:00	BASE	0.00	141	M	M	-1.1	100	-1.1	9	0	985.1	NA	0.0000	UP BR	6000	0	0	0	820
2019/06/07 15:54:00	BASE	0.00	141	M	M	-1.1	100	-1.1	9	0	985.3	NA	0.0000	UP BR	6000	0	0	0	790
2019/06/07 15:55:00	BASE	0.00	141	M	M	-1.1	100	-1.1	9	0	985.3	NA	0.0000	UP BR	6000	0	0	0	820
2019/06/07 15:56:00	BASE	0.00	136	M	M	-1.0	100	-1.0	9	0	985.3	NA	0.0000	UP BR	6000	0	0	0	820
2019/06/07 15:57:00	BASE	0.00	129	M	M	-1.0	100	-1.0	9	0	985.3	NA	0.0000	BR	6000	0	0	0	820
2019/06/07 15:58:00	BASE	0.00	125	M	M	-1.0	100	-1.0	9	0	985.3	NA	0.0000	BR	6000	0	0	0	790
2019/06/07 15:59:00	BASE	0.00	124	M	M	-1.0	100	-1.0	9	0	985.3	NA	0.0000	BR	6000	0	0	0	790
2019/06/07 16:00:00	BASE	0.00	123	M	M	-1.0	100	-1.0	10	0	985.3	NA	0.0000	BR	6000	0	0	0	790
2019/06/07 16:01:00	BASE	0.00	114	M	M	-1.0	100	-1.0	10	0	985.3	NA	0.0000	BR	5000	0	0	0	820
2019/06/07 16:02:00	BASE	0.00	72	M	M	-1.0	100	-1.0	10	0	985.3	NA	0.0000	BR	5000	0	0	0	820
2019/06/07 16:03:00	BASE	0.00	40	M	M	-0.9	100	-0.9	10	0	985.3	NA	0.0000	BR	5000	2360	0	0	0
2019/06/07 16:04:00	BASE	0.00	30	M	M	-0.9	100	-0.9	9	0	985.3	NA	0.0000	BR	5000	0	0	0	820
2019/06/07 16:05:00	BASE	0.00	26	M	M	-0.9	100	-0.9	9	0	985.3	NA	0.0000	BR	5000	0	0	0	850
2019/06/07 16:06:00	BASE	0.00	26	M	M	-0.9	100	-0.9	8	0	985.3	NA	0.0000	BR	5000	0	0	0	2400
2019/06/07 16:07:00	BASE	0.00	26	M	M	-0.9	100	-0.9	8	0	985.3	NA	0.0000	BR	5000	0	0	0	2430
2019/06/07 16:08:00	BASE	0.00	26	M	M	-0.9	100	-0.9	8	0	985.3	NA	0.0000	BR	8000	0	0	0	2400
2019/06/07 16:09:00	BASE	0.00	26	M	M	-0.9	100	-0.9	7	0	985.3	NA	0.0000	BR	9999	0	0	0	1800
2019/06/07 16:10:00	BASE	0.00	26	M	M	-0.9	100	-0.9	7	0	985.3	NA	0.0000	BR	9999	0	0	0	1710
2019/06/07 16:11:00	BASE	0.00	26	M	M	-0.9	100	-0.9	7	0	984.9	NA	0.0000	BR	9999	0	0	0	1510
2019/06/07 16:12:00	BASE	0.00	26	M	M	-0.9	100	-0.9	7	0	985.3	NA	0.0000	BR	9999	0	0	0	1350
2019/06/07 16:13:00	BASE	0.00	26	M	M	-0.9	100	-0.9	7	0	985.3	NA	0.0000	BR	9999	0	0	0	1280
2019/06/07 16:14:00	BASE	0.00	26	M	M	-0.9	100	-0.9	6	0	985.3	NA	0.0000	BR	9999	0	0	0	1210
2019/06/07 16:15:00	BASE	0.00	26	M	M	-0.9	100	-0.9	6	0	985.3	NA	0.0000		9999	0	0	0	1080
2019/06/07 16:16:00	BASE	0.00	26	M	M	-0.9	100	-0.9	6	0	985.3	NA	0.0000		9999	0	0	0	920
2019/06/07 16:17:00	BASE	0.00	26	M	M	-0.9	100	-0.9	6	0	985.3	NA	0.0000	UP	9000	0	0	0	750
2019/06/07 16:18:00	BASE	0.00	26	M	M	-0.9	100	-0.9	6	0	985.3	NA	0.0000	UP	9999	0	0	0	690
2019/06/07 16:19:00	BASE	0.00	26	M	M	-0.9	100	-0.9	5	0	985.2	NA	0.0000	UP	9999	0	0	0	690
2019/06/07 16:20:00	BASE	0.00	26	M	M	-0.9	100	-0.9	5	0	985.3	NA	0.0000	UP	9999	0	0	0	750
2019/06/07 16:21:00	BASE	0.00	47	M	M	-1.0	100	-1.0	5	0	985.2	NA	0.0000	UP	9999	0	0	0	750
2019/06/07 16:22:00	BASE	0.00	89	M	M	-1.0	100	-1.0	5	0	985.2	NA	0.0000	UP	9999	0	0	0	690
2019/06/07 16:23:00	BASE	0.00	101	M	M	-1.0	100	-1.0	5	0	985.2	NA	0.0000	UP	9999	0	0	0	690
2019/06/07 16:24:00	BASE	0.00	101	M	M	-1.0	100	-1.0	5	0	985.2	NA	0.0000	UP	9999	4040	0	0	0
2019/06/07 16:25:00	BASE	0.00	101	M	M	-1.0	100	-1.0	5	0	985.2	NA	0.0000	UP	9999	0	0	0	1900
2019/06/07 16:26:00	BASE	0.00	101	M	M	-1.0	100	-1.0	5	0	985.2	NA	0.0000	UP	9999	0	0	0	1970
2019/06/07 16:27:00	BASE	0.00	101	M	M	-1.0	100	-1.0	5	0	985.2	NA	0.0000		9999	3940	0	0	0
2019/06/07 16:28:00	BASE	0.00	100	M	M	-1.0	100	-1.0	5	0	985.2	NA	0.0000		9999	3870	0	0	0
2019/06/07 16:29:00	BASE	0.00	72	M	M	-1.0	100	-1.0	6	0	985.2	NA	0.0000		9999	0	0	0	920
2019/06/07 16:30:00	BASE	0.00	37	M	M	-1.0	100	-1.0	6	0	985.1	NA	0.0000		9999	3840	0	0	0
2019/06/07 16:31:00	BASE	0.00	29	M	M	-1.0	100	-1.0	6	0	985.1	NA	0.0000		9999	0	0	0	850
2019/06/07 16:32:00	BASE	0.00	29	M	M	-1.1	100	-1.1	6	0	985.1	NA	0.0000		9999	0	0	0	1020
2019/06/07 16:33:00	BASE	0.00	29	M	M	-1.1	100	-1.1	5	0	985.1	NA	0.0000		9999	0	0	0	790
2019/06/07 16:34:00	BASE	0.00	29	M	M	-1.1	100	-1.1	5	0	985.1	NA	0.0000		9999	0	0	0	790
2019/06/07 16:35:00	BASE	0.00	29	M	M	-1.1	100	-1.1	5	0	985.1	NA	0.0000		9999	0	0	0	750
2019/06/07 16:36:00	BASE	0.00	58	M	M	-1.1	100	-1.1	5	0	985.0	NA	0.0000		9999	3740	0	0	0
2019/06/07 16:37:00	BASE	0.00	104	M	M	-1.0	100	-1.0	4	0	985.1	NA	0.0000		9999	3710	0	0	0
2019/06/07 16:38:00	BASE	0.00	116	M	M	-1.0	100	-1.0	4	0	985.1	NA	0.0000		9999	0	0	0	920
2019/06/07 16:39:00	BASE	0.08	115	1.90	6	-1.0	100	-1.0	4	0	985.1	NA	0.0000		9999	0	0	0	820
2019/06/07 16:40:00	BASE	0.08	123	1.90	6	-1.0	100	-1.0	4	0	985.1	NA	0.0000		9999	0	0	0	820
2019/06/07 16:41:00	BASE	0.00	130	1.90	6	-1.0	100	-1.0	4	0	985.1	NA	0.0000		9999	3610	0	0	0
2019/06/07 16:42:00	BASE	0.00	133	1.90	6	-1.0	100	-1.0	4	0	985.0	NA	0.0000		9999	3640	0	0	0
2019/06/07 16:43:00	BASE	0.00	141	1.90	6	-1.0	100	-1.0	4	0	985.1	NA	0.0000	UP	9999	3670	0	0	0
2019/06/07 16:44:00	BASE	0.00	147	1.90	6	-1.0	100	-1.0	4	0	985.1	NA	0.0000	UP	9999	3710	0	0	0
2019/06/07 16:45:00	BASE	0.00	150	1.90	6	-1.1	100	-1.1	4	0	985.1	NA	0.0000	UP	9000	0	0	0	820
2019/06/07 16:46:00	BASE	0.23	158	1.90	6	-1.1	100	-1.1	4	0	985.0	NA	0.0000	UP	9999	3670	0	0	0
2019/06/07 16:47:00	BASE	0.97	167	1.90	6	-1.2	100	-1.2	4	0	985.0	NA	0.0000	UP	9999	3710	0	0	0
2019/06/07 16:48:00	BASE	1.44	170	1.90	6	-1.2	100	-1.2	4	0	985.0	NA	0.0000	UP	9999	3610	0	0	0
2019/06/07 16:49:00	BASE	1.39	166	1.59	170	-1.2	100	-1.2	4	0	985.0	NA	0.0000	UP	9999	0	0	0	4070
2019/06/07 16:50:00	BASE	1.44	156	1.75	144	-1.2	100	-1.2	4	0	984.9	NA	0.0000	UP	9999	3540	0	0	0
2019/06/07 16:51:00	BASE	1.65	150	1.90	151	-1.2	100	-1.2	4	0	984.9	NA	0.0000	UP BR	9999	3480	0	0	0
2019/06/07 16:52:00	BASE	1.81	150	2.01	150	-1.2	100	-1.2	3	0	984.9	NA	0.0000	UP BR	9999	3380	0	0	0
2019/06/07 16:53:00	BASE	1.97	151	2.31	153	-1.2	100	-1.2	3	0	984.9	NA	0.0000	UP BR	9999	3350	0	0	0
2019/06/07 16:54:00	BASE	2.24	152	2.52	152	-1.2	100	-1.2	3	0	984.9	NA	0.0000	UP BR	9000	3480	0	0	0
2019/06/07 16:55:00	BASE	2.42	152	2.52	152	-1.2	100	-1.2	3	0	984.8	NA	0.0000	UP BR	8000	3480	0	0	0
2019/06/07 16:56:00	BASE	2.42	153	2.52	152	-1.2	100	-1.2	3	0	984.8	NA	0.0000	UP BR	8000	3250	0	0	0
2019/06/07 16:57:00	BASE	2.50	154	2.78	152	-1.2	100	-1.2	3	0	984.8	NA	0.0000	UP BR	9000	3220	0	0	0
2019/06/07 16:58:00	BASE	2.64	153	2.83	150	-1.2	100	-1.2	3	0	984.8	NA	0.0000	UP BR	9000	3380	0	0	0
2019/06/07 16:59:00	BASE	2.75	151	3.09	147	-1.2	100	-1.2	3	0	984.8	NA	0.0000	UP BR	8000	3310	0	0	0
2019/06/07 17:00:00	BASE	3.04	150	3.50	150	-1.1	100	-1.1	3	0	984.8	NA	0.0000	UP BR	9000	3310	0	0	0
2019/06/07 17:01:00	BASE	3.41	150	3.65	152	-1.1	100	-1.1	3	0	984.8	NA	0.0000	UP BR	9999	0	0	0	4070
2019/06/07 17:02:00	BASE	3.64	151	3.91	155	-1.1	100	-1.1	3	0	984.8	NA	0.0000	UP BR	9999	3310	0	0	0
2019/06/07 17:03:00	BASE	3.71	153	3.91	155	-1.1	100	-1.1	3	0	984.8	NA	0.0000	UP BR	8000	3940	0	0	0
2019/06/07 17:04:00	BASE	3.54	152	3.91	155	-1.1	100	-1.1	3	0	984.8	NA	0.0000	UP BR	8000	0	0	0	3350
2019/06/07 17:05:00	BASE	3.12	149	3.91	155	-1.1	100	-1.1	3	0	984.8	NA	0.0000	UP BR	9999	3310	0	0	0
2019/06/07 17:06:00	BASE	2.61	148	3.91	155	-1.1	100	-1.1	3	0	984.8	NA	0.0000	UP BR	9999	3280	0	0	0
2019/06/07 17:07:00	BASE	2.42	147	3.91	155	-1.1	100	-1.1	3	0	984.8	NA	0.0000	UP BR	9999	0	0	0	3810
2019/06/07 17:08:00	BASE	2.34	144	3.91	155	-1.1	100	-1.1	3	0	984.8	NA	0.0000	UP BR	9999	0	0	0	3940
2019/06/07 17:09:00	BASE	2.33	139	3.91	155	-1.1	100	-1.1	3	0	984.8	NA	0.0000	UP	9999	0	0	0	3250
2019/06/07 17:10:00	BASE	2.29	132	3.91	155	-1.1	100	-1.1	3	0	984.8	NA	0.0000	UP	9999	0	0	0	4000
2019/06/07 17:11:00	BASE	2.10	125	3.91	155	-1.0	100	-1.0	3	0	984.8	NA	0.0000	UP	9999	0	0	0	4270
2019/06/07 17:12:00	BASE	1.97	123	3.76	157	-1.0	100	-1.0	3	0	984.8	NA	0.0000	UP	9999	0	0	0	3740
2019/06/07 17:13:00	BASE	1.66	115	3.60	153	-1.0	100	-1.0	3	0	984.8	NA	0.0000	UP	9999	0	0	0	3810
2019/06/07 17:14:00	BASE	1.62	109	3.19	152	-1.0	100	-1.0	3	0	984.8	NA	0.0000	UP	9999	490	0	0	0
2019/06/07 17:15:00	BASE	1.54	112	2.83	149	-1.0	100	-1.0	3	0	984.8	NA	0.0000	UP	9999	490	0	0	0
2019/06/07 17:16:00	BASE	0.74	115	2.83	149	-1.0	100	-1.0	3	0	984.8	NA	0.0000	UP	9999	490	0	0	0
2019/06/07 17:17:00	BASE	0.18	95	2.78	132	-1.0	100	-1.0	3	0	984.8	NA	0.0000	UP	9000	430	0	0	0
2019/06/07 17:18:00	BASE	0.22	88	2.78	132	-1.0	100	-1.0	3	0	984.8	NA	0.0000	UP	9999	330	3280	0	0
2019/06/07 17:19:00	BASE	0.69	103	2.62	126	-1.0	100	-1.0	3	0	984.8	NA	0.0000	UP	6000	330	0	0	0
2019/06/07 17:20:00	BASE	1.37	103	2.31	121	-1.1	100	-1.1	2	0	984.8	NA	0.0000	UP BR	7000	430	3310	0	0
2019/06/07 17:21:00	BASE	1.95	98	2.83	86	-1.1	100	-1.1	2	0	984.8	NA	0.0000	-SN BR	7000	430	3280	0	0
2019/06/07 17:22:00	BASE	2.55	93	2.88	97	-1.2	100	-1.2	2	0	984.8	NA	0.0000	-SN BR	7000	430	3280	0	0
2019/06/07 17:23:00	BASE	2.87	96	3.09	101	-1.2	100	-1.2	2	0	984.8	NA	0.0000	-SN BR	7000	430	3220	0	0
2019/06/07 17:24:00	BASE	2.95	98	3.09	100	-1.2	100	-1.2	2	0	984.8	NA	0.0000	-SN BR	8000	430	3180	0	0
2019/06/07 17:25:00	BASE	3.04	97	3.24	94	-1.2	100	-1.2	2	0	984.8	NA	0.0000	-SN BR	9999	3150	0	0	0
2019/06/07 17:26:00	BASE	3.19	94	3.34	93	-1.2	100	-1.2	2	0	984.8	NA	0.0000	-SN BR	9999	430	3180	0	0
2019/06/07 17:27:00	BASE	3.18	94	3.34	93	-1.2	100	-1.2	2	0	984.8	NA	0.0000	-SN BR	9999	430	3220	0	0
2019/06/07 17:28:00	BASE	3.09	95	3.34	93	-1.2	100	-1.2	2	0	984.8	NA	0.0000	-SN BR	9999	2850	0	0	0
2019/06/07 17:29:00	BASE	3.09	99	3.34	93	-1.2	100	-1.2	2	0	984.8	NA	0.0000	-SN BR	9999	3180	0	0	0
2019/06/07 17:30:00	BASE	3.09	106	3.34	93	-1.2	100	-1.2	2	0	984.8	NA	0.0000	-SN BR	9999	3180	0	0	0
2019/06/07 17:31:00	BASE	3.28	108	3.65	107	-1.2	100	-1.2	2	0	984.8	NA	0.0000	-SN BR	9999	2590	0	0	0
2019/06/07 17:32:00	BASE	3.40	109	3.65	107	-1.2	100	-1.2	2	0	984.8	NA	0.0000	-SN	9999	2590	0	0	0
2019/06/07 17:33:00	BASE	3.40	114	3.65	107	-1.2	100	-1.2	2	0	984.8	NA	0.0000	-SN	9999	2530	0	0	0
2019/06/07 17:34:00	BASE	3.44	119	3.65	107	-1.2	100	-1.2	2	0	984.8	NA	0.0000	-SN	9999	2850	0	0	0
2019/06/07 17:35:00	BASE	3.42	121	3.65	107	-1.2	100	-1.2	2	0	984.7	NA	0.0000	-SN	9999	2590	0	0	0
2019/06/07 17:36:00	BASE	3.37	120	3.65	107	-1.2	100	-1.2	2	0	984.7	NA	0.0000	-SN	9999	2530	3180	0	0
2019/06/07 17:37:00	BASE	3.40	119	3.65	107	-1.1	100	-1.1	2	0	984.8	NA	0.0000	-SN	9999	3150	0	0	0
2019/06/07 17:38:00	BASE	3.37	119	3.65	107	-1.0	100	-1.0	2	0	984.8	NA	0.0000	-SN	9000	490	3220	0	0
2019/06/07 17:39:00	BASE	3.31	121	3.65	107	-1.0	100	-1.0	2	0	984.8	NA	0.0000	-SN	8000	460	3220	0	0
2019/06/07 17:40:00	BASE	3.19	122	3.65	107	-0.9	100	-0.9	2	0	984.8	NA	0.0000	-SN	9000	490	0	0	0
2019/06/07 17:41:00	BASE	2.95	119	3.65	107	-0.8	100	-0.8	2	0	984.8	NA	0.0000	-SN	9000	520	0	0	0
2019/06/07 17:42:00	BASE	2.60	118	3.60	126	-0.8	100	-0.8	2	0	984.8	NA	0.0000	-SN	9999	490	0	0	0
2019/06/07 17:43:00	BASE	2.26	118	3.60	126	-0.8	100	-0.8	2	0	984.8	NA	0.0000	-SN	9999	520	3150	0	0
2019/06/07 17:44:00	BASE	2.03	117	3.60	126	-0.8	100	-0.8	2	0	984.8	NA	0.0000	-SN	9999	430	0	0	0
2019/06/07 17:45:00	BASE	1.44	113	3.60	126	-0.8	100	-0.8	2	0	984.8	NA	0.0000	-SN	9999	390	0	0	0
2019/06/07 17:46:00	BASE	0.48	108	3.60	126	-0.8	100	-0.8	2	0	984.8	NA	0.0000	-SN	9999	390	0	0	0
2019/06/07 17:47:00	BASE	0.00	104	3.60	126	-0.8	100	-0.8	2	0	984.8	NA	0.0000	-SN	9999	360	0	0	0
2019/06/07 17:48:00	BASE	0.00	99	3.60	126	-0.8	100	-0.8	2	0	984.8	NA	0.0000	-SN	9999	330	0	0	0
2019/06/07 17:49:00	BASE	0.00	90	3.45	119	-0.8	100	-0.8	2	0	984.8	NA	0.0000	-SN	9999	260	0	0	0
2019/06/07 17:50:00	BASE	0.00	92	3.09	124	-0.7	100	-0.7	2	0	984.8	NA	0.0000	-SN	9999	0	0	0	980
2019/06/07 17:51:00	BASE	0.00	104	2.73	118	-0.7	100	-0.7	2	0	984.8	NA	0.0000	-SN	9999	0	0	0	980
2019/06/07 17:52:00	BASE	0.00	114	2.31	125	-0.7	100	-0.7	2	0	984.7	NA	0.0000	-SN	9999	0	0	0	890
2019/06/07 17:53:00	BASE	0.35	115	2.11	116	-0.7	100	-0.7	2	0	984.8	NA	0.0000	-SN	9999	0	0	0	890
2019/06/07 17:54:00	BASE	0.40	112	1.80	122	-0.7	100	-0.7	2	0	984.8	NA	0.0000	-SN	9999	0	0	0	920
2019/06/07 17:55:00	BASE	0.13	116	1.49	112	-0.7	100	-0.7	2	0	984.8	NA	0.0000	-SN	9999	0	0	0	980
2019/06/07 17:56:00	BASE	0.09	120	1.49	112	-0.7	100	-0.7	2	0	984.8	NA	0.0000	-SN	9999	0	0	0	850
2019/06/07 17:57:00	BASE	0.00	105	1.49	112	-0.7	100	-0.7	2	0	984.8	NA	0.0000	-SN	9999	0	0	0	890
2019/06/07 17:58:00	BASE	0.00	59	1.49	112	-0.7	100	-0.7	2	0	984.8	NA	0.0000	-SN	9999	0	0	0	890
2019/06/07 17:59:00	BASE	0.89	359	2.78	308	-0.8	100	-0.8	2	0	984.8	NA	0.0000	-SN	9999	0	0	0	890
2019/06/07 18:00:00	BASE	1.45	326	2.78	308	-0.8	100	-0.8	2	0	984.8	NA	0.0000	-SN	9999	330	0	0	0
2019/06/07 18:01:00	BASE	0.85	334	2.78	308	-0.9	100	-0.9	2	0	984.8	NA	0.0000		9999	330	0	0	0
2019/06/07 18:02:00	BASE	1.61	345	3.24	345	-1.0	100	-1.0	2	0	984.8	NA	0.0000		9999	330	0	0	0
2019/06/07 18:03:00	BASE	2.71	341	3.24	345	-1.1	100	-1.1	2	0	984.8	NA	0.0000		9999	260	0	0	0
2019/06/07 18:04:00	BASE	2.65	342	3.24	345	-1.2	100	-1.2	2	0	984.8	NA	0.0000		9999	0	0	0	750
2019/06/07 18:05:00	BASE	2.20	348	3.24	345	-1.2	100	-1.2	2	0	984.8	NA	0.0000		9999	0	0	0	790
2019/06/07 18:06:00	BASE	1.59	349	3.24	345	-1.2	100	-1.2	2	0	984.8	NA	0.0000		9999	300	0	0	0
2019/06/07 18:07:00	BASE	1.17	341	3.24	345	-1.2	100	-1.2	2	0	984.8	NA	0.0000		9999	0	0	0	850
2019/06/07 18:08:00	BASE	1.17	335	3.24	345	-1.2	100	-1.2	2	0	984.8	NA	0.0000		9999	0	0	0	890
2019/06/07 18:09:00	BASE	1.39	327	3.24	345	-1.2	100	-1.2	2	0	984.8	NA	0.0000		9999	260	0	0	0
2019/06/07 18:10:00	BASE	1.61	326	3.24	345	-1.2	100	-1.2	2	0	984.8	NA	0.0000		9999	0	0	0	890
2019/06/07 18:11:00	BASE	2.11	331	3.24	345	-1.2	100	-1.2	2	0	984.8	NA	0.0000		9999	0	0	0	890
2019/06/07 18:12:00	BASE	2.45	335	2.93	337	-1.2	100	-1.2	2	0	984.8	NA	0.0000		9999	0	0	0	850
2019/06/07 18:13:00	BASE	2.30	336	2.83	335	-1.2	100	-1.2	2	0	984.8	NA	0.0000		9999	0	0	0	820
2019/06/07 18:14:00	BASE	2.24	333	2.83	335	-1.2	100	-1.2	2	0	984.8	NA	0.0000		9999	0	0	0	1050
2019/06/07 18:15:00	BASE	2.29	325	2.83	335	-1.2	100	-1.2	2	0	984.8	NA	0.0000		9999	0	0	0	1250
2019/06/07 18:16:00	BASE	2.23	322	2.98	330	-1.2	100	-1.2	1	0	984.8	NA	0.0000		9999	0	0	0	3840
2019/06/07 18:17:00	BASE	2.39	324	2.98	330	-1.2	100	-1.2	1	0	984.8	NA	0.0000		9999	0	0	0	820
2019/06/07 18:18:00	BASE	2.76	323	3.45	319	-1.2	100	-1.2	1	0	984.8	NA	0.0000		9999	0	0	0	850
2019/06/07 18:19:00	BASE	3.23	321	3.91	324	-1.3	100	-1.3	1	0	984.7	NA	0.0000		9999	0	0	0	720
2019/06/07 18:20:00	BASE	3.54	321	3.91	323	-1.3	100	-1.3	1	0	984.6	NA	0.0000		9999	0	0	0	720
2019/06/07 18:21:00	BASE	3.37	319	3.91	323	-1.3	100	-1.3	1	0	984.8	NA	0.0000		9999	0	0	0	750
2019/06/07 18:22:00	BASE	3.12	319	3.91	323	-1.3	100	-1.3	1	0	984.8	NA	0.0000		9999	0	0	0	2660
2019/06/07 18:23:00	BASE	3.01	322	3.91	323	-1.3	100	-1.3	1	0	984.8	NA	0.0000		9999	0	0	0	2620
2019/06/07 18:24:00	BASE	3.08	326	3.91	323	-1.3	100	-1.3	1	0	984.8	NA	0.0000		9999	0	0	0	1020
2019/06/07 18:25:00	BASE	3.18	329	3.91	323	-1.3	100	-1.3	1	0	984.7	NA	0.0000		9999	0	0	0	1540
2019/06/07 18:26:00	BASE	2.80	324	3.91	323	-1.3	100	-1.3	1	0	984.6	NA	0.0000		9999	0	0	0	2660
2019/06/07 18:27:00	BASE	2.28	315	3.91	323	-1.3	100	-1.3	1	0	984.8	NA	0.0000		9999	0	0	0	2790
2019/06/07 18:28:00	BASE	2.22	309	3.91	323	-1.4	100	-1.4	1	0	984.7	NA	0.0000	BR	7000	0	0	0	2000
2019/06/07 18:29:00	BASE	2.46	309	3.91	323	-1.4	100	-1.4	1	0	984.7	NA	0.0000	UP BR	5000	0	0	0	1770
2019/06/07 18:30:00	BASE	2.72	309	3.40	329	-1.4	100	-1.4	1	0	984.7	NA	0.0000	UP BR	5000	0	0	0	2400
2019/06/07 18:31:00	BASE	2.75	308	3.40	329	-1.4	100	-1.4	1	0	984.7	NA	0.0000	UP BR	5000	0	0	0	2300
2019/06/07 18:32:00	BASE	2.60	312	3.40	329	-1.4	100	-1.4	1	0	984.7	NA	0.0000	UP BR	5000	0	0	0	3080
2019/06/07 18:33:00	BASE	2.58	314	3.40	329	-1.4	100	-1.4	1	0	984.7	NA	0.0000	UP BR	4500	0	0	0	2950
2019/06/07 18:34:00	BASE	2.58	315	3.40	329	-1.4	100	-1.4	1	0	984.7	NA	0.0000	UP BR	3700	0	0	0	2230
2019/06/07 18:35:00	BASE	2.44	316	2.98	306	-1.4	100	-1.4	1	0	984.7	NA	0.0000	UP BR	3700	0	0	0	2030
2019/06/07 18:36:00	BASE	2.26	318	2.98	306	-1.4	100	-1.4	1	0	984.7	NA	0.0000	UP BR	3700	390	0	0	0
2019/06/07 18:37:00	BASE	2.06	317	2.98	306	-1.4	100	-1.4	1	0	984.6	NA	0.0000	UP BR	3700	430	0	0	0
2019/06/07 18:38:00	BASE	1.81	317	2.98	306	-1.4	100	-1.4	1	0	984.7	NA	0.0000	UP BR	4400	360	0	0	0
2019/06/07 18:39:00	BASE	1.74	318	2.98	306	-1.3	100	-1.3	1	0	984.7	NA	0.0000	UP BR	5000	430	0	0	0
2019/06/07 18:40:00	BASE	1.89	319	2.88	310	-1.3	100	-1.3	1	0	984.7	NA	0.0000	UP BR	5000	0	0	0	720
2019/06/07 18:41:00	BASE	1.92	318	2.73	314	-1.3	100	-1.3	1	0	984.7	NA	0.0000	UP BR	5000	0	0	0	660
2019/06/07 18:42:00	BASE	1.91	321	2.73	314	-1.3	100	-1.3	1	0	984.7	NA	0.0000	UP BR	5000	0	0	0	690
2019/06/07 18:43:00	BASE	1.74	323	2.57	314	-1.4	100	-1.4	0	0	984.7	NA	0.0000	UP BR	5000	0	0	0	920
2019/06/07 18:44:00	BASE	1.39	323	2.42	318	-1.4	100	-1.4	0	0	984.7	NA	0.0000	UP BR	5000	0	0	0	750
2019/06/07 18:45:00	BASE	1.06	324	2.26	318	-1.4	100	-1.4	0	0	984.7	NA	0.0000	UP BR	5000	0	0	0	850
2019/06/07 18:46:00	BASE	0.91	325	2.11	325	-1.4	100	-1.4	0	0	984.7	NA	0.0000	UP BR	5000	0	0	0	1020
2019/06/07 18:47:00	BASE	0.87	332	2.11	325	-1.4	100	-1.4	0	0	984.7	NA	0.0000	UP BR	5000	0	0	0	850
2019/06/07 18:48:00	BASE	1.04	344	2.11	325	-1.4	100	-1.4	0	0	984.7	NA	0.0000	UP BR	4700	0	0	0	850
2019/06/07 18:49:00	BASE	1.30	352	2.11	325	-1.4	100	-1.4	0	0	984.7	NA	0.0000	UP BR	4300	0	0	0	750
2019/06/07 18:50:00	BASE	1.34	356	2.11	325	-1.4	100	-1.4	0	0	984.7	NA	0.0000	UP BR	3600	0	0	0	920
2019/06/07 18:51:00	BASE	1.25	359	2.11	325	-1.4	100	-1.4	0	0	984.7	NA	0.0000	UP BR	3800	0	0	0	790
2019/06/07 18:52:00	BASE	0.62	1	1.65	322	-1.4	100	-1.4	0	0	984.7	NA	0.0000	UP BR	7000	0	0	0	1970
2019/06/07 18:53:00	BASE	0.05	8	1.44	1	-1.4	100	-1.4	0	0	984.6	NA	0.0000	UP BR	8000	0	0	0	1120
2019/06/07 18:54:00	BASE	0.05	15	1.44	1	-1.4	100	-1.4	0	0	984.6	NA	0.0000	UP BR	6000	0	0	0	2760
2019/06/07 18:55:00	BASE	0.05	8	1.44	1	-1.4	100	-1.4	0	0	984.6	NA	0.0000	UP BR	4800	0	0	0	2820
2019/06/07 18:56:00	BASE	0.04	356	1.44	1	-1.4	100	-1.4	0	0	984.6	NA	0.0000	-SN BR	5000	0	0	0	2590
2019/06/07 18:57:00	BASE	0.04	349	1.44	1	-1.4	100	-1.4	0	0	984.6	NA	0.0000	-SN BR	5000	0	0	0	2560
2019/06/07 18:58:00	BASE	0.00	348	1.44	1	-1.3	100	-1.3	0	0	984.6	NA	0.0000	-SN BR	6000	0	0	0	2590
2019/06/07 18:59:00	BASE	0.00	345	1.44	1	-1.3	100	-1.3	0	0	984.6	NA	0.0000	-SN BR	5000	0	0	0	2430
2019/06/07 19:00:00	BASE	0.00	344	1.23	360	-1.3	100	-1.3	0	0	984.6	NA	0.0000	-SN BR	6000	0	0	0	2490
2019/06/07 19:01:00	BASE	0.00	354	1.08	15	-1.3	100	-1.3	0	0	984.6	NA	0.0000	-SN BR	6000	0	0	0	2430
2019/06/07 19:02:00	BASE	0.00	24	1.08	15	-1.3	100	-1.3	0	0	984.5	NA	0.0000	-SN BR	5000	0	0	0	1970
2019/06/07 19:03:00	BASE	0.00	45	1.08	15	-1.3	100	-1.3	0	0	984.5	NA	0.0000	-SN BR	6000	0	0	0	1900
2019/06/07 19:04:00	BASE	0.00	49	1.03	350	-1.3	100	-1.3	0	0	984.5	NA	0.0000	-SN BR	7000	0	0	0	2460
2019/06/07 19:05:00	BASE	0.00	45	1.03	350	-1.3	100	-1.3	0	0	984.5	NA	0.0000	-SN BR	6000	0	0	0	2360
2019/06/07 19:06:00	BASE	0.00	37	M	M	-1.3	100	-1.3	0	0	984.5	NA	0.0000	-SN BR	5000	0	0	0	850
2019/06/07 19:07:00	BASE	0.00	34	M	M	-1.3	100	-1.3	0	0	984.5	NA	0.0000	-SN BR	5000	0	0	0	590
2019/06/07 19:08:00	BASE	0.00	35	M	M	-1.3	100	-1.3	0	0	984.5	NA	0.0000	-SN BR	5000	0	0	0	560
2019/06/07 19:09:00	BASE	0.00	34	M	M	-1.3	100	-1.3	0	0	984.5	NA	0.0000	-SN BR	5000	0	0	0	590
2019/06/07 19:10:00	BASE	0.00	34	M	M	-1.2	100	-1.2	0	0	984.5	NA	0.0000	-SN BR	5000	0	0	0	560
2019/06/07 19:11:00	BASE	0.00	34	M	M	-1.2	100	-1.2	0	0	984.5	NA	0.0000	-SN BR	5000	0	0	0	560
2019/06/07 19:12:00	BASE	0.00	34	M	M	-1.2	100	-1.2	0	0	984.5	NA	0.0000	-SN BR	5000	0	0	0	560
2019/06/07 19:13:00	BASE	0.00	37	M	M	-1.2	100	-1.2	0	0	984.5	NA	0.0000	-SN BR	6000	0	0	0	560
2019/06/07 19:14:00	BASE	0.00	39	M	M	-1.2	100	-1.2	0	0	984.5	NA	0.0000	-SN BR	6000	0	0	0	560
2019/06/07 19:15:00	BASE	0.00	23	M	M	-1.2	100	-1.2	0	0	984.4	NA	0.0000	-SN BR	7000	0	0	0	560
2019/06/07 19:16:00	BASE	0.00	21	M	M	-1.3	100	-1.3	0	0	984.3	NA	0.0000	-SN BR	8000	0	0	0	560
2019/06/07 19:17:00	BASE	0.00	41	M	M	-1.3	100	-1.3	0	0	984.3	NA	0.0000	-SN BR	9000	0	0	0	590
2019/06/07 19:18:00	BASE	0.00	56	M	M	-1.3	100	-1.3	0	0	984.3	NA	0.0000	-SN BR	6000	0	0	0	590
2019/06/07 19:19:00	BASE	0.00	63	M	M	-1.3	100	-1.3	0	0	984.3	NA	0.0000	-SN BR	6000	0	0	0	620
2019/06/07 19:20:00	BASE	0.00	66	M	M	-1.2	100	-1.2	0	0	984.3	NA	0.0000	-SN BR	6000	0	0	0	590
2019/06/07 19:21:00	BASE	0.00	87	M	M	-1.2	100	-1.2	0	0	984.3	NA	0.0000	-SN BR	6000	0	0	0	560
2019/06/07 19:22:00	BASE	0.00	107	M	M	-1.2	100	-1.2	0	0	984.3	NA	0.0000	-SN BR	7000	0	0	0	560
2019/06/07 19:23:00	BASE	0.00	117	M	M	-1.2	100	-1.2	0	0	984.3	NA	0.0000	-SN BR	7000	0	0	0	520
2019/06/07 19:24:00	BASE	0.00	153	M	M	-1.2	100	-1.2	0	0	984.3	NA	0.0000	-SN BR	6000	0	0	0	520
2019/06/07 19:25:00	BASE	0.00	184	M	M	-1.2	100	-1.2	0	0	984.3	NA	0.0000	-SN BR	6000	0	0	0	590
2019/06/07 19:26:00	BASE	0.00	190	M	M	-1.2	100	-1.2	0	0	984.3	NA	0.0000	-SN BR	6000	0	0	0	720
2019/06/07 19:27:00	BASE	0.00	197	M	M	-1.2	100	-1.2	0	0	984.3	NA	0.0000	-SN BR	5000	0	0	0	820
2019/06/07 19:28:00	BASE	0.00	198	M	M	-1.2	100	-1.2	0	0	984.3	NA	0.0000	-SN BR	5000	0	0	0	790
2019/06/07 19:29:00	BASE	0.00	198	M	M	-1.2	100	-1.2	0	0	984.3	NA	0.0000	-SN BR	4700	0	0	0	750
2019/06/07 19:30:00	BASE	0.00	198	M	M	-1.3	100	-1.3	0	0	984.3	NA	0.0000	-SN BR	4200	0	0	0	720
2019/06/07 19:31:00	BASE	0.00	195	M	M	-1.2	100	-1.2	0	0	984.3	NA	0.0000	-SN BR	4600	0	0	0	690
2019/06/07 19:32:00	BASE	0.00	146	M	M	-1.2	100	-1.2	0	0	984.3	NA	0.0000	-SN BR	4600	0	0	0	720
2019/06/07 19:33:00	BASE	0.00	100	M	M	-1.2	100	-1.2	0	0	984.3	NA	0.0000	-SN BR	4700	0	0	0	1020
2019/06/07 19:34:00	BASE	0.00	99	M	M	-1.2	100	-1.2	0	0	984.3	NA	0.0000	-SN BR	5000	0	0	0	1020
2019/06/07 19:35:00	BASE	0.18	84	1.54	68	-1.2	100	-1.2	0	0	984.3	NA	0.0000	-SN BR	4900	0	0	0	980
2019/06/07 19:36:00	BASE	1.25	68	3.19	66	-1.2	100	-1.2	0	0	984.3	NA	0.0000	-SN BR	4900	0	0	0	890
2019/06/07 19:37:00	BASE	3.01	66	4.06	68	-1.2	100	-1.2	0	0	984.3	NA	0.0000	-SN BR	5000	0	0	0	790
2019/06/07 19:38:00	BASE	3.66	66	4.06	68	-1.2	100	-1.2	0	0	984.3	NA	0.0000	-SN BR	4900	0	0	0	720
2019/06/07 19:39:00	BASE	2.57	56	4.06	68	-1.2	100	-1.2	0	0	984.3	NA	0.0000	-SN BR	4900	0	0	0	790
2019/06/07 19:40:00	BASE	0.86	36	4.06	68	-1.2	100	-1.2	0	0	984.2	NA	0.0000	-SN BR	5000	0	0	0	1440
2019/06/07 19:41:00	BASE	0.57	0	4.06	68	-1.3	100	-1.3	0	0	984.2	NA	0.0000	-SN BR	9000	0	0	0	3410
2019/06/07 19:42:00	BASE	1.82	348	4.06	68	-1.3	100	-1.3	0	0	984.1	NA	0.0000	-SN BR	9999	0	0	0	2620
2019/06/07 19:43:00	BASE	3.15	30	5.30	68	-1.3	100	-1.3	0	0	984.1	NA	0.0000	-SN BR	9999	0	0	0	2490
2019/06/07 19:44:00	BASE	3.83	86	5.30	68	-1.3	100	-1.3	0	0	984.1	NA	0.0000	-SN BR	9000	0	0	0	3450
2019/06/07 19:45:00	BASE	3.28	123	5.30	68	-1.3	100	-1.3	0	0	984.1	NA	0.0000	-SN BR	5000	0	0	0	3410
2019/06/07 19:46:00	BASE	2.89	102	5.30	68	-1.3	100	-1.3	0	0	984.1	NA	0.0000	-SN BR	6000	0	0	0	4360
2019/06/07 19:47:00	BASE	2.85	73	5.30	68	-1.3	100	-1.3	0	0	984.1	NA	0.0000	-SN BR	9999	0	0	0	4400
2019/06/07 19:48:00	BASE	2.30	120	5.30	68	-1.3	100	-1.3	0	0	984.1	NA	0.0000	-SN BR	8000	0	0	0	4330
2019/06/07 19:49:00	BASE	2.53	156	5.30	68	-1.2	100	-1.2	0	0	984.1	NA	0.0000	-SN BR	6000	0	0	0	4330
2019/06/07 19:50:00	BASE	3.42	161	5.30	68	-1.2	100	-1.2	0	0	984.1	NA	0.0000	-SN BR	6000	3410	0	0	0
2019/06/07 19:51:00	BASE	3.66	169	5.30	68	-1.2	100	-1.2	0	0	984.1	NA	0.0000	-SN BR	6000	3310	0	0	0
2019/06/07 19:52:00	BASE	3.56	164	5.30	68	-1.2	100	-1.2	0	0	984.1	NA	0.0000	-SN BR	6000	3280	0	0	0
2019/06/07 19:53:00	BASE	3.86	149	5.14	87	-1.2	100	-1.2	0	0	984.1	NA	0.0000	-SN BR	8000	0	0	0	3540
2019/06/07 19:54:00	BASE	4.06	140	4.68	135	-1.2	100	-1.2	0	0	984.1	NA	0.0000	-SN BR	8000	0	0	0	3510
2019/06/07 19:55:00	BASE	3.76	140	4.68	135	-1.2	100	-1.2	0	0	984.1	NA	0.0000	-SN BR	8000	3350	0	0	0
2019/06/07 19:56:00	BASE	3.36	142	4.68	135	-1.2	100	-1.2	0	0	984.1	NA	0.0000	-SN BR	7000	3380	0	0	0
2019/06/07 19:57:00	BASE	2.82	140	4.68	135	-1.2	100	-1.2	0	0	984.1	NA	0.0000	-SN BR	7000	3380	0	0	0
2019/06/07 19:58:00	BASE	1.88	134	4.68	135	-1.2	100	-1.2	0	0	984.1	NA	0.0000	-SN BR	9000	3350	0	0	0
2019/06/07 19:59:00	BASE	1.24	143	4.68	135	-1.2	100	-1.2	0	0	984.1	NA	0.0000	-SN BR	9999	3310	0	0	0
2019/06/07 20:00:00	BASE	1.87	158	4.68	135	-1.2	100	-1.2	0	0	984.1	NA	0.0000	-SN BR	9999	3280	0	0	0
2019/06/07 20:01:00	BASE	2.63	165	4.68	135	-1.2	100	-1.2	0	0	984.1	NA	0.0000	-SN BR	9999	230	0	0	0
2019/06/07 20:02:00	BASE	2.50	164	4.68	135	-1.2	100	-1.2	0	0	984.1	NA	0.0000	-SN BR	9999	0	0	0	260
2019/06/07 20:03:00	BASE	2.26	161	4.22	137	-1.2	100	-1.2	0	0	984.1	NA	0.0000	-SN BR	9999	0	0	0	2590
2019/06/07 20:04:00	BASE	2.08	163	3.91	140	-1.2	100	-1.2	0	0	984.1	NA	0.0000	-SN BR	9000	3350	0	0	0
2019/06/07 20:05:00	BASE	2.19	160	3.55	140	-1.2	100	-1.2	0	0	984.1	NA	0.0000	-SN BR	6000	3310	0	0	0
2019/06/07 20:06:00	BASE	2.38	154	3.19	163	-1.2	100	-1.2	0	0	984.1	NA	0.0000	-SN BR	5000	300	3310	0	0
2019/06/07 20:07:00	BASE	1.96	150	3.19	163	-1.2	100	-1.2	0	0	984.1	NA	0.0000	-SN BR	7000	0	0	0	1540
2019/06/07 20:08:00	BASE	1.12	133	3.19	163	-1.2	100	-1.2	0	0	984.1	NA	0.0000	-SN BR	7000	0	0	0	4270
2019/06/07 20:09:00	BASE	0.38	103	3.19	163	-1.2	100	-1.2	0	0	984.1	NA	0.0000	-SN BR	7000	0	0	0	2790
2019/06/07 20:10:00	BASE	0.05	92	3.19	163	-1.2	100	-1.2	0	0	984.1	NA	0.0000	-SN BR	8000	360	0	0	0
2019/06/07 20:11:00	BASE	0.68	96	2.78	151	-1.2	100	-1.2	0	0	984.1	NA	0.0000	-SN BR	8000	0	0	0	3610
2019/06/07 20:12:00	BASE	1.22	113	2.78	151	-1.2	100	-1.2	0	0	984.1	NA	0.0000	-SN BR	9000	0	0	0	3710
2019/06/07 20:13:00	BASE	0.72	160	2.78	151	-1.2	100	-1.2	0	0	984.1	NA	0.0000	-SN BR	9999	2790	0	0	0
2019/06/07 20:14:00	BASE	1.63	48	3.65	10	-1.2	100	-1.2	0	0	984.1	NA	0.0000	-SN BR	9999	2660	0	0	0
2019/06/07 20:15:00	BASE	4.73	26	10.55	43	-1.3	100	-1.3	0	0	984.1	NA	0.0000	-SN BR	9999	2720	0	0	0
2019/06/07 20:16:00	BASE	8.79	40	12.55	43	-1.3	100	-1.3	0	0	984.0	NA	0.0000	-SN BR	9999	2820	0	0	0
2019/06/07 20:17:00	BASE	9.21	50	12.55	43	-1.4	100	-1.4	0	0	984.1	NA	0.0000	-SN	9999	2820	0	0	0
2019/06/07 20:18:00	BASE	6.06	56	12.55	43	-1.4	100	-1.4	0	0	984.1	NA	0.0000	-SN	9999	2790	0	0	0
2019/06/07 20:19:00	BASE	3.30	89	12.55	43	-1.5	100	-1.5	0	0	984.1	NA	0.0000	-SN	9999	2850	0	0	0
2019/06/07 20:20:00	BASE	1.32	122	12.55	43	-1.4	100	-1.4	0	0	984.1	NA	0.0000	-SN	9999	2790	0	0	0
2019/06/07 20:21:00	BASE	1.20	120	12.55	43	-1.3	100	-1.3	0	0	984.1	NA	0.0000	-SN	9999	2790	0	0	0
2019/06/07 20:22:00	BASE	1.58	113	12.55	43	-1.3	100	-1.3	0	0	984.1	NA	0.0000	-SN	9999	2790	0	0	0
2019/06/07 20:23:00	BASE	1.62	109	12.55	43	-1.2	100	-1.2	0	0	984.0	NA	0.0000		9999	2790	0	0	0
2019/06/07 20:24:00	BASE	2.06	123	12.55	43	-1.2	100	-1.2	0	0	984.0	NA	0.0000		9999	2790	0	0	0
2019/06/07 20:25:00	BASE	2.96	138	12.55	43	-1.2	100	-1.2	0	0	984.0	NA	0.0000		9999	2820	0	0	0
2019/06/07 20:26:00	BASE	3.69	147	9.21	53	-1.3	100	-1.3	0	0	984.0	NA	0.0000		9999	2820	0	0	0
2019/06/07 20:27:00	BASE	4.16	156	6.84	41	-1.3	100	-1.3	0	0	984.0	NA	0.0000		9999	2760	0	0	0
2019/06/07 20:28:00	BASE	4.64	159	5.20	158	-1.3	100	-1.3	0	0	984.0	NA	0.0000		9999	2820	0	0	0
2019/06/07 20:29:00	BASE	5.01	159	5.30	160	-1.3	100	-1.3	0	0	984.0	NA	0.0000		9999	2790	0	0	0
2019/06/07 20:30:00	BASE	5.27	155	5.50	153	-1.4	100	-1.4	0	0	984.0	NA	0.0000		9999	2890	0	0	0
2019/06/07 20:31:00	BASE	5.56	151	5.92	153	-1.4	100	-1.4	0	0	984.0	NA	0.0000		9999	2760	0	0	0
2019/06/07 20:32:00	BASE	5.56	146	5.92	153	-1.4	100	-1.4	0	0	984.0	NA	0.0000		9999	2690	0	0	0
2019/06/07 20:33:00	BASE	5.30	142	5.92	153	-1.4	100	-1.4	0	0	984.1	NA	0.0000		9999	2720	0	0	0
2019/06/07 20:34:00	BASE	5.09	141	5.92	153	-1.4	100	-1.4	0	0	984.1	NA	0.0000		9999	2760	0	0	0
2019/06/07 20:35:00	BASE	4.89	135	5.92	153	-1.4	100	-1.4	0	0	984.1	NA	0.0000		9999	2720	0	0	0
2019/06/07 20:36:00	BASE	4.69	126	5.92	153	-1.4	100	-1.4	0	0	984.1	NA	0.0000		9999	2720	0	0	0
2019/06/07 20:37:00	BASE	4.48	121	5.92	153	-1.4	100	-1.4	0	0	984.1	NA	0.0000		9999	2760	0	0	0
2019/06/07 20:38:00	BASE	4.14	114	5.92	153	-1.4	100	-1.4	0	0	984.2	NA	0.0000		9999	2760	0	0	0
2019/06/07 20:39:00	BASE	3.83	105	5.92	153	-1.4	100	-1.4	0	0	984.2	NA	0.0000		9999	2720	0	0	0
2019/06/07 20:40:00	BASE	4.04	95	5.92	153	-1.4	100	-1.4	0	0	984.2	NA	0.0000		9999	1940	2790	0	0
2019/06/07 20:41:00	BASE	4.71	83	5.81	145	-1.4	100	-1.4	0	0	984.2	NA	0.0000		9999	1840	0	0	0
2019/06/07 20:42:00	BASE	5.24	76	5.71	78	-1.4	100	-1.4	0	0	984.1	NA	0.0000		9999	1710	0	0	0
2019/06/07 20:43:00	BASE	5.33	74	5.81	73	-1.4	100	-1.4	0	0	984.1	NA	0.0000		9999	1570	0	0	0
2019/06/07 20:44:00	BASE	5.36	73	5.81	73	-1.3	100	-1.3	0	0	984.1	NA	0.0000		9999	0	0	0	2660
2019/06/07 20:45:00	BASE	5.13	76	5.81	73	-1.3	100	-1.3	0	0	984.1	NA	0.0000		9999	1480	0	0	0
2019/06/07 20:46:00	BASE	4.77	78	5.81	73	-1.2	100	-1.2	0	0	984.1	NA	0.0000		9999	1710	0	0	0
2019/06/07 20:47:00	BASE	4.58	81	5.81	73	-1.2	100	-1.2	0	0	984.1	NA	0.0000		9999	1540	0	0	0
2019/06/07 20:48:00	BASE	4.30	86	5.81	73	-1.2	100	-1.2	0	0	984.1	NA	0.0000		9999	1350	0	0	0
2019/06/07 20:49:00	BASE	4.85	90	6.79	89	-1.2	100	-1.2	0	0	984.1	NA	0.0000		9999	1310	0	0	0
2019/06/07 20:50:00	BASE	6.53	89	7.82	83	-1.2	100	-1.2	0	0	984.1	NA	0.0000	UP	9999	1480	0	0	0
2019/06/07 20:51:00	BASE	7.36	83	7.92	72	-1.1	100	-1.1	0	0	984.1	NA	0.0000	UP	9999	1480	0	0	0
2019/06/07 20:52:00	BASE	7.29	74	8.59	68	-1.1	100	-1.1	0	0	984.0	NA	0.0000	UP	9999	1280	0	0	0
2019/06/07 20:53:00	BASE	9.03	59	15.02	51	-1.1	100	-1.1	0	0	984.0	NA	0.0000	UP	9999	920	0	0	0
2019/06/07 20:54:00	BASE	9.33	43	15.02	51	-1.3	100	-1.3	0	0	984.0	NA	0.0000	UP	9999	1310	0	0	0
2019/06/07 20:55:00	BASE	7.15	30	15.02	51	-1.4	100	-1.4	0	0	983.9	NA	0.0000	UP	9999	950	0	0	0
2019/06/07 20:56:00	BASE	5.79	26	15.02	51	-1.5	100	-1.5	0	0	983.9	NA	0.0000	UP	9999	1150	0	0	0
2019/06/07 20:57:01	BASE	5.79	39	15.02	51	-1.7	100	-1.7	0	0	983.9	NA	0.0000	UP	9999	1180	0	0	0
2019/06/07 20:58:00	BASE	5.60	55	15.02	51	-1.7	100	-1.7	0	0	983.9	NA	0.0000	UP	8000	1210	0	0	0
2019/06/07 20:59:00	BASE	5.46	77	15.02	51	-1.7	100	-1.7	0	0	983.9	NA	0.0000	UP	7000	1250	0	0	0
2019/06/07 21:00:00	BASE	6.03	99	15.02	51	-1.6	100	-1.6	0	0	983.9	NA	0.0000	UP	7000	1350	0	0	0
2019/06/07 21:01:00	BASE	6.01	100	15.02	51	-1.6	100	-1.6	0	0	983.9	NA	0.0000	-SN	8000	1350	0	0	0
2019/06/07 21:02:00	BASE	6.01	94	15.02	51	-1.5	100	-1.5	0	0	983.9	NA	0.0000	-SN	9000	0	0	0	2790
2019/06/07 21:03:00	BASE	5.33	98	12.14	47	-1.5	100	-1.5	0	0	983.9	NA	0.0000	-SN BR	9999	1480	0	0	0
2019/06/07 21:04:00	BASE	4.89	106	8.13	49	-1.4	100	-1.4	0	0	983.9	NA	0.0000	-SN BR	9999	1440	0	0	0
2019/06/07 21:05:00	BASE	5.20	102	8.13	49	-1.4	100	-1.4	0	0	983.9	NA	0.0000	-SN BR	9999	0	0	0	2820
2019/06/07 21:06:00	BASE	5.48	96	8.28	90	-1.4	100	-1.4	0	0	983.9	NA	0.0000	-SN BR	9999	1250	0	0	0
2019/06/07 21:07:00	BASE	6.78	89	8.28	83	-1.4	100	-1.4	0	0	983.9	NA	0.0000	-SN BR	9999	1570	0	0	0
2019/06/07 21:08:00	BASE	7.27	83	8.28	83	-1.3	100	-1.3	0	0	983.9	NA	0.0000	-SN	9999	0	0	0	2720
2019/06/07 21:09:00	BASE	7.10	86	8.28	83	-1.3	100	-1.3	0	0	983.9	NA	0.0000	-SN	9999	1570	0	0	0
2019/06/07 21:10:00	BASE	7.78	76	8.90	58	-1.2	100	-1.2	0	0	983.9	NA	0.0000	-SN	9999	1250	0	0	0
2019/06/07 21:11:00	BASE	7.30	54	9.57	55	-1.3	100	-1.3	0	0	983.9	NA	0.0000	-SN	9999	1150	0	0	0
2019/06/07 21:12:00	BASE	5.69	52	9.57	55	-1.3	100	-1.3	0	0	983.9	NA	0.0000	-SN	9999	1210	0	0	0
2019/06/07 21:13:00	BASE	4.25	62	9.57	55	-1.3	100	-1.3	0	0	983.9	NA	0.0000	-SN	9999	1210	0	0	0
2019/06/07 21:14:00	BASE	3.25	67	9.57	55	-1.4	100	-1.4	0	0	983.9	NA	0.0000	-SN	9999	1210	0	0	0
2019/06/07 21:15:00	BASE	3.02	79	9.57	55	-1.4	100	-1.4	0	0	983.9	NA	0.0000	-SN	9999	1280	0	0	0
2019/06/07 21:16:00	BASE	3.60	91	9.57	55	-1.4	100	-1.4	0	0	983.9	NA	0.0000	-SN	9999	0	0	0	1740
2019/06/07 21:17:00	BASE	4.98	98	9.57	55	-1.4	100	-1.4	0	0	983.8	NA	0.0000	-SN	9999	690	1540	0	0
2019/06/07 21:18:00	BASE	6.64	93	9.57	55	-1.4	100	-1.4	0	0	983.7	NA	0.0000	-SN	9999	1940	0	0	0
2019/06/07 21:19:00	BASE	6.72	84	9.57	55	-1.4	100	-1.4	0	0	983.7	NA	0.0000	-SN	9999	2300	0	0	0
2019/06/07 21:20:00	BASE	6.57	58	9.57	55	-1.4	100	-1.4	0	0	983.7	NA	0.0000		9999	2300	0	0	0
2019/06/07 21:21:00	BASE	7.02	38	9.05	20	-1.4	100	-1.4	0	0	983.7	NA	0.0000		9999	2300	0	0	0
2019/06/07 21:22:00	BASE	6.95	50	9.05	20	-1.5	100	-1.5	0	0	983.7	NA	0.0000		9999	2360	0	0	0
2019/06/07 21:23:00	BASE	6.63	68	9.05	20	-1.5	100	-1.5	0	0	983.7	NA	0.0000		9999	2490	0	0	0
2019/06/07 21:24:00	BASE	6.38	79	9.05	20	-1.5	100	-1.5	0	0	983.7	NA	0.0000		9999	2490	0	0	0
2019/06/07 21:25:00	BASE	6.51	89	9.41	89	-1.5	100	-1.5	0	0	983.7	NA	0.0000		9999	2230	0	0	0
2019/06/07 21:26:00	BASE	7.60	90	11.11	75	-1.5	100	-1.5	0	0	983.6	NA	0.0000		9999	1970	0	0	0
2019/06/07 21:27:00	BASE	9.01	72	11.11	53	-1.5	100	-1.5	0	0	983.6	NA	0.0000		9999	2400	0	0	0
2019/06/07 21:28:00	BASE	8.20	73	11.11	53	-1.5	100	-1.5	0	0	983.6	NA	0.0000		9999	2400	0	0	0
2019/06/07 21:29:00	BASE	6.73	95	11.11	53	-1.5	100	-1.5	0	0	983.6	NA	0.0000		9999	2200	0	0	0
2019/06/07 21:30:00	BASE	7.81	80	12.35	50	-1.6	100	-1.6	0	0	983.5	NA	0.0000		9999	2300	0	0	0
2019/06/07 21:31:00	BASE	9.01	51	12.35	50	-1.6	100	-1.6	0	0	983.5	NA	0.0000		9999	2330	0	0	0
2019/06/07 21:32:00	BASE	8.07	46	12.35	50	-1.6	100	-1.6	0	0	983.5	NA	0.0000		9999	2400	0	0	0
2019/06/07 21:33:00	BASE	8.20	45	12.35	50	-1.6	100	-1.6	0	0	983.5	NA	0.0000		9999	2690	0	0	0
2019/06/07 21:34:00	BASE	9.84	46	12.35	50	-1.7	100	-1.7	0	0	983.5	NA	0.0000		9999	2850	5580	0	0
2019/06/07 21:35:00	BASE	10.34	53	12.35	50	-1.7	100	-1.7	0	0	983.5	NA	0.0000		9999	2950	5510	0	0
2019/06/07 21:36:00	BASE	9.53	61	12.35	50	-1.6	100	-1.6	0	0	983.5	NA	0.0000		9999	2890	5450	0	0
2019/06/07 21:37:00	BASE	8.91	67	12.35	50	-1.6	100	-1.6	0	0	983.5	NA	0.0000		9999	2820	3670	5510	0
2019/06/07 21:38:00	BASE	8.30	72	12.35	50	-1.6	100	-1.6	0	0	983.5	NA	0.0000		9999	2850	3710	5580	0
2019/06/07 21:39:00	BASE	6.82	84	12.35	50	-1.5	100	-1.5	0	0	983.5	NA	0.0000		9999	2890	0	0	0
2019/06/07 21:40:00	BASE	6.89	95	11.47	45	-1.5	100	-1.5	0	0	983.5	NA	0.0000		9999	2890	0	0	0
2019/06/07 21:41:00	BASE	8.27	98	11.37	44	-1.5	100	-1.5	0	0	983.4	NA	0.0000		9999	2850	0	0	0
2019/06/07 21:42:00	BASE	8.95	100	11.37	44	-1.5	100	-1.5	0	0	983.5	NA	0.0000		9999	2820	0	0	0
2019/06/07 21:43:00	BASE	8.38	89	11.37	44	-1.5	100	-1.5	0	0	983.5	NA	0.0000		9999	3050	3640	0	0
2019/06/07 21:44:00	BASE	7.22	71	11.32	49	-1.5	100	-1.5	0	0	983.5	NA	0.0000		9999	2990	0	0	0
2019/06/07 21:45:00	BASE	7.97	56	11.88	38	-1.5	100	-1.5	0	0	983.5	NA	0.0000		9999	2990	0	0	0
2019/06/07 21:46:00	BASE	8.21	56	11.88	38	-1.5	100	-1.5	0	0	983.5	NA	0.0000		9999	2890	0	0	0
2019/06/07 21:47:00	BASE	6.42	63	11.88	38	-1.5	100	-1.5	0	0	983.5	NA	0.0000		9999	2890	0	0	0
2019/06/07 21:48:00	BASE	5.88	69	11.88	38	-1.5	100	-1.5	0	0	983.5	NA	0.0000		9999	2820	0	0	0
2019/06/07 21:49:00	BASE	6.80	78	11.88	38	-1.5	100	-1.5	0	0	983.5	NA	0.0000		9999	2850	0	0	0
2019/06/07 21:50:00	BASE	7.36	74	11.88	38	-1.4	100	-1.4	0	0	983.5	NA	0.0000		9999	2990	0	0	0
2019/06/07 21:51:00	BASE	6.67	70	11.88	38	-1.4	100	-1.4	0	0	983.5	NA	0.0000		9999	2920	3450	5410	0
2019/06/07 21:52:00	BASE	5.98	82	11.88	38	-1.4	100	-1.4	0	0	983.5	NA	0.0000		9999	3450	5280	0	0
2019/06/07 21:53:00	BASE	6.48	94	11.88	38	-1.4	100	-1.4	0	0	983.5	NA	0.0000		9999	3250	5250	0	0
2019/06/07 21:54:00	BASE	6.29	101	11.88	38	-1.4	100	-1.4	0	0	983.5	NA	0.0000		9999	3450	5090	0	0
2019/06/07 21:55:00	BASE	4.87	109	10.19	80	-1.4	100	-1.4	0	0	983.5	NA	0.0000		9999	3380	5320	0	0
2019/06/07 21:56:00	BASE	4.46	102	10.19	80	-1.3	100	-1.3	0	0	983.5	NA	0.0000		9999	3410	5150	0	0
2019/06/07 21:57:00	BASE	4.46	112	10.19	80	-1.3	100	-1.3	0	0	983.5	NA	0.0000		9999	3180	5250	0	0
2019/06/07 21:58:00	BASE	4.66	113	10.19	80	-1.2	100	-1.2	0	0	983.5	NA	0.0000		9999	3150	5220	0	0
2019/06/07 21:59:00	BASE	4.54	92	9.93	77	-1.2	100	-1.2	0	0	983.5	NA	0.0000		9999	3120	5250	0	0
2019/06/07 22:00:00	BASE	4.43	100	8.33	81	-1.2	100	-1.2	0	0	983.5	NA	0.0000		9999	3120	5350	0	0
2019/06/07 22:01:00	BASE	4.21	112	8.33	81	-1.3	100	-1.3	0	0	983.5	NA	0.0000		9999	3220	5220	0	0
2019/06/07 22:02:00	BASE	3.15	114	8.33	81	-1.3	100	-1.3	0	0	983.5	NA	0.0000		9999	3150	5150	0	0
2019/06/07 22:03:00	BASE	3.80	97	7.97	53	-1.3	100	-1.3	0	0	983.5	NA	0.0000		9999	3150	5250	0	0
2019/06/07 22:04:00	BASE	4.56	92	7.97	53	-1.3	100	-1.3	0	0	983.5	NA	0.0000		9999	3220	5120	0	0
2019/06/07 22:05:00	BASE	3.71	98	7.97	53	-1.2	100	-1.2	0	0	983.5	NA	0.0000		9999	3220	5280	0	0
2019/06/07 22:06:00	BASE	3.06	90	7.97	53	-1.2	100	-1.2	0	0	983.5	NA	0.0000		9999	3220	5280	0	0
2019/06/07 22:07:00	BASE	2.82	73	7.97	53	-1.2	100	-1.2	0	0	983.5	NA	0.0000		9999	3150	5320	0	0
2019/06/07 22:08:00	BASE	4.86	77	9.93	102	-1.2	100	-1.2	0	0	983.5	NA	0.0000		9999	3120	5280	0	0
2019/06/07 22:09:00	BASE	8.25	85	10.75	78	-1.2	100	-1.2	0	0	983.4	NA	0.0000		9999	3150	5250	0	0
2019/06/07 22:10:00	BASE	9.27	79	11.78	70	-1.3	100	-1.3	0	0	983.4	NA	0.0000		9999	3480	5220	0	0
2019/06/07 22:11:00	BASE	8.10	79	11.78	70	-1.3	100	-1.3	0	0	983.4	NA	0.0000		9999	3450	5220	0	0
2019/06/07 22:12:00	BASE	6.10	90	11.78	70	-1.3	100	-1.3	0	0	983.4	NA	0.0000		9999	3410	5250	0	0
2019/06/07 22:13:00	BASE	5.44	93	11.78	70	-1.2	100	-1.2	0	0	983.4	NA	0.0000		9999	3410	0	0	0
2019/06/07 22:14:00	BASE	6.46	84	11.78	70	-1.2	100	-1.2	0	0	983.4	NA	0.0000		9999	3380	0	0	0
2019/06/07 22:15:00	BASE	8.28	74	11.78	70	-1.2	100	-1.2	0	0	983.3	NA	0.0000		9999	2260	3350	0	0
2019/06/07 22:16:00	BASE	8.27	78	11.78	70	-1.2	100	-1.2	0	0	983.4	NA	0.0000		9999	3380	0	0	0
2019/06/07 22:17:00	BASE	6.37	88	11.78	70	-1.2	100	-1.2	0	0	983.3	NA	0.0000		9999	3410	0	0	0
2019/06/07 22:18:00	BASE	7.61	80	12.71	80	-1.2	100	-1.2	0	0	983.3	NA	0.0000		9999	3350	0	0	0
2019/06/07 22:19:00	BASE	8.80	77	12.71	80	-1.2	100	-1.2	0	0	983.3	NA	0.0000		9999	3280	0	0	0
2019/06/07 22:20:00	BASE	7.18	87	12.71	80	-1.2	100	-1.2	0	0	983.3	NA	0.0000		9999	3280	5120	0	0
2019/06/07 22:21:00	BASE	6.01	96	12.71	80	-1.1	100	-1.1	0	0	983.3	NA	0.0000		9999	3350	5090	0	0
2019/06/07 22:22:00	BASE	5.58	106	12.71	80	-1.1	100	-1.1	0	0	983.4	NA	0.0000		9999	3350	5050	0	0
2019/06/07 22:23:00	BASE	5.68	110	12.71	80	-1.1	100	-1.1	0	0	983.4	NA	0.0000		9999	3410	5050	0	0
2019/06/07 22:24:00	BASE	5.79	117	12.71	80	-1.1	100	-1.1	0	0	983.4	NA	0.0000		9999	3410	5050	0	0
2019/06/07 22:25:00	BASE	5.13	120	12.71	80	-1.1	100	-1.1	0	0	983.4	NA	0.0000		9999	3350	5120	0	0
2019/06/07 22:26:00	BASE	4.26	121	12.71	80	-1.1	100	-1.1	0	0	983.4	NA	0.0000		9999	3310	5220	0	0
2019/06/07 22:27:00	BASE	4.15	132	12.71	80	-1.1	100	-1.1	0	0	983.4	NA	0.0000		9999	3280	5150	0	0
2019/06/07 22:28:00	BASE	4.02	118	10.03	70	-1.1	100	-1.1	0	0	983.4	NA	0.0000		9999	3280	5150	0	0
2019/06/07 22:29:00	BASE	3.52	69	8.28	93	-1.2	100	-1.2	0	0	983.4	NA	0.0000		9999	3250	5180	0	0
2019/06/07 22:30:00	BASE	2.97	54	6.48	109	-1.3	100	-1.3	0	0	983.4	NA	0.0000		9999	3310	5180	0	0
2019/06/07 22:31:00	BASE	3.01	55	6.53	40	-1.3	100	-1.3	0	0	983.4	NA	0.0000		9999	5180	0	0	0
2019/06/07 22:32:00	BASE	5.40	53	10.65	59	-1.4	100	-1.4	0	0	983.4	NA	0.0000		9999	3280	5220	0	0
2019/06/07 22:33:00	BASE	9.52	71	14.15	77	-1.5	100	-1.5	0	0	983.3	NA	0.0000		9999	3280	5180	0	0
2019/06/07 22:34:00	BASE	9.62	81	14.15	77	-1.4	100	-1.4	0	0	983.3	NA	0.0000		9999	3280	5150	0	0
2019/06/07 22:35:00	BASE	7.16	87	14.15	77	-1.4	100	-1.4	0	0	983.4	NA	0.0000		9999	5120	0	0	0
2019/06/07 22:36:00	BASE	6.96	97	14.15	77	-1.3	100	-1.3	0	0	983.4	NA	0.0000		9999	3220	5180	0	0
2019/06/07 22:37:00	BASE	6.72	103	14.15	77	-1.2	100	-1.2	0	0	983.4	NA	0.0000		9999	1740	3220	5180	0
2019/06/07 22:38:00	BASE	5.93	111	14.15	77	-1.2	100	-1.2	0	0	983.4	NA	0.0000		9999	1210	5090	0	0
2019/06/07 22:39:00	BASE	5.86	105	14.15	77	-1.1	100	-1.1	0	0	983.4	NA	0.0000		9999	3280	5050	0	0
2019/06/07 22:40:00	BASE	5.53	93	14.15	77	-1.2	100	-1.2	0	0	983.4	NA	0.0000		9999	3220	5050	0	0
2019/06/07 22:41:00	BASE	5.24	94	14.15	77	-1.2	100	-1.2	0	0	983.4	NA	0.0000		9999	5090	0	0	0
2019/06/07 22:42:00	BASE	5.47	74	14.15	77	-1.3	100	-1.3	0	0	983.4	NA	0.0000		9999	2130	5180	0	0
2019/06/07 22:43:00	BASE	4.10	73	10.39	59	-1.3	100	-1.3	0	0	983.4	NA	0.0000		9999	3220	5220	0	0
2019/06/07 22:44:00	BASE	3.29	81	8.18	90	-1.4	100	-1.4	0	0	983.4	NA	0.0000		9999	5180	0	0	0
2019/06/07 22:45:00	BASE	4.53	72	7.77	63	-1.4	100	-1.4	0	0	983.4	NA	0.0000		9999	5250	0	0	0
2019/06/07 22:46:00	BASE	6.35	64	11.47	44	-1.4	100	-1.4	0	0	983.4	NA	0.0000		9999	5350	0	0	0
2019/06/07 22:47:00	BASE	7.13	56	11.47	44	-1.5	100	-1.5	0	0	983.3	NA	0.0000		9999	5380	0	0	0
2019/06/07 22:48:00	BASE	8.97	38	13.68	29	-1.5	100	-1.5	0	0	983.3	NA	0.0000		9999	3310	5380	0	0
2019/06/07 22:49:00	BASE	10.38	23	13.68	29	-1.5	100	-1.5	0	0	983.3	NA	0.0000		9999	3250	5510	0	0
2019/06/07 22:50:00	BASE	10.67	23	14.92	10	-1.5	100	-1.5	0	0	983.3	NA	0.0000		9999	3250	0	0	0
2019/06/07 22:51:00	BASE	9.79	36	14.92	10	-1.4	100	-1.4	0	0	983.4	NA	0.0000		9999	3220	0	0	0
2019/06/07 22:52:00	BASE	9.13	49	14.92	10	-1.4	100	-1.4	0	0	983.3	NA	0.0000		9999	3180	0	0	0
2019/06/07 22:53:00	BASE	11.29	40	14.92	10	-1.4	100	-1.4	0	0	983.2	NA	0.0000		9999	3120	0	0	0
2019/06/07 22:54:00	BASE	12.83	35	16.57	35	-1.4	100	-1.4	0	0	983.2	NA	0.0000		9999	3150	5250	0	0
2019/06/07 22:55:00	BASE	11.34	38	16.57	35	-1.5	100	-1.5	0	0	983.2	NA	0.0000		9999	5350	0	0	0
2019/06/07 22:56:00	BASE	10.94	40	16.57	35	-1.5	100	-1.5	0	0	983.2	NA	0.0000		9999	3280	5410	0	0
2019/06/07 22:57:00	BASE	12.19	45	16.57	35	-1.5	100	-1.5	0	0	983.2	NA	0.0000		9999	3220	5510	0	0
2019/06/07 22:58:00	BASE	10.80	70	16.57	35	-1.4	100	-1.4	0	0	983.2	NA	0.0000		9999	3220	5450	0	0
2019/06/07 22:59:00	BASE	8.41	92	16.57	35	-1.3	100	-1.3	0	0	983.3	NA	0.0000		9999	3180	5410	0	0
2019/06/07 23:00:00	BASE	7.56	68	16.57	35	-1.2	100	-1.2	0	0	983.3	NA	0.0000		9999	3220	5380	0	0
2019/06/07 23:01:00	BASE	7.42	44	16.57	35	-1.1	100	-1.1	0	0	983.3	NA	0.0000		9999	3250	5050	5450	0
2019/06/07 23:02:00	BASE	6.54	71	16.57	35	-1.1	100	-1.1	0	0	983.3	NA	0.0000		9999	3250	5050	5480	0
2019/06/07 23:03:00	BASE	6.97	75	16.57	35	-1.0	100	-1.0	0	0	983.4	NA	0.0000		9999	3180	5020	5580	0
2019/06/07 23:04:00	BASE	7.31	59	14.25	28	-1.0	100	-1.0	0	0	983.3	NA	0.0000		9999	3180	5050	0	0
2019/06/07 23:05:00	BASE	9.26	50	14.25	28	-1.1	100	-1.1	0	0	983.3	NA	0.0000		9999	3150	5580	0	0
2019/06/07 23:06:00	BASE	11.67	39	13.79	49	-1.1	100	-1.1	0	0	983.3	NA	0.0000		9999	3180	0	0	0
2019/06/07 23:07:00	BASE	10.72	43	13.48	26	-1.1	100	-1.1	0	0	983.3	NA	0.0000		9999	3150	5450	0	0
2019/06/07 23:08:00	BASE	8.04	43	13.48	26	-1.2	100	-1.2	0	0	983.3	NA	0.0000		9999	3150	5480	0	0
2019/06/07 23:09:00	BASE	8.09	40	13.48	26	-1.2	100	-1.2	0	0	983.2	NA	0.0000		9999	4890	0	0	0
2019/06/07 23:10:00	BASE	11.05	36	15.12	16	-1.2	100	-1.2	0	0	983.1	NA	0.0000		9999	4890	0	0	0
2019/06/07 23:11:00	BASE	12.29	29	15.12	16	-1.2	100	-1.2	0	0	983.1	NA	0.0000		9999	3250	4920	0	0
2019/06/07 23:12:00	BASE	10.34	18	15.12	16	-1.1	100	-1.1	0	0	983.2	NA	0.0000		9999	3220	5090	0	0
2019/06/07 23:13:00	BASE	7.94	10	15.12	16	-1.1	100	-1.1	0	0	983.2	NA	0.0000		9999	3180	5120	0	0
2019/06/07 23:14:00	BASE	12.38	15	18.88	22	-1.1	100	-1.1	0	0	983.0	NA	0.0000		9999	3220	5020	0	0
2019/06/07 23:15:00	BASE	16.43	20	18.88	22	-1.2	100	-1.2	0	0	983.1	NA	0.0000	SQ	9999	3250	4950	0	0
2019/06/07 23:16:00	BASE	15.68	24	18.88	22	-1.2	100	-1.2	0	0	983.1	NA	0.0000		9999	3220	4950	0	0
2019/06/07 23:17:00	BASE	16.22	20	18.88	22	-1.3	100	-1.3	0	0	983.0	NA	0.0000		9999	3220	4950	0	0
2019/06/07 23:18:00	BASE	15.96	17	18.88	22	-1.3	100	-1.4	0	0	983.1	NA	0.0000		9999	3220	4990	0	0
2019/06/07 23:19:00	BASE	16.20	22	20.42	22	-1.4	100	-1.4	0	0	983.0	NA	0.0000		9999	3180	4990	0	0
2019/06/07 23:20:00	BASE	17.50	24	20.42	22	-1.4	100	-1.4	0	0	983.0	NA	0.0000		9999	3180	0	0	0
2019/06/07 23:21:00	BASE	18.02	24	20.42	22	-1.5	100	-1.5	0	0	983.0	NA	0.0000		9999	3120	4950	0	0
2019/06/07 23:22:00	BASE	17.92	25	20.42	22	-1.5	100	-1.5	0	0	983.0	NA	0.0000		9999	3080	4920	0	0
2019/06/07 23:23:00	BASE	18.10	25	20.42	22	-1.5	100	-1.5	0	0	982.9	NA	0.0000		9999	3120	0	0	0
2019/06/07 23:24:00	BASE	18.66	24	20.73	25	-1.5	100	-1.5	0	0	982.9	NA	0.0000		9999	3080	0	0	0
2019/06/07 23:25:00	BASE	18.76	25	20.73	25	-1.5	100	-1.5	0	0	982.9	NA	0.0000		9999	3050	0	0	0
2019/06/07 23:26:00	BASE	17.64	26	20.73	25	-1.6	100	-1.6	0	0	983.0	NA	0.0000		9999	2990	5350	0	0
2019/06/07 23:27:00	BASE	17.53	25	20.73	25	-1.6	100	-1.6	0	0	982.9	NA	0.0000		9999	3020	5280	0	0
2019/06/07 23:28:00	BASE	18.82	25	21.66	19	-1.6	100	-1.6	0	0	982.9	NA	0.0000		9999	3050	5250	0	0
2019/06/07 23:29:00	BASE	18.78	24	21.66	19	-1.6	100	-1.6	0	0	982.9	NA	0.0000		9999	3020	5250	0	0
2019/06/07 23:30:00	BASE	17.71	24	21.66	19	-1.5	100	-1.5	0	0	983.0	NA	0.0000		9999	3050	5350	0	0
2019/06/07 23:31:00	BASE	16.86	26	21.66	19	-1.5	100	-1.5	0	0	983.0	NA	0.0000		9999	3080	0	0	0
2019/06/07 23:32:00	BASE	15.90	30	21.66	19	-1.5	100	-1.5	0	0	983.1	NA	0.0000		9999	3050	0	0	0
2019/06/07 23:33:00	BASE	15.18	31	21.66	19	-1.5	100	-1.5	0	0	983.1	NA	0.0000		9999	3020	0	0	0
2019/06/07 23:34:00	BASE	15.64	28	21.66	19	-1.4	100	-1.4	0	0	983.1	NA	0.0000		9999	2950	0	0	0
2019/06/07 23:35:00	BASE	15.84	30	21.66	19	-1.4	100	-1.4	0	0	983.1	NA	0.0000		9999	2920	0	0	0
2019/06/07 23:36:00	BASE	14.22	31	21.66	19	-1.3	100	-1.3	0	0	983.1	NA	0.0000		9999	2950	0	0	0
2019/06/07 23:37:00	BASE	12.03	34	21.66	19	-1.3	100	-1.3	0	0	983.2	NA	0.0000		9999	3020	0	0	0
2019/06/07 23:38:00	BASE	12.95	35	19.70	24	-1.3	100	-1.3	0	0	983.0	NA	0.0000		9999	2950	0	0	0
2019/06/07 23:39:00	BASE	14.77	31	19.70	24	-1.3	100	-1.3	0	0	983.0	NA	0.0000		9999	2850	0	0	0
2019/06/07 23:40:00	BASE	13.87	34	18.31	33	-1.2	100	-1.2	0	0	983.1	NA	0.0000		9999	2890	5020	0	0
2019/06/07 23:41:00	BASE	13.09	34	18.31	33	-1.2	100	-1.2	0	0	983.1	NA	0.0000		9999	2890	5020	0	0
2019/06/07 23:42:00	BASE	13.50	30	18.31	33	-1.2	100	-1.2	0	0	983.0	NA	0.0000		9999	2850	5020	0	0
2019/06/07 23:43:00	BASE	13.44	30	17.85	31	-1.2	100	-1.2	0	0	983.1	NA	0.0000		9999	2850	4950	0	0
2019/06/07 23:44:00	BASE	13.08	31	17.85	31	-1.2	100	-1.2	0	0	983.1	NA	0.0000		9999	2790	4950	0	0
2019/06/07 23:45:00	BASE	12.73	31	17.18	27	-1.2	100	-1.2	0	0	983.1	NA	0.0000		9999	2760	4860	0	0
2019/06/07 23:46:00	BASE	12.50	31	17.18	27	-1.2	100	-1.2	0	0	983.1	NA	0.0000		9999	2820	4950	0	0
2019/06/07 23:47:00	BASE	15.06	30	19.03	33	-1.1	100	-1.1	0	0	982.9	NA	0.0000		9999	2890	0	0	0
2019/06/07 23:48:00	BASE	17.52	29	19.75	28	-1.2	100	-1.2	0	0	982.9	NA	0.0000		9999	2890	0	0	0
2019/06/07 23:49:00	BASE	17.94	28	20.83	21	-1.2	100	-1.2	0	0	982.8	NA	0.0000		9999	2760	0	0	0
2019/06/07 23:50:00	BASE	17.72	27	20.83	21	-1.3	100	-1.3	0	0	982.9	NA	0.0000		9999	2720	4890	0	0
2019/06/07 23:51:00	BASE	18.01	29	21.61	27	-1.3	100	-1.3	0	0	982.8	NA	0.0000		9999	2720	4890	0	0
2019/06/07 23:52:00	BASE	19.14	29	21.61	27	-1.4	100	-1.4	0	0	982.8	NA	0.0000		9999	2690	4920	0	0
2019/06/07 23:53:00	BASE	18.61	28	21.61	27	-1.4	100	-1.4	0	0	982.9	NA	0.0000		9999	2820	0	0	0
2019/06/07 23:54:00	BASE	17.24	29	21.61	27	-1.5	100	-1.5	0	0	982.9	NA	0.0000		9999	2820	0	0	0
2019/06/07 23:55:00	BASE	16.91	28	21.61	27	-1.5	100	-1.5	0	0	982.9	NA	0.0000		9999	2890	0	0	0
2019/06/07 23:56:00	BASE	16.78	28	21.61	27	-1.5	100	-1.5	0	0	982.9	NA	0.0000		9999	2820	0	0	0
2019/06/07 23:57:00	BASE	16.77	29	21.61	27	-1.5	100	-1.5	0	0	982.8	NA	0.0000		9999	2720	0	0	0
2019/06/07 23:58:00	BASE	17.79	29	21.61	27	-1.5	100	-1.5	0	0	982.8	NA	0.0000		9999	2690	0	0	0
2019/06/07 23:59:00	BASE	18.36	32	21.61	27	-1.4	100	-1.4	0	0	982.8	NA	0.2540		9999	2690	0	0	0